<?xml version="1.0" encoding="UTF-8" standalone="no" ?>
<gpx xmlns="http://www.topografix.com/GPX/1/1" xmlns:xsi="http://www.w3.org/2001/XMLSchema-instance" xsi:schemaLocation="http://www.topografix.com/GPX/1/1 http://www.topografix.com/GPX/1/1/gpx.xsd" version="1.1" creator="VisuGPX - https://www.visugpx.com">
  <metadata>
    <name>col d'aubisque</name>
    <desc><![CDATA[premiere fois que je tente le col d'aubisque. temps magnifique. génial]]></desc>
  </metadata>
  <trk>
    <name><![CDATA[Tracé actuel: 03 AOU 2019 07:42]]></name>
    <trkseg>
      <trkpt lat="42.9884" lon="-0.42217">
        <ele>510.12</ele>
        <time>2019-08-03T05:42:26Z</time>
      </trkpt>
      <trkpt lat="42.98838" lon="-0.42216">
        <ele>508.19</ele>
        <time>2019-08-03T05:42:33Z</time>
      </trkpt>
      <trkpt lat="42.98827" lon="-0.42208">
        <ele>507.23</ele>
        <time>2019-08-03T05:42:40Z</time>
      </trkpt>
      <trkpt lat="42.98771" lon="-0.42197">
        <ele>507.23</ele>
        <time>2019-08-03T05:42:56Z</time>
      </trkpt>
      <trkpt lat="42.98687" lon="-0.42171">
        <ele>508.67</ele>
        <time>2019-08-03T05:43:14Z</time>
      </trkpt>
      <trkpt lat="42.98616" lon="-0.42166">
        <ele>508.67</ele>
        <time>2019-08-03T05:43:29Z</time>
      </trkpt>
      <trkpt lat="42.98611" lon="-0.42166">
        <ele>509.16</ele>
        <time>2019-08-03T05:43:30Z</time>
      </trkpt>
      <trkpt lat="42.98602" lon="-0.42165">
        <ele>509.16</ele>
        <time>2019-08-03T05:43:32Z</time>
      </trkpt>
      <trkpt lat="42.98589" lon="-0.42163">
        <ele>509.16</ele>
        <time>2019-08-03T05:43:35Z</time>
      </trkpt>
      <trkpt lat="42.98584" lon="-0.42163">
        <ele>509.16</ele>
        <time>2019-08-03T05:43:36Z</time>
      </trkpt>
      <trkpt lat="42.9858" lon="-0.42163">
        <ele>509.16</ele>
        <time>2019-08-03T05:43:37Z</time>
      </trkpt>
      <trkpt lat="42.98576" lon="-0.42165">
        <ele>509.16</ele>
        <time>2019-08-03T05:43:38Z</time>
      </trkpt>
      <trkpt lat="42.98573" lon="-0.42167">
        <ele>509.16</ele>
        <time>2019-08-03T05:43:39Z</time>
      </trkpt>
      <trkpt lat="42.9857" lon="-0.42171">
        <ele>508.67</ele>
        <time>2019-08-03T05:43:40Z</time>
      </trkpt>
      <trkpt lat="42.98568" lon="-0.42175">
        <ele>508.67</ele>
        <time>2019-08-03T05:43:41Z</time>
      </trkpt>
      <trkpt lat="42.98568" lon="-0.42181">
        <ele>508.67</ele>
        <time>2019-08-03T05:43:42Z</time>
      </trkpt>
      <trkpt lat="42.98569" lon="-0.42186">
        <ele>508.67</ele>
        <time>2019-08-03T05:43:43Z</time>
      </trkpt>
      <trkpt lat="42.9857" lon="-0.42191">
        <ele>508.19</ele>
        <time>2019-08-03T05:43:44Z</time>
      </trkpt>
      <trkpt lat="42.98582" lon="-0.42276">
        <ele>509.16</ele>
        <time>2019-08-03T05:43:58Z</time>
      </trkpt>
      <trkpt lat="42.98593" lon="-0.42348">
        <ele>510.12</ele>
        <time>2019-08-03T05:44:10Z</time>
      </trkpt>
      <trkpt lat="42.98584" lon="-0.42393">
        <ele>512.52</ele>
        <time>2019-08-03T05:44:20Z</time>
      </trkpt>
      <trkpt lat="42.98573" lon="-0.42409">
        <ele>513</ele>
        <time>2019-08-03T05:44:24Z</time>
      </trkpt>
      <trkpt lat="42.9857" lon="-0.42414">
        <ele>513.48</ele>
        <time>2019-08-03T05:44:25Z</time>
      </trkpt>
      <trkpt lat="42.98553" lon="-0.42459">
        <ele>514.92</ele>
        <time>2019-08-03T05:44:35Z</time>
      </trkpt>
      <trkpt lat="42.9856" lon="-0.42535">
        <ele>515.88</ele>
        <time>2019-08-03T05:44:49Z</time>
      </trkpt>
      <trkpt lat="42.9856" lon="-0.42541">
        <ele>515.88</ele>
        <time>2019-08-03T05:44:50Z</time>
      </trkpt>
      <trkpt lat="42.98561" lon="-0.42587">
        <ele>517.33</ele>
        <time>2019-08-03T05:44:58Z</time>
      </trkpt>
      <trkpt lat="42.98576" lon="-0.42674">
        <ele>521.17</ele>
        <time>2019-08-03T05:45:14Z</time>
      </trkpt>
      <trkpt lat="42.98581" lon="-0.42711">
        <ele>524.54</ele>
        <time>2019-08-03T05:45:24Z</time>
      </trkpt>
      <trkpt lat="42.98579" lon="-0.42714">
        <ele>524.54</ele>
        <time>2019-08-03T05:45:25Z</time>
      </trkpt>
      <trkpt lat="42.98577" lon="-0.42716">
        <ele>524.54</ele>
        <time>2019-08-03T05:45:26Z</time>
      </trkpt>
      <trkpt lat="42.98524" lon="-0.42738">
        <ele>525.98</ele>
        <time>2019-08-03T05:45:39Z</time>
      </trkpt>
      <trkpt lat="42.98422" lon="-0.42784">
        <ele>523.58</ele>
        <time>2019-08-03T05:45:59Z</time>
      </trkpt>
      <trkpt lat="42.98389" lon="-0.42797">
        <ele>523.58</ele>
        <time>2019-08-03T05:46:05Z</time>
      </trkpt>
      <trkpt lat="42.98383" lon="-0.42799">
        <ele>523.58</ele>
        <time>2019-08-03T05:46:06Z</time>
      </trkpt>
      <trkpt lat="42.98371" lon="-0.42799">
        <ele>523.58</ele>
        <time>2019-08-03T05:46:08Z</time>
      </trkpt>
      <trkpt lat="42.98359" lon="-0.42797">
        <ele>523.58</ele>
        <time>2019-08-03T05:46:10Z</time>
      </trkpt>
      <trkpt lat="42.98354" lon="-0.42795">
        <ele>523.58</ele>
        <time>2019-08-03T05:46:11Z</time>
      </trkpt>
      <trkpt lat="42.98348" lon="-0.42791">
        <ele>523.58</ele>
        <time>2019-08-03T05:46:12Z</time>
      </trkpt>
      <trkpt lat="42.98343" lon="-0.42787">
        <ele>523.09</ele>
        <time>2019-08-03T05:46:13Z</time>
      </trkpt>
      <trkpt lat="42.98336" lon="-0.42779">
        <ele>523.09</ele>
        <time>2019-08-03T05:46:14Z</time>
      </trkpt>
      <trkpt lat="42.98332" lon="-0.42775">
        <ele>522.61</ele>
        <time>2019-08-03T05:46:15Z</time>
      </trkpt>
      <trkpt lat="42.98266" lon="-0.42691">
        <ele>518.29</ele>
        <time>2019-08-03T05:46:26Z</time>
      </trkpt>
      <trkpt lat="42.98261" lon="-0.42681">
        <ele>517.81</ele>
        <time>2019-08-03T05:46:27Z</time>
      </trkpt>
      <trkpt lat="42.98256" lon="-0.42671">
        <ele>517.33</ele>
        <time>2019-08-03T05:46:28Z</time>
      </trkpt>
      <trkpt lat="42.98207" lon="-0.42554">
        <ele>514.92</ele>
        <time>2019-08-03T05:46:39Z</time>
      </trkpt>
      <trkpt lat="42.98204" lon="-0.42543">
        <ele>514.92</ele>
        <time>2019-08-03T05:46:40Z</time>
      </trkpt>
      <trkpt lat="42.98202" lon="-0.42531">
        <ele>514.92</ele>
        <time>2019-08-03T05:46:41Z</time>
      </trkpt>
      <trkpt lat="42.9818" lon="-0.42344">
        <ele>512.04</ele>
        <time>2019-08-03T05:46:57Z</time>
      </trkpt>
      <trkpt lat="42.98171" lon="-0.42279">
        <ele>511.08</ele>
        <time>2019-08-03T05:47:03Z</time>
      </trkpt>
      <trkpt lat="42.98138" lon="-0.42136">
        <ele>510.12</ele>
        <time>2019-08-03T05:47:18Z</time>
      </trkpt>
      <trkpt lat="42.98127" lon="-0.42104">
        <ele>510.12</ele>
        <time>2019-08-03T05:47:22Z</time>
      </trkpt>
      <trkpt lat="42.98124" lon="-0.42099">
        <ele>510.12</ele>
        <time>2019-08-03T05:47:23Z</time>
      </trkpt>
      <trkpt lat="42.9812" lon="-0.42094">
        <ele>510.12</ele>
        <time>2019-08-03T05:47:24Z</time>
      </trkpt>
      <trkpt lat="42.98115" lon="-0.4209">
        <ele>510.12</ele>
        <time>2019-08-03T05:47:25Z</time>
      </trkpt>
      <trkpt lat="42.9811" lon="-0.42087">
        <ele>510.6</ele>
        <time>2019-08-03T05:47:26Z</time>
      </trkpt>
      <trkpt lat="42.98105" lon="-0.42086">
        <ele>510.6</ele>
        <time>2019-08-03T05:47:27Z</time>
      </trkpt>
      <trkpt lat="42.981" lon="-0.42084">
        <ele>510.6</ele>
        <time>2019-08-03T05:47:28Z</time>
      </trkpt>
      <trkpt lat="42.98015" lon="-0.42072">
        <ele>512.52</ele>
        <time>2019-08-03T05:47:45Z</time>
      </trkpt>
      <trkpt lat="42.97944" lon="-0.42058">
        <ele>513</ele>
        <time>2019-08-03T05:47:59Z</time>
      </trkpt>
      <trkpt lat="42.97939" lon="-0.42055">
        <ele>513</ele>
        <time>2019-08-03T05:48:00Z</time>
      </trkpt>
      <trkpt lat="42.97935" lon="-0.42052">
        <ele>513</ele>
        <time>2019-08-03T05:48:01Z</time>
      </trkpt>
      <trkpt lat="42.97931" lon="-0.42048">
        <ele>513.48</ele>
        <time>2019-08-03T05:48:02Z</time>
      </trkpt>
      <trkpt lat="42.97927" lon="-0.42043">
        <ele>513.48</ele>
        <time>2019-08-03T05:48:03Z</time>
      </trkpt>
      <trkpt lat="42.97924" lon="-0.42039">
        <ele>513.48</ele>
        <time>2019-08-03T05:48:04Z</time>
      </trkpt>
      <trkpt lat="42.9792" lon="-0.42034">
        <ele>513.48</ele>
        <time>2019-08-03T05:48:05Z</time>
      </trkpt>
      <trkpt lat="42.97914" lon="-0.42023">
        <ele>513.48</ele>
        <time>2019-08-03T05:48:07Z</time>
      </trkpt>
      <trkpt lat="42.97912" lon="-0.42017">
        <ele>513.96</ele>
        <time>2019-08-03T05:48:08Z</time>
      </trkpt>
      <trkpt lat="42.97903" lon="-0.41993">
        <ele>514.44</ele>
        <time>2019-08-03T05:48:12Z</time>
      </trkpt>
      <trkpt lat="42.9789" lon="-0.41905">
        <ele>516.85</ele>
        <time>2019-08-03T05:48:26Z</time>
      </trkpt>
      <trkpt lat="42.97888" lon="-0.41899">
        <ele>517.33</ele>
        <time>2019-08-03T05:48:27Z</time>
      </trkpt>
      <trkpt lat="42.97886" lon="-0.41894">
        <ele>517.33</ele>
        <time>2019-08-03T05:48:28Z</time>
      </trkpt>
      <trkpt lat="42.97883" lon="-0.4189">
        <ele>517.81</ele>
        <time>2019-08-03T05:48:29Z</time>
      </trkpt>
      <trkpt lat="42.9788" lon="-0.41886">
        <ele>518.29</ele>
        <time>2019-08-03T05:48:30Z</time>
      </trkpt>
      <trkpt lat="42.97876" lon="-0.41883">
        <ele>518.77</ele>
        <time>2019-08-03T05:48:31Z</time>
      </trkpt>
      <trkpt lat="42.97872" lon="-0.41881">
        <ele>519.25</ele>
        <time>2019-08-03T05:48:32Z</time>
      </trkpt>
      <trkpt lat="42.97868" lon="-0.41879">
        <ele>519.25</ele>
        <time>2019-08-03T05:48:33Z</time>
      </trkpt>
      <trkpt lat="42.97864" lon="-0.41879">
        <ele>519.73</ele>
        <time>2019-08-03T05:48:34Z</time>
      </trkpt>
      <trkpt lat="42.97859" lon="-0.4188">
        <ele>520.21</ele>
        <time>2019-08-03T05:48:35Z</time>
      </trkpt>
      <trkpt lat="42.97855" lon="-0.41882">
        <ele>520.69</ele>
        <time>2019-08-03T05:48:36Z</time>
      </trkpt>
      <trkpt lat="42.97852" lon="-0.41884">
        <ele>521.17</ele>
        <time>2019-08-03T05:48:37Z</time>
      </trkpt>
      <trkpt lat="42.97848" lon="-0.41887">
        <ele>521.65</ele>
        <time>2019-08-03T05:48:38Z</time>
      </trkpt>
      <trkpt lat="42.97846" lon="-0.41891">
        <ele>522.13</ele>
        <time>2019-08-03T05:48:39Z</time>
      </trkpt>
      <trkpt lat="42.97843" lon="-0.41895">
        <ele>522.61</ele>
        <time>2019-08-03T05:48:40Z</time>
      </trkpt>
      <trkpt lat="42.97834" lon="-0.41925">
        <ele>523.09</ele>
        <time>2019-08-03T05:48:46Z</time>
      </trkpt>
      <trkpt lat="42.9783" lon="-0.41947">
        <ele>523.09</ele>
        <time>2019-08-03T05:48:50Z</time>
      </trkpt>
      <trkpt lat="42.97829" lon="-0.41952">
        <ele>523.09</ele>
        <time>2019-08-03T05:48:51Z</time>
      </trkpt>
      <trkpt lat="42.97812" lon="-0.42023">
        <ele>521.65</ele>
        <time>2019-08-03T05:49:05Z</time>
      </trkpt>
      <trkpt lat="42.97794" lon="-0.42071">
        <ele>522.13</ele>
        <time>2019-08-03T05:49:18Z</time>
      </trkpt>
      <trkpt lat="42.9777" lon="-0.42052">
        <ele>525.5</ele>
        <time>2019-08-03T05:49:28Z</time>
      </trkpt>
      <trkpt lat="42.97783" lon="-0.42003">
        <ele>529.34</ele>
        <time>2019-08-03T05:49:39Z</time>
      </trkpt>
      <trkpt lat="42.97796" lon="-0.41946">
        <ele>532.23</ele>
        <time>2019-08-03T05:49:52Z</time>
      </trkpt>
      <trkpt lat="42.97801" lon="-0.4189">
        <ele>541.84</ele>
        <time>2019-08-03T05:50:06Z</time>
      </trkpt>
      <trkpt lat="42.97822" lon="-0.41838">
        <ele>544.24</ele>
        <time>2019-08-03T05:50:20Z</time>
      </trkpt>
      <trkpt lat="42.97844" lon="-0.41783">
        <ele>543.28</ele>
        <time>2019-08-03T05:50:33Z</time>
      </trkpt>
      <trkpt lat="42.97858" lon="-0.41732">
        <ele>545.2</ele>
        <time>2019-08-03T05:50:46Z</time>
      </trkpt>
      <trkpt lat="42.9788" lon="-0.41688">
        <ele>548.57</ele>
        <time>2019-08-03T05:50:59Z</time>
      </trkpt>
      <trkpt lat="42.97914" lon="-0.41649">
        <ele>546.17</ele>
        <time>2019-08-03T05:51:13Z</time>
      </trkpt>
      <trkpt lat="42.9795" lon="-0.4161">
        <ele>556.26</ele>
        <time>2019-08-03T05:51:28Z</time>
      </trkpt>
      <trkpt lat="42.97975" lon="-0.4156">
        <ele>560.59</ele>
        <time>2019-08-03T05:51:42Z</time>
      </trkpt>
      <trkpt lat="42.98008" lon="-0.41501">
        <ele>559.62</ele>
        <time>2019-08-03T05:51:59Z</time>
      </trkpt>
      <trkpt lat="42.98001" lon="-0.41464">
        <ele>560.59</ele>
        <time>2019-08-03T05:52:09Z</time>
      </trkpt>
      <trkpt lat="42.97972" lon="-0.41475">
        <ele>560.59</ele>
        <time>2019-08-03T05:52:19Z</time>
      </trkpt>
      <trkpt lat="42.97951" lon="-0.41539">
        <ele>560.11</ele>
        <time>2019-08-03T05:52:35Z</time>
      </trkpt>
      <trkpt lat="42.97922" lon="-0.41589">
        <ele>562.51</ele>
        <time>2019-08-03T05:52:50Z</time>
      </trkpt>
      <trkpt lat="42.97893" lon="-0.41612">
        <ele>564.91</ele>
        <time>2019-08-03T05:53:02Z</time>
      </trkpt>
      <trkpt lat="42.97862" lon="-0.41634">
        <ele>564.91</ele>
        <time>2019-08-03T05:53:13Z</time>
      </trkpt>
      <trkpt lat="42.97824" lon="-0.41673">
        <ele>565.87</ele>
        <time>2019-08-03T05:53:28Z</time>
      </trkpt>
      <trkpt lat="42.97796" lon="-0.4172">
        <ele>565.87</ele>
        <time>2019-08-03T05:53:43Z</time>
      </trkpt>
      <trkpt lat="42.97755" lon="-0.41776">
        <ele>569.72</ele>
        <time>2019-08-03T05:54:01Z</time>
      </trkpt>
      <trkpt lat="42.97726" lon="-0.41811">
        <ele>571.64</ele>
        <time>2019-08-03T05:54:15Z</time>
      </trkpt>
      <trkpt lat="42.97703" lon="-0.41847">
        <ele>576.45</ele>
        <time>2019-08-03T05:54:26Z</time>
      </trkpt>
      <trkpt lat="42.97676" lon="-0.4189">
        <ele>580.29</ele>
        <time>2019-08-03T05:54:39Z</time>
      </trkpt>
      <trkpt lat="42.97647" lon="-0.41952">
        <ele>579.33</ele>
        <time>2019-08-03T05:54:56Z</time>
      </trkpt>
      <trkpt lat="42.9762" lon="-0.42026">
        <ele>580.77</ele>
        <time>2019-08-03T05:55:15Z</time>
      </trkpt>
      <trkpt lat="42.97594" lon="-0.42083">
        <ele>584.62</ele>
        <time>2019-08-03T05:55:31Z</time>
      </trkpt>
      <trkpt lat="42.97567" lon="-0.42078">
        <ele>587.98</ele>
        <time>2019-08-03T05:55:41Z</time>
      </trkpt>
      <trkpt lat="42.97564" lon="-0.4204">
        <ele>591.35</ele>
        <time>2019-08-03T05:55:50Z</time>
      </trkpt>
      <trkpt lat="42.97598" lon="-0.41994">
        <ele>592.79</ele>
        <time>2019-08-03T05:56:04Z</time>
      </trkpt>
      <trkpt lat="42.9762" lon="-0.41942">
        <ele>595.67</ele>
        <time>2019-08-03T05:56:17Z</time>
      </trkpt>
      <trkpt lat="42.97633" lon="-0.41889">
        <ele>599.04</ele>
        <time>2019-08-03T05:56:30Z</time>
      </trkpt>
      <trkpt lat="42.97651" lon="-0.41842">
        <ele>604.81</ele>
        <time>2019-08-03T05:56:43Z</time>
      </trkpt>
      <trkpt lat="42.97682" lon="-0.41788">
        <ele>610.09</ele>
        <time>2019-08-03T05:56:58Z</time>
      </trkpt>
      <trkpt lat="42.97722" lon="-0.41721">
        <ele>612.5</ele>
        <time>2019-08-03T05:57:18Z</time>
      </trkpt>
      <trkpt lat="42.97744" lon="-0.4166">
        <ele>614.42</ele>
        <time>2019-08-03T05:57:34Z</time>
      </trkpt>
      <trkpt lat="42.97748" lon="-0.41586">
        <ele>622.59</ele>
        <time>2019-08-03T05:57:52Z</time>
      </trkpt>
      <trkpt lat="42.97742" lon="-0.41529">
        <ele>628.84</ele>
        <time>2019-08-03T05:58:06Z</time>
      </trkpt>
      <trkpt lat="42.97743" lon="-0.41526">
        <ele>629.32</ele>
        <time>2019-08-03T05:58:07Z</time>
      </trkpt>
      <trkpt lat="42.97743" lon="-0.41521">
        <ele>629.32</ele>
        <time>2019-08-03T05:58:08Z</time>
      </trkpt>
      <trkpt lat="42.97743" lon="-0.41517">
        <ele>628.84</ele>
        <time>2019-08-03T05:58:09Z</time>
      </trkpt>
      <trkpt lat="42.97742" lon="-0.41512">
        <ele>628.36</ele>
        <time>2019-08-03T05:58:10Z</time>
      </trkpt>
      <trkpt lat="42.97747" lon="-0.41459">
        <ele>625.96</ele>
        <time>2019-08-03T05:58:22Z</time>
      </trkpt>
      <trkpt lat="42.97767" lon="-0.41396">
        <ele>625.96</ele>
        <time>2019-08-03T05:58:37Z</time>
      </trkpt>
      <trkpt lat="42.97775" lon="-0.41338">
        <ele>626.92</ele>
        <time>2019-08-03T05:58:51Z</time>
      </trkpt>
      <trkpt lat="42.97782" lon="-0.41286">
        <ele>629.32</ele>
        <time>2019-08-03T05:59:04Z</time>
      </trkpt>
      <trkpt lat="42.97782" lon="-0.41282">
        <ele>629.32</ele>
        <time>2019-08-03T05:59:05Z</time>
      </trkpt>
      <trkpt lat="42.97783" lon="-0.41278">
        <ele>629.32</ele>
        <time>2019-08-03T05:59:06Z</time>
      </trkpt>
      <trkpt lat="42.97784" lon="-0.41274">
        <ele>629.32</ele>
        <time>2019-08-03T05:59:07Z</time>
      </trkpt>
      <trkpt lat="42.97785" lon="-0.4127">
        <ele>629.32</ele>
        <time>2019-08-03T05:59:08Z</time>
      </trkpt>
      <trkpt lat="42.97808" lon="-0.41212">
        <ele>630.76</ele>
        <time>2019-08-03T05:59:23Z</time>
      </trkpt>
      <trkpt lat="42.97817" lon="-0.41151">
        <ele>632.68</ele>
        <time>2019-08-03T05:59:38Z</time>
      </trkpt>
      <trkpt lat="42.9783" lon="-0.41087">
        <ele>633.65</ele>
        <time>2019-08-03T05:59:54Z</time>
      </trkpt>
      <trkpt lat="42.97833" lon="-0.41026">
        <ele>637.49</ele>
        <time>2019-08-03T06:00:09Z</time>
      </trkpt>
      <trkpt lat="42.97819" lon="-0.40989">
        <ele>639.89</ele>
        <time>2019-08-03T06:00:20Z</time>
      </trkpt>
      <trkpt lat="42.97801" lon="-0.40949">
        <ele>642.3</ele>
        <time>2019-08-03T06:00:31Z</time>
      </trkpt>
      <trkpt lat="42.97794" lon="-0.40897">
        <ele>644.7</ele>
        <time>2019-08-03T06:00:44Z</time>
      </trkpt>
      <trkpt lat="42.97793" lon="-0.40838">
        <ele>646.62</ele>
        <time>2019-08-03T06:00:58Z</time>
      </trkpt>
      <trkpt lat="42.97776" lon="-0.4077">
        <ele>648.07</ele>
        <time>2019-08-03T06:01:14Z</time>
      </trkpt>
      <trkpt lat="42.97739" lon="-0.4073">
        <ele>649.99</ele>
        <time>2019-08-03T06:01:29Z</time>
      </trkpt>
      <trkpt lat="42.97707" lon="-0.4071">
        <ele>651.91</ele>
        <time>2019-08-03T06:01:41Z</time>
      </trkpt>
      <trkpt lat="42.97681" lon="-0.40657">
        <ele>655.28</ele>
        <time>2019-08-03T06:01:57Z</time>
      </trkpt>
      <trkpt lat="42.97672" lon="-0.40603">
        <ele>658.16</ele>
        <time>2019-08-03T06:02:11Z</time>
      </trkpt>
      <trkpt lat="42.97653" lon="-0.40565">
        <ele>660.56</ele>
        <time>2019-08-03T06:02:22Z</time>
      </trkpt>
      <trkpt lat="42.97612" lon="-0.40531">
        <ele>662.97</ele>
        <time>2019-08-03T06:02:38Z</time>
      </trkpt>
      <trkpt lat="42.97585" lon="-0.40524">
        <ele>662.49</ele>
        <time>2019-08-03T06:02:48Z</time>
      </trkpt>
      <trkpt lat="42.97553" lon="-0.40495">
        <ele>661.52</ele>
        <time>2019-08-03T06:03:01Z</time>
      </trkpt>
      <trkpt lat="42.97521" lon="-0.40455">
        <ele>665.85</ele>
        <time>2019-08-03T06:03:15Z</time>
      </trkpt>
      <trkpt lat="42.97501" lon="-0.40424">
        <ele>667.77</ele>
        <time>2019-08-03T06:03:25Z</time>
      </trkpt>
      <trkpt lat="42.97499" lon="-0.40421">
        <ele>667.77</ele>
        <time>2019-08-03T06:03:26Z</time>
      </trkpt>
      <trkpt lat="42.97486" lon="-0.40364">
        <ele>668.73</ele>
        <time>2019-08-03T06:03:40Z</time>
      </trkpt>
      <trkpt lat="42.97471" lon="-0.40314">
        <ele>673.54</ele>
        <time>2019-08-03T06:03:53Z</time>
      </trkpt>
      <trkpt lat="42.97467" lon="-0.40226">
        <ele>678.35</ele>
        <time>2019-08-03T06:04:14Z</time>
      </trkpt>
      <trkpt lat="42.97461" lon="-0.40168">
        <ele>683.15</ele>
        <time>2019-08-03T06:04:29Z</time>
      </trkpt>
      <trkpt lat="42.97455" lon="-0.40126">
        <ele>684.6</ele>
        <time>2019-08-03T06:04:40Z</time>
      </trkpt>
      <trkpt lat="42.97447" lon="-0.40088">
        <ele>685.08</ele>
        <time>2019-08-03T06:04:50Z</time>
      </trkpt>
      <trkpt lat="42.97442" lon="-0.4004">
        <ele>683.15</ele>
        <time>2019-08-03T06:05:02Z</time>
      </trkpt>
      <trkpt lat="42.97448" lon="-0.39973">
        <ele>687.48</ele>
        <time>2019-08-03T06:05:18Z</time>
      </trkpt>
      <trkpt lat="42.97443" lon="-0.39914">
        <ele>693.25</ele>
        <time>2019-08-03T06:05:33Z</time>
      </trkpt>
      <trkpt lat="42.97433" lon="-0.39857">
        <ele>695.65</ele>
        <time>2019-08-03T06:05:48Z</time>
      </trkpt>
      <trkpt lat="42.97422" lon="-0.398">
        <ele>700.46</ele>
        <time>2019-08-03T06:06:03Z</time>
      </trkpt>
      <trkpt lat="42.974" lon="-0.39772">
        <ele>703.34</ele>
        <time>2019-08-03T06:06:13Z</time>
      </trkpt>
      <trkpt lat="42.97383" lon="-0.39729">
        <ele>705.75</ele>
        <time>2019-08-03T06:06:25Z</time>
      </trkpt>
      <trkpt lat="42.97397" lon="-0.39677">
        <ele>707.67</ele>
        <time>2019-08-03T06:06:38Z</time>
      </trkpt>
      <trkpt lat="42.97402" lon="-0.39628">
        <ele>707.67</ele>
        <time>2019-08-03T06:06:50Z</time>
      </trkpt>
      <trkpt lat="42.97415" lon="-0.39577">
        <ele>709.59</ele>
        <time>2019-08-03T06:07:03Z</time>
      </trkpt>
      <trkpt lat="42.97417" lon="-0.39569">
        <ele>709.11</ele>
        <time>2019-08-03T06:07:05Z</time>
      </trkpt>
      <trkpt lat="42.97408" lon="-0.3951">
        <ele>711.99</ele>
        <time>2019-08-03T06:07:20Z</time>
      </trkpt>
      <trkpt lat="42.97399" lon="-0.39448">
        <ele>714.88</ele>
        <time>2019-08-03T06:07:35Z</time>
      </trkpt>
      <trkpt lat="42.97383" lon="-0.39389">
        <ele>713.92</ele>
        <time>2019-08-03T06:07:51Z</time>
      </trkpt>
      <trkpt lat="42.97352" lon="-0.39369">
        <ele>719.68</ele>
        <time>2019-08-03T06:08:03Z</time>
      </trkpt>
      <trkpt lat="42.97312" lon="-0.39344">
        <ele>721.61</ele>
        <time>2019-08-03T06:08:18Z</time>
      </trkpt>
      <trkpt lat="42.97279" lon="-0.39312">
        <ele>724.01</ele>
        <time>2019-08-03T06:08:32Z</time>
      </trkpt>
      <trkpt lat="42.97255" lon="-0.39286">
        <ele>727.37</ele>
        <time>2019-08-03T06:08:45Z</time>
      </trkpt>
      <trkpt lat="42.97231" lon="-0.39252">
        <ele>731.22</ele>
        <time>2019-08-03T06:08:57Z</time>
      </trkpt>
      <trkpt lat="42.97204" lon="-0.39211">
        <ele>735.55</ele>
        <time>2019-08-03T06:09:12Z</time>
      </trkpt>
      <trkpt lat="42.97196" lon="-0.3918">
        <ele>740.35</ele>
        <time>2019-08-03T06:09:22Z</time>
      </trkpt>
      <trkpt lat="42.97197" lon="-0.39175">
        <ele>740.83</ele>
        <time>2019-08-03T06:09:23Z</time>
      </trkpt>
      <trkpt lat="42.97197" lon="-0.39171">
        <ele>741.31</ele>
        <time>2019-08-03T06:09:24Z</time>
      </trkpt>
      <trkpt lat="42.97198" lon="-0.39167">
        <ele>741.79</ele>
        <time>2019-08-03T06:09:25Z</time>
      </trkpt>
      <trkpt lat="42.97199" lon="-0.39163">
        <ele>742.28</ele>
        <time>2019-08-03T06:09:26Z</time>
      </trkpt>
      <trkpt lat="42.97215" lon="-0.39131">
        <ele>746.12</ele>
        <time>2019-08-03T06:09:36Z</time>
      </trkpt>
      <trkpt lat="42.97219" lon="-0.39131">
        <ele>746.12</ele>
        <time>2019-08-03T06:09:37Z</time>
      </trkpt>
      <trkpt lat="42.97223" lon="-0.39133">
        <ele>746.6</ele>
        <time>2019-08-03T06:09:38Z</time>
      </trkpt>
      <trkpt lat="42.97226" lon="-0.39136">
        <ele>746.6</ele>
        <time>2019-08-03T06:09:39Z</time>
      </trkpt>
      <trkpt lat="42.9723" lon="-0.39141">
        <ele>747.08</ele>
        <time>2019-08-03T06:09:40Z</time>
      </trkpt>
      <trkpt lat="42.97234" lon="-0.39147">
        <ele>747.56</ele>
        <time>2019-08-03T06:09:41Z</time>
      </trkpt>
      <trkpt lat="42.9727" lon="-0.39199">
        <ele>745.64</ele>
        <time>2019-08-03T06:09:50Z</time>
      </trkpt>
      <trkpt lat="42.9729" lon="-0.39188">
        <ele>744.68</ele>
        <time>2019-08-03T06:09:58Z</time>
      </trkpt>
      <trkpt lat="42.97312" lon="-0.39167">
        <ele>748.52</ele>
        <time>2019-08-03T06:10:08Z</time>
      </trkpt>
      <trkpt lat="42.97322" lon="-0.39121">
        <ele>742.28</ele>
        <time>2019-08-03T06:10:21Z</time>
      </trkpt>
      <trkpt lat="42.97298" lon="-0.39062">
        <ele>744.2</ele>
        <time>2019-08-03T06:10:40Z</time>
      </trkpt>
      <trkpt lat="42.97281" lon="-0.3901">
        <ele>745.16</ele>
        <time>2019-08-03T06:10:56Z</time>
      </trkpt>
      <trkpt lat="42.97267" lon="-0.38962">
        <ele>747.56</ele>
        <time>2019-08-03T06:11:11Z</time>
      </trkpt>
      <trkpt lat="42.97255" lon="-0.38921">
        <ele>750.93</ele>
        <time>2019-08-03T06:11:24Z</time>
      </trkpt>
      <trkpt lat="42.97236" lon="-0.38882">
        <ele>753.81</ele>
        <time>2019-08-03T06:11:38Z</time>
      </trkpt>
      <trkpt lat="42.97222" lon="-0.38842">
        <ele>758.62</ele>
        <time>2019-08-03T06:11:51Z</time>
      </trkpt>
      <trkpt lat="42.97216" lon="-0.38802">
        <ele>763.42</ele>
        <time>2019-08-03T06:12:03Z</time>
      </trkpt>
      <trkpt lat="42.97209" lon="-0.3876">
        <ele>767.75</ele>
        <time>2019-08-03T06:12:16Z</time>
      </trkpt>
      <trkpt lat="42.97195" lon="-0.38711">
        <ele>771.11</ele>
        <time>2019-08-03T06:12:31Z</time>
      </trkpt>
      <trkpt lat="42.9718" lon="-0.38661">
        <ele>773.52</ele>
        <time>2019-08-03T06:12:46Z</time>
      </trkpt>
      <trkpt lat="42.97172" lon="-0.38626">
        <ele>774.48</ele>
        <time>2019-08-03T06:12:58Z</time>
      </trkpt>
      <trkpt lat="42.97179" lon="-0.38583">
        <ele>775.92</ele>
        <time>2019-08-03T06:13:11Z</time>
      </trkpt>
      <trkpt lat="42.97188" lon="-0.3853">
        <ele>776.88</ele>
        <time>2019-08-03T06:13:27Z</time>
      </trkpt>
      <trkpt lat="42.97183" lon="-0.38478">
        <ele>779.77</ele>
        <time>2019-08-03T06:13:43Z</time>
      </trkpt>
      <trkpt lat="42.97175" lon="-0.38452">
        <ele>780.73</ele>
        <time>2019-08-03T06:13:52Z</time>
      </trkpt>
      <trkpt lat="42.97173" lon="-0.3845">
        <ele>780.73</ele>
        <time>2019-08-03T06:13:53Z</time>
      </trkpt>
      <trkpt lat="42.97156" lon="-0.38406">
        <ele>783.13</ele>
        <time>2019-08-03T06:14:09Z</time>
      </trkpt>
      <trkpt lat="42.97143" lon="-0.38365">
        <ele>788.42</ele>
        <time>2019-08-03T06:14:23Z</time>
      </trkpt>
      <trkpt lat="42.97133" lon="-0.38332">
        <ele>789.86</ele>
        <time>2019-08-03T06:14:34Z</time>
      </trkpt>
      <trkpt lat="42.97116" lon="-0.38291">
        <ele>791.78</ele>
        <time>2019-08-03T06:14:47Z</time>
      </trkpt>
      <trkpt lat="42.97087" lon="-0.38267">
        <ele>791.3</ele>
        <time>2019-08-03T06:15:00Z</time>
      </trkpt>
      <trkpt lat="42.97066" lon="-0.38256">
        <ele>792.74</ele>
        <time>2019-08-03T06:15:10Z</time>
      </trkpt>
      <trkpt lat="42.97045" lon="-0.38238">
        <ele>794.19</ele>
        <time>2019-08-03T06:15:21Z</time>
      </trkpt>
      <trkpt lat="42.9703" lon="-0.38193">
        <ele>798.99</ele>
        <time>2019-08-03T06:15:33Z</time>
      </trkpt>
      <trkpt lat="42.97019" lon="-0.3815">
        <ele>803.32</ele>
        <time>2019-08-03T06:15:46Z</time>
      </trkpt>
      <trkpt lat="42.97008" lon="-0.38106">
        <ele>806.68</ele>
        <time>2019-08-03T06:16:00Z</time>
      </trkpt>
      <trkpt lat="42.96988" lon="-0.38072">
        <ele>808.61</ele>
        <time>2019-08-03T06:16:13Z</time>
      </trkpt>
      <trkpt lat="42.96979" lon="-0.38065">
        <ele>810.05</ele>
        <time>2019-08-03T06:16:17Z</time>
      </trkpt>
      <trkpt lat="42.96976" lon="-0.38067">
        <ele>810.53</ele>
        <time>2019-08-03T06:16:18Z</time>
      </trkpt>
      <trkpt lat="42.96975" lon="-0.38069">
        <ele>811.01</ele>
        <time>2019-08-03T06:16:19Z</time>
      </trkpt>
      <trkpt lat="42.96973" lon="-0.38072">
        <ele>811.49</ele>
        <time>2019-08-03T06:16:20Z</time>
      </trkpt>
      <trkpt lat="42.96973" lon="-0.38075">
        <ele>811.49</ele>
        <time>2019-08-03T06:16:21Z</time>
      </trkpt>
      <trkpt lat="42.96973" lon="-0.38078">
        <ele>811.97</ele>
        <time>2019-08-03T06:16:22Z</time>
      </trkpt>
      <trkpt lat="42.96973" lon="-0.38082">
        <ele>812.45</ele>
        <time>2019-08-03T06:16:23Z</time>
      </trkpt>
      <trkpt lat="42.96974" lon="-0.38086">
        <ele>812.45</ele>
        <time>2019-08-03T06:16:24Z</time>
      </trkpt>
      <trkpt lat="42.96975" lon="-0.38089">
        <ele>812.45</ele>
        <time>2019-08-03T06:16:25Z</time>
      </trkpt>
      <trkpt lat="42.96976" lon="-0.38093">
        <ele>812.93</ele>
        <time>2019-08-03T06:16:26Z</time>
      </trkpt>
      <trkpt lat="42.96977" lon="-0.38096">
        <ele>812.93</ele>
        <time>2019-08-03T06:16:27Z</time>
      </trkpt>
      <trkpt lat="42.96998" lon="-0.38151">
        <ele>810.53</ele>
        <time>2019-08-03T06:16:44Z</time>
      </trkpt>
      <trkpt lat="42.96999" lon="-0.38197">
        <ele>807.64</ele>
        <time>2019-08-03T06:16:57Z</time>
      </trkpt>
      <trkpt lat="42.97003" lon="-0.3825">
        <ele>810.05</ele>
        <time>2019-08-03T06:17:13Z</time>
      </trkpt>
      <trkpt lat="42.97" lon="-0.38254">
        <ele>811.97</ele>
        <time>2019-08-03T06:17:14Z</time>
      </trkpt>
      <trkpt lat="42.96997" lon="-0.38256">
        <ele>813.41</ele>
        <time>2019-08-03T06:17:15Z</time>
      </trkpt>
      <trkpt lat="42.96995" lon="-0.38256">
        <ele>814.37</ele>
        <time>2019-08-03T06:17:16Z</time>
      </trkpt>
      <trkpt lat="42.96992" lon="-0.38255">
        <ele>815.34</ele>
        <time>2019-08-03T06:17:17Z</time>
      </trkpt>
      <trkpt lat="42.9699" lon="-0.38253">
        <ele>815.82</ele>
        <time>2019-08-03T06:17:18Z</time>
      </trkpt>
      <trkpt lat="42.96988" lon="-0.3825">
        <ele>816.3</ele>
        <time>2019-08-03T06:17:19Z</time>
      </trkpt>
      <trkpt lat="42.96987" lon="-0.38247">
        <ele>816.78</ele>
        <time>2019-08-03T06:17:20Z</time>
      </trkpt>
      <trkpt lat="42.96986" lon="-0.38243">
        <ele>817.26</ele>
        <time>2019-08-03T06:17:21Z</time>
      </trkpt>
      <trkpt lat="42.96985" lon="-0.38239">
        <ele>817.74</ele>
        <time>2019-08-03T06:17:22Z</time>
      </trkpt>
      <trkpt lat="42.96985" lon="-0.38235">
        <ele>818.22</ele>
        <time>2019-08-03T06:17:23Z</time>
      </trkpt>
      <trkpt lat="42.96985" lon="-0.38232">
        <ele>818.22</ele>
        <time>2019-08-03T06:17:24Z</time>
      </trkpt>
      <trkpt lat="42.96985" lon="-0.38228">
        <ele>818.7</ele>
        <time>2019-08-03T06:17:25Z</time>
      </trkpt>
      <trkpt lat="42.96984" lon="-0.38223">
        <ele>819.18</ele>
        <time>2019-08-03T06:17:26Z</time>
      </trkpt>
      <trkpt lat="42.96984" lon="-0.3822">
        <ele>819.66</ele>
        <time>2019-08-03T06:17:27Z</time>
      </trkpt>
      <trkpt lat="42.96984" lon="-0.38215">
        <ele>820.14</ele>
        <time>2019-08-03T06:17:28Z</time>
      </trkpt>
      <trkpt lat="42.96983" lon="-0.3821">
        <ele>820.62</ele>
        <time>2019-08-03T06:17:29Z</time>
      </trkpt>
      <trkpt lat="42.96983" lon="-0.38206">
        <ele>821.1</ele>
        <time>2019-08-03T06:17:30Z</time>
      </trkpt>
      <trkpt lat="42.96983" lon="-0.38201">
        <ele>821.1</ele>
        <time>2019-08-03T06:17:31Z</time>
      </trkpt>
      <trkpt lat="42.96976" lon="-0.3816">
        <ele>820.14</ele>
        <time>2019-08-03T06:17:42Z</time>
      </trkpt>
      <trkpt lat="42.96954" lon="-0.38139">
        <ele>821.58</ele>
        <time>2019-08-03T06:17:53Z</time>
      </trkpt>
      <trkpt lat="42.9693" lon="-0.38099">
        <ele>823.51</ele>
        <time>2019-08-03T06:18:04Z</time>
      </trkpt>
      <trkpt lat="42.96891" lon="-0.38097">
        <ele>825.91</ele>
        <time>2019-08-03T06:18:16Z</time>
      </trkpt>
      <trkpt lat="42.96864" lon="-0.38067">
        <ele>829.76</ele>
        <time>2019-08-03T06:18:28Z</time>
      </trkpt>
      <trkpt lat="42.96871" lon="-0.38026">
        <ele>832.64</ele>
        <time>2019-08-03T06:18:38Z</time>
      </trkpt>
      <trkpt lat="42.96881" lon="-0.37975">
        <ele>833.12</ele>
        <time>2019-08-03T06:18:51Z</time>
      </trkpt>
      <trkpt lat="42.96855" lon="-0.37948">
        <ele>834.56</ele>
        <time>2019-08-03T06:19:02Z</time>
      </trkpt>
      <trkpt lat="42.96826" lon="-0.37941">
        <ele>835.04</ele>
        <time>2019-08-03T06:19:12Z</time>
      </trkpt>
      <trkpt lat="42.96825" lon="-0.37939">
        <ele>835.04</ele>
        <time>2019-08-03T06:19:13Z</time>
      </trkpt>
      <trkpt lat="42.96817" lon="-0.379">
        <ele>836</ele>
        <time>2019-08-03T06:19:21Z</time>
      </trkpt>
      <trkpt lat="42.96808" lon="-0.3784">
        <ele>837.93</ele>
        <time>2019-08-03T06:19:35Z</time>
      </trkpt>
      <trkpt lat="42.96793" lon="-0.37782">
        <ele>839.85</ele>
        <time>2019-08-03T06:19:49Z</time>
      </trkpt>
      <trkpt lat="42.96779" lon="-0.37728">
        <ele>842.25</ele>
        <time>2019-08-03T06:20:02Z</time>
      </trkpt>
      <trkpt lat="42.9675" lon="-0.37672">
        <ele>846.58</ele>
        <time>2019-08-03T06:20:18Z</time>
      </trkpt>
      <trkpt lat="42.96761" lon="-0.37631">
        <ele>846.58</ele>
        <time>2019-08-03T06:20:28Z</time>
      </trkpt>
      <trkpt lat="42.96795" lon="-0.37586">
        <ele>848.02</ele>
        <time>2019-08-03T06:20:43Z</time>
      </trkpt>
      <trkpt lat="42.9678" lon="-0.37561">
        <ele>851.87</ele>
        <time>2019-08-03T06:20:53Z</time>
      </trkpt>
      <trkpt lat="42.9676" lon="-0.37521">
        <ele>855.23</ele>
        <time>2019-08-03T06:21:08Z</time>
      </trkpt>
      <trkpt lat="42.96756" lon="-0.37468">
        <ele>861.96</ele>
        <time>2019-08-03T06:21:25Z</time>
      </trkpt>
      <trkpt lat="42.96748" lon="-0.37428">
        <ele>866.29</ele>
        <time>2019-08-03T06:21:39Z</time>
      </trkpt>
      <trkpt lat="42.96751" lon="-0.37379">
        <ele>870.61</ele>
        <time>2019-08-03T06:21:55Z</time>
      </trkpt>
      <trkpt lat="42.9675" lon="-0.37322">
        <ele>873.98</ele>
        <time>2019-08-03T06:22:12Z</time>
      </trkpt>
      <trkpt lat="42.96742" lon="-0.37259">
        <ele>874.94</ele>
        <time>2019-08-03T06:22:29Z</time>
      </trkpt>
      <trkpt lat="42.96737" lon="-0.37192">
        <ele>876.86</ele>
        <time>2019-08-03T06:22:47Z</time>
      </trkpt>
      <trkpt lat="42.96759" lon="-0.37161">
        <ele>879.74</ele>
        <time>2019-08-03T06:23:00Z</time>
      </trkpt>
      <trkpt lat="42.9679" lon="-0.37174">
        <ele>882.63</ele>
        <time>2019-08-03T06:23:14Z</time>
      </trkpt>
      <trkpt lat="42.96812" lon="-0.37219">
        <ele>884.55</ele>
        <time>2019-08-03T06:23:29Z</time>
      </trkpt>
      <trkpt lat="42.96842" lon="-0.37254">
        <ele>888.88</ele>
        <time>2019-08-03T06:23:45Z</time>
      </trkpt>
      <trkpt lat="42.96876" lon="-0.37257">
        <ele>893.2</ele>
        <time>2019-08-03T06:24:00Z</time>
      </trkpt>
      <trkpt lat="42.96903" lon="-0.37233">
        <ele>894.64</ele>
        <time>2019-08-03T06:24:14Z</time>
      </trkpt>
      <trkpt lat="42.96902" lon="-0.37191">
        <ele>896.57</ele>
        <time>2019-08-03T06:24:27Z</time>
      </trkpt>
      <trkpt lat="42.96887" lon="-0.37156">
        <ele>898.97</ele>
        <time>2019-08-03T06:24:40Z</time>
      </trkpt>
      <trkpt lat="42.96887" lon="-0.37112">
        <ele>901.37</ele>
        <time>2019-08-03T06:24:53Z</time>
      </trkpt>
      <trkpt lat="42.96888" lon="-0.37068">
        <ele>904.26</ele>
        <time>2019-08-03T06:25:07Z</time>
      </trkpt>
      <trkpt lat="42.96865" lon="-0.37017">
        <ele>906.18</ele>
        <time>2019-08-03T06:25:25Z</time>
      </trkpt>
      <trkpt lat="42.96845" lon="-0.36981">
        <ele>910.03</ele>
        <time>2019-08-03T06:25:42Z</time>
      </trkpt>
      <trkpt lat="42.96826" lon="-0.36941">
        <ele>913.87</ele>
        <time>2019-08-03T06:25:59Z</time>
      </trkpt>
      <trkpt lat="42.96813" lon="-0.36896">
        <ele>915.31</ele>
        <time>2019-08-03T06:26:15Z</time>
      </trkpt>
      <trkpt lat="42.96802" lon="-0.36864">
        <ele>919.64</ele>
        <time>2019-08-03T06:26:28Z</time>
      </trkpt>
      <trkpt lat="42.96789" lon="-0.36827">
        <ele>923</ele>
        <time>2019-08-03T06:26:43Z</time>
      </trkpt>
      <trkpt lat="42.96777" lon="-0.36788">
        <ele>927.33</ele>
        <time>2019-08-03T06:26:57Z</time>
      </trkpt>
      <trkpt lat="42.96769" lon="-0.36738">
        <ele>931.65</ele>
        <time>2019-08-03T06:27:14Z</time>
      </trkpt>
      <trkpt lat="42.96767" lon="-0.36697">
        <ele>934.54</ele>
        <time>2019-08-03T06:27:28Z</time>
      </trkpt>
      <trkpt lat="42.9676" lon="-0.36658">
        <ele>936.94</ele>
        <time>2019-08-03T06:27:42Z</time>
      </trkpt>
      <trkpt lat="42.96748" lon="-0.36617">
        <ele>940.79</ele>
        <time>2019-08-03T06:27:57Z</time>
      </trkpt>
      <trkpt lat="42.96744" lon="-0.36603">
        <ele>941.75</ele>
        <time>2019-08-03T06:28:03Z</time>
      </trkpt>
      <trkpt lat="42.96742" lon="-0.366">
        <ele>941.75</ele>
        <time>2019-08-03T06:28:04Z</time>
      </trkpt>
      <trkpt lat="42.96741" lon="-0.36598">
        <ele>942.23</ele>
        <time>2019-08-03T06:28:05Z</time>
      </trkpt>
      <trkpt lat="42.9674" lon="-0.36595">
        <ele>942.23</ele>
        <time>2019-08-03T06:28:06Z</time>
      </trkpt>
      <trkpt lat="42.96739" lon="-0.36593">
        <ele>942.23</ele>
        <time>2019-08-03T06:28:07Z</time>
      </trkpt>
      <trkpt lat="42.96723" lon="-0.36541">
        <ele>947.52</ele>
        <time>2019-08-03T06:28:26Z</time>
      </trkpt>
      <trkpt lat="42.96722" lon="-0.36494">
        <ele>951.84</ele>
        <time>2019-08-03T06:28:42Z</time>
      </trkpt>
      <trkpt lat="42.96711" lon="-0.36448">
        <ele>955.69</ele>
        <time>2019-08-03T06:28:58Z</time>
      </trkpt>
      <trkpt lat="42.96698" lon="-0.36412">
        <ele>958.09</ele>
        <time>2019-08-03T06:29:12Z</time>
      </trkpt>
      <trkpt lat="42.96698" lon="-0.36379">
        <ele>959.53</ele>
        <time>2019-08-03T06:29:23Z</time>
      </trkpt>
      <trkpt lat="42.96698" lon="-0.36365">
        <ele>960.01</ele>
        <time>2019-08-03T06:29:28Z</time>
      </trkpt>
      <trkpt lat="42.96694" lon="-0.36328">
        <ele>962.42</ele>
        <time>2019-08-03T06:29:41Z</time>
      </trkpt>
      <trkpt lat="42.96695" lon="-0.36325">
        <ele>962.42</ele>
        <time>2019-08-03T06:29:42Z</time>
      </trkpt>
      <trkpt lat="42.96694" lon="-0.36322">
        <ele>962.42</ele>
        <time>2019-08-03T06:29:43Z</time>
      </trkpt>
      <trkpt lat="42.96694" lon="-0.36319">
        <ele>962.42</ele>
        <time>2019-08-03T06:29:44Z</time>
      </trkpt>
      <trkpt lat="42.96693" lon="-0.36316">
        <ele>962.9</ele>
        <time>2019-08-03T06:29:45Z</time>
      </trkpt>
      <trkpt lat="42.96691" lon="-0.36307">
        <ele>963.38</ele>
        <time>2019-08-03T06:29:48Z</time>
      </trkpt>
      <trkpt lat="42.96683" lon="-0.3627">
        <ele>965.78</ele>
        <time>2019-08-03T06:30:01Z</time>
      </trkpt>
      <trkpt lat="42.96675" lon="-0.36245">
        <ele>968.18</ele>
        <time>2019-08-03T06:30:10Z</time>
      </trkpt>
      <trkpt lat="42.96675" lon="-0.36242">
        <ele>968.18</ele>
        <time>2019-08-03T06:30:11Z</time>
      </trkpt>
      <trkpt lat="42.96668" lon="-0.36208">
        <ele>970.11</ele>
        <time>2019-08-03T06:30:23Z</time>
      </trkpt>
      <trkpt lat="42.9666" lon="-0.36176">
        <ele>973.47</ele>
        <time>2019-08-03T06:30:34Z</time>
      </trkpt>
      <trkpt lat="42.96653" lon="-0.3614">
        <ele>975.88</ele>
        <time>2019-08-03T06:30:47Z</time>
      </trkpt>
      <trkpt lat="42.96647" lon="-0.361">
        <ele>980.68</ele>
        <time>2019-08-03T06:31:01Z</time>
      </trkpt>
      <trkpt lat="42.96646" lon="-0.36053">
        <ele>986.93</ele>
        <time>2019-08-03T06:31:17Z</time>
      </trkpt>
      <trkpt lat="42.96633" lon="-0.36005">
        <ele>989.33</ele>
        <time>2019-08-03T06:31:34Z</time>
      </trkpt>
      <trkpt lat="42.96631" lon="-0.35965">
        <ele>992.22</ele>
        <time>2019-08-03T06:31:47Z</time>
      </trkpt>
      <trkpt lat="42.96634" lon="-0.35921">
        <ele>995.1</ele>
        <time>2019-08-03T06:32:02Z</time>
      </trkpt>
      <trkpt lat="42.9663" lon="-0.35877">
        <ele>997.99</ele>
        <time>2019-08-03T06:32:17Z</time>
      </trkpt>
      <trkpt lat="42.9663" lon="-0.35875">
        <ele>998.47</ele>
        <time>2019-08-03T06:32:18Z</time>
      </trkpt>
      <trkpt lat="42.96629" lon="-0.35872">
        <ele>998.47</ele>
        <time>2019-08-03T06:32:19Z</time>
      </trkpt>
      <trkpt lat="42.96629" lon="-0.3587">
        <ele>998.47</ele>
        <time>2019-08-03T06:32:20Z</time>
      </trkpt>
      <trkpt lat="42.96628" lon="-0.35867">
        <ele>998.47</ele>
        <time>2019-08-03T06:32:21Z</time>
      </trkpt>
      <trkpt lat="42.96628" lon="-0.35864">
        <ele>998.47</ele>
        <time>2019-08-03T06:32:22Z</time>
      </trkpt>
      <trkpt lat="42.96622" lon="-0.35828">
        <ele>997.99</ele>
        <time>2019-08-03T06:32:39Z</time>
      </trkpt>
      <trkpt lat="42.96622" lon="-0.35826">
        <ele>997.99</ele>
        <time>2019-08-03T06:32:40Z</time>
      </trkpt>
      <trkpt lat="42.96619" lon="-0.35774">
        <ele>1002.79</ele>
        <time>2019-08-03T06:32:56Z</time>
      </trkpt>
      <trkpt lat="42.96616" lon="-0.3577">
        <ele>1003.27</ele>
        <time>2019-08-03T06:32:57Z</time>
      </trkpt>
      <trkpt lat="42.96595" lon="-0.35721">
        <ele>1008.08</ele>
        <time>2019-08-03T06:33:13Z</time>
      </trkpt>
      <trkpt lat="42.96594" lon="-0.35719">
        <ele>1008.08</ele>
        <time>2019-08-03T06:33:14Z</time>
      </trkpt>
      <trkpt lat="42.96592" lon="-0.35717">
        <ele>1008.08</ele>
        <time>2019-08-03T06:33:15Z</time>
      </trkpt>
      <trkpt lat="42.96575" lon="-0.3568">
        <ele>1009.04</ele>
        <time>2019-08-03T06:33:33Z</time>
      </trkpt>
      <trkpt lat="42.96565" lon="-0.35616">
        <ele>1013.85</ele>
        <time>2019-08-03T06:33:51Z</time>
      </trkpt>
      <trkpt lat="42.96544" lon="-0.35589">
        <ele>1016.73</ele>
        <time>2019-08-03T06:34:04Z</time>
      </trkpt>
      <trkpt lat="42.96539" lon="-0.35585">
        <ele>1017.21</ele>
        <time>2019-08-03T06:34:07Z</time>
      </trkpt>
      <trkpt lat="42.96537" lon="-0.35583">
        <ele>1017.69</ele>
        <time>2019-08-03T06:34:08Z</time>
      </trkpt>
      <trkpt lat="42.96535" lon="-0.35582">
        <ele>1017.69</ele>
        <time>2019-08-03T06:34:09Z</time>
      </trkpt>
      <trkpt lat="42.96533" lon="-0.3558">
        <ele>1018.17</ele>
        <time>2019-08-03T06:34:10Z</time>
      </trkpt>
      <trkpt lat="42.96531" lon="-0.35579">
        <ele>1018.17</ele>
        <time>2019-08-03T06:34:11Z</time>
      </trkpt>
      <trkpt lat="42.9651" lon="-0.35553">
        <ele>1019.62</ele>
        <time>2019-08-03T06:34:24Z</time>
      </trkpt>
      <trkpt lat="42.9649" lon="-0.35531">
        <ele>1021.06</ele>
        <time>2019-08-03T06:34:36Z</time>
      </trkpt>
      <trkpt lat="42.96471" lon="-0.35512">
        <ele>1021.54</ele>
        <time>2019-08-03T06:34:47Z</time>
      </trkpt>
      <trkpt lat="42.9647" lon="-0.3551">
        <ele>1021.06</ele>
        <time>2019-08-03T06:34:48Z</time>
      </trkpt>
      <trkpt lat="42.96467" lon="-0.35504">
        <ele>1021.06</ele>
        <time>2019-08-03T06:34:51Z</time>
      </trkpt>
      <trkpt lat="42.96466" lon="-0.35502">
        <ele>1021.06</ele>
        <time>2019-08-03T06:34:52Z</time>
      </trkpt>
      <trkpt lat="42.96451" lon="-0.35481">
        <ele>1020.58</ele>
        <time>2019-08-03T06:35:01Z</time>
      </trkpt>
      <trkpt lat="42.96437" lon="-0.3545">
        <ele>1020.1</ele>
        <time>2019-08-03T06:35:14Z</time>
      </trkpt>
      <trkpt lat="42.96425" lon="-0.35433">
        <ele>1018.65</ele>
        <time>2019-08-03T06:35:22Z</time>
      </trkpt>
      <trkpt lat="42.96423" lon="-0.35431">
        <ele>1018.17</ele>
        <time>2019-08-03T06:35:23Z</time>
      </trkpt>
      <trkpt lat="42.96422" lon="-0.35428">
        <ele>1018.17</ele>
        <time>2019-08-03T06:35:24Z</time>
      </trkpt>
      <trkpt lat="42.96421" lon="-0.35426">
        <ele>1018.17</ele>
        <time>2019-08-03T06:35:25Z</time>
      </trkpt>
      <trkpt lat="42.9642" lon="-0.35424">
        <ele>1017.69</ele>
        <time>2019-08-03T06:35:26Z</time>
      </trkpt>
      <trkpt lat="42.96418" lon="-0.35421">
        <ele>1017.69</ele>
        <time>2019-08-03T06:35:27Z</time>
      </trkpt>
      <trkpt lat="42.96415" lon="-0.35411">
        <ele>1019.62</ele>
        <time>2019-08-03T06:35:32Z</time>
      </trkpt>
      <trkpt lat="42.96415" lon="-0.3541">
        <ele>1021.06</ele>
        <time>2019-08-03T06:35:33Z</time>
      </trkpt>
      <trkpt lat="42.96415" lon="-0.35409">
        <ele>1022.98</ele>
        <time>2019-08-03T06:35:34Z</time>
      </trkpt>
      <trkpt lat="42.96414" lon="-0.35407">
        <ele>1024.42</ele>
        <time>2019-08-03T06:35:35Z</time>
      </trkpt>
      <trkpt lat="42.96414" lon="-0.35405">
        <ele>1025.38</ele>
        <time>2019-08-03T06:35:36Z</time>
      </trkpt>
      <trkpt lat="42.96414" lon="-0.35403">
        <ele>1026.34</ele>
        <time>2019-08-03T06:35:37Z</time>
      </trkpt>
      <trkpt lat="42.96414" lon="-0.35401">
        <ele>1026.83</ele>
        <time>2019-08-03T06:35:38Z</time>
      </trkpt>
      <trkpt lat="42.96415" lon="-0.35398">
        <ele>1027.31</ele>
        <time>2019-08-03T06:35:39Z</time>
      </trkpt>
      <trkpt lat="42.96414" lon="-0.35395">
        <ele>1028.27</ele>
        <time>2019-08-03T06:35:40Z</time>
      </trkpt>
      <trkpt lat="42.96404" lon="-0.35361">
        <ele>1033.55</ele>
        <time>2019-08-03T06:35:52Z</time>
      </trkpt>
      <trkpt lat="42.96382" lon="-0.35332">
        <ele>1035</ele>
        <time>2019-08-03T06:36:05Z</time>
      </trkpt>
      <trkpt lat="42.96362" lon="-0.35301">
        <ele>1033.55</ele>
        <time>2019-08-03T06:36:19Z</time>
      </trkpt>
      <trkpt lat="42.96354" lon="-0.35277">
        <ele>1033.07</ele>
        <time>2019-08-03T06:36:28Z</time>
      </trkpt>
      <trkpt lat="42.96354" lon="-0.35276">
        <ele>1034.52</ele>
        <time>2019-08-03T06:36:29Z</time>
      </trkpt>
      <trkpt lat="42.96355" lon="-0.35274">
        <ele>1035.48</ele>
        <time>2019-08-03T06:36:30Z</time>
      </trkpt>
      <trkpt lat="42.96354" lon="-0.35271">
        <ele>1036.92</ele>
        <time>2019-08-03T06:36:31Z</time>
      </trkpt>
      <trkpt lat="42.96355" lon="-0.35269">
        <ele>1037.4</ele>
        <time>2019-08-03T06:36:32Z</time>
      </trkpt>
      <trkpt lat="42.96351" lon="-0.35239">
        <ele>1046.53</ele>
        <time>2019-08-03T06:36:44Z</time>
      </trkpt>
      <trkpt lat="42.96347" lon="-0.35187">
        <ele>1051.82</ele>
        <time>2019-08-03T06:37:02Z</time>
      </trkpt>
      <trkpt lat="42.96346" lon="-0.3517">
        <ele>1052.78</ele>
        <time>2019-08-03T06:37:08Z</time>
      </trkpt>
      <trkpt lat="42.96348" lon="-0.35129">
        <ele>1056.15</ele>
        <time>2019-08-03T06:37:22Z</time>
      </trkpt>
      <trkpt lat="42.96363" lon="-0.35098">
        <ele>1060.47</ele>
        <time>2019-08-03T06:37:35Z</time>
      </trkpt>
      <trkpt lat="42.96385" lon="-0.35066">
        <ele>1063.36</ele>
        <time>2019-08-03T06:37:49Z</time>
      </trkpt>
      <trkpt lat="42.96388" lon="-0.35031">
        <ele>1064.8</ele>
        <time>2019-08-03T06:38:01Z</time>
      </trkpt>
      <trkpt lat="42.96394" lon="-0.34996">
        <ele>1067.2</ele>
        <time>2019-08-03T06:38:13Z</time>
      </trkpt>
      <trkpt lat="42.96395" lon="-0.34957">
        <ele>1070.08</ele>
        <time>2019-08-03T06:38:27Z</time>
      </trkpt>
      <trkpt lat="42.96402" lon="-0.34916">
        <ele>1072.01</ele>
        <time>2019-08-03T06:38:42Z</time>
      </trkpt>
      <trkpt lat="42.96421" lon="-0.34892">
        <ele>1074.89</ele>
        <time>2019-08-03T06:38:54Z</time>
      </trkpt>
      <trkpt lat="42.96436" lon="-0.34865">
        <ele>1075.37</ele>
        <time>2019-08-03T06:39:06Z</time>
      </trkpt>
      <trkpt lat="42.96436" lon="-0.34853">
        <ele>1075.37</ele>
        <time>2019-08-03T06:39:10Z</time>
      </trkpt>
      <trkpt lat="42.96433" lon="-0.34814">
        <ele>1078.74</ele>
        <time>2019-08-03T06:39:23Z</time>
      </trkpt>
      <trkpt lat="42.96412" lon="-0.34771">
        <ele>1082.1</ele>
        <time>2019-08-03T06:39:37Z</time>
      </trkpt>
      <trkpt lat="42.96402" lon="-0.34715">
        <ele>1082.1</ele>
        <time>2019-08-03T06:39:52Z</time>
      </trkpt>
      <trkpt lat="42.96403" lon="-0.34652">
        <ele>1080.66</ele>
        <time>2019-08-03T06:40:07Z</time>
      </trkpt>
      <trkpt lat="42.96403" lon="-0.34624">
        <ele>1080.66</ele>
        <time>2019-08-03T06:40:13Z</time>
      </trkpt>
      <trkpt lat="42.9638" lon="-0.34615">
        <ele>1082.58</ele>
        <time>2019-08-03T06:40:21Z</time>
      </trkpt>
      <trkpt lat="42.9637" lon="-0.34655">
        <ele>1086.91</ele>
        <time>2019-08-03T06:40:32Z</time>
      </trkpt>
      <trkpt lat="42.96358" lon="-0.34698">
        <ele>1088.35</ele>
        <time>2019-08-03T06:40:46Z</time>
      </trkpt>
      <trkpt lat="42.96341" lon="-0.34723">
        <ele>1089.79</ele>
        <time>2019-08-03T06:40:58Z</time>
      </trkpt>
      <trkpt lat="42.96338" lon="-0.34727">
        <ele>1089.79</ele>
        <time>2019-08-03T06:41:00Z</time>
      </trkpt>
      <trkpt lat="42.96338" lon="-0.34728">
        <ele>1089.79</ele>
        <time>2019-08-03T06:41:01Z</time>
      </trkpt>
      <trkpt lat="42.96337" lon="-0.3473">
        <ele>1090.27</ele>
        <time>2019-08-03T06:41:02Z</time>
      </trkpt>
      <trkpt lat="42.96335" lon="-0.34736">
        <ele>1090.75</ele>
        <time>2019-08-03T06:41:06Z</time>
      </trkpt>
      <trkpt lat="42.96335" lon="-0.34738">
        <ele>1090.75</ele>
        <time>2019-08-03T06:41:07Z</time>
      </trkpt>
      <trkpt lat="42.96334" lon="-0.3474">
        <ele>1091.23</ele>
        <time>2019-08-03T06:41:08Z</time>
      </trkpt>
      <trkpt lat="42.96332" lon="-0.34742">
        <ele>1091.23</ele>
        <time>2019-08-03T06:41:09Z</time>
      </trkpt>
      <trkpt lat="42.9633" lon="-0.34744">
        <ele>1091.23</ele>
        <time>2019-08-03T06:41:10Z</time>
      </trkpt>
      <trkpt lat="42.96328" lon="-0.34746">
        <ele>1091.23</ele>
        <time>2019-08-03T06:41:11Z</time>
      </trkpt>
      <trkpt lat="42.96326" lon="-0.34749">
        <ele>1091.23</ele>
        <time>2019-08-03T06:41:12Z</time>
      </trkpt>
      <trkpt lat="42.96324" lon="-0.34751">
        <ele>1091.23</ele>
        <time>2019-08-03T06:41:13Z</time>
      </trkpt>
      <trkpt lat="42.96322" lon="-0.34753">
        <ele>1091.71</ele>
        <time>2019-08-03T06:41:14Z</time>
      </trkpt>
      <trkpt lat="42.96322" lon="-0.34755">
        <ele>1091.71</ele>
        <time>2019-08-03T06:41:15Z</time>
      </trkpt>
      <trkpt lat="42.9632" lon="-0.34758">
        <ele>1091.71</ele>
        <time>2019-08-03T06:41:16Z</time>
      </trkpt>
      <trkpt lat="42.96319" lon="-0.3476">
        <ele>1092.2</ele>
        <time>2019-08-03T06:41:17Z</time>
      </trkpt>
      <trkpt lat="42.96317" lon="-0.34761">
        <ele>1092.2</ele>
        <time>2019-08-03T06:41:18Z</time>
      </trkpt>
      <trkpt lat="42.96316" lon="-0.34763">
        <ele>1092.2</ele>
        <time>2019-08-03T06:41:19Z</time>
      </trkpt>
      <trkpt lat="42.96314" lon="-0.34764">
        <ele>1092.68</ele>
        <time>2019-08-03T06:41:20Z</time>
      </trkpt>
      <trkpt lat="42.96313" lon="-0.34765">
        <ele>1093.16</ele>
        <time>2019-08-03T06:41:21Z</time>
      </trkpt>
      <trkpt lat="42.9629" lon="-0.34784">
        <ele>1093.64</ele>
        <time>2019-08-03T06:41:32Z</time>
      </trkpt>
      <trkpt lat="42.96266" lon="-0.34824">
        <ele>1093.16</ele>
        <time>2019-08-03T06:41:47Z</time>
      </trkpt>
      <trkpt lat="42.96255" lon="-0.34858">
        <ele>1092.68</ele>
        <time>2019-08-03T06:41:59Z</time>
      </trkpt>
      <trkpt lat="42.9625" lon="-0.34896">
        <ele>1093.16</ele>
        <time>2019-08-03T06:42:11Z</time>
      </trkpt>
      <trkpt lat="42.96243" lon="-0.34948">
        <ele>1098.92</ele>
        <time>2019-08-03T06:42:24Z</time>
      </trkpt>
      <trkpt lat="42.96231" lon="-0.34963">
        <ele>1107.58</ele>
        <time>2019-08-03T06:42:31Z</time>
      </trkpt>
      <trkpt lat="42.96232" lon="-0.34956">
        <ele>1108.06</ele>
        <time>2019-08-03T06:42:34Z</time>
      </trkpt>
      <trkpt lat="42.96232" lon="-0.34953">
        <ele>1108.06</ele>
        <time>2019-08-03T06:42:35Z</time>
      </trkpt>
      <trkpt lat="42.96231" lon="-0.3495">
        <ele>1108.54</ele>
        <time>2019-08-03T06:42:36Z</time>
      </trkpt>
      <trkpt lat="42.96231" lon="-0.34933">
        <ele>1109.5</ele>
        <time>2019-08-03T06:42:41Z</time>
      </trkpt>
      <trkpt lat="42.96231" lon="-0.34897">
        <ele>1110.46</ele>
        <time>2019-08-03T06:42:52Z</time>
      </trkpt>
      <trkpt lat="42.96229" lon="-0.34865">
        <ele>1110.94</ele>
        <time>2019-08-03T06:43:03Z</time>
      </trkpt>
      <trkpt lat="42.96231" lon="-0.34845">
        <ele>1110.94</ele>
        <time>2019-08-03T06:43:09Z</time>
      </trkpt>
      <trkpt lat="42.96229" lon="-0.34836">
        <ele>1111.42</ele>
        <time>2019-08-03T06:43:12Z</time>
      </trkpt>
      <trkpt lat="42.96227" lon="-0.34807">
        <ele>1111.9</ele>
        <time>2019-08-03T06:43:22Z</time>
      </trkpt>
      <trkpt lat="42.96226" lon="-0.34799">
        <ele>1111.9</ele>
        <time>2019-08-03T06:43:25Z</time>
      </trkpt>
      <trkpt lat="42.96227" lon="-0.34797">
        <ele>1111.9</ele>
        <time>2019-08-03T06:43:26Z</time>
      </trkpt>
      <trkpt lat="42.96227" lon="-0.34795">
        <ele>1111.9</ele>
        <time>2019-08-03T06:43:27Z</time>
      </trkpt>
      <trkpt lat="42.96225" lon="-0.34788">
        <ele>1111.9</ele>
        <time>2019-08-03T06:43:30Z</time>
      </trkpt>
      <trkpt lat="42.96223" lon="-0.34785">
        <ele>1112.38</ele>
        <time>2019-08-03T06:43:31Z</time>
      </trkpt>
      <trkpt lat="42.96222" lon="-0.34782">
        <ele>1112.38</ele>
        <time>2019-08-03T06:43:32Z</time>
      </trkpt>
      <trkpt lat="42.9622" lon="-0.34775">
        <ele>1111.9</ele>
        <time>2019-08-03T06:43:35Z</time>
      </trkpt>
      <trkpt lat="42.96219" lon="-0.34773">
        <ele>1111.9</ele>
        <time>2019-08-03T06:43:36Z</time>
      </trkpt>
      <trkpt lat="42.96218" lon="-0.3477">
        <ele>1112.38</ele>
        <time>2019-08-03T06:43:37Z</time>
      </trkpt>
      <trkpt lat="42.96212" lon="-0.34758">
        <ele>1112.38</ele>
        <time>2019-08-03T06:43:42Z</time>
      </trkpt>
      <trkpt lat="42.96213" lon="-0.34755">
        <ele>1112.38</ele>
        <time>2019-08-03T06:43:43Z</time>
      </trkpt>
      <trkpt lat="42.96214" lon="-0.34752">
        <ele>1112.38</ele>
        <time>2019-08-03T06:43:44Z</time>
      </trkpt>
      <trkpt lat="42.96214" lon="-0.34749">
        <ele>1112.38</ele>
        <time>2019-08-03T06:43:45Z</time>
      </trkpt>
      <trkpt lat="42.96214" lon="-0.34746">
        <ele>1112.86</ele>
        <time>2019-08-03T06:43:46Z</time>
      </trkpt>
      <trkpt lat="42.96215" lon="-0.34744">
        <ele>1112.86</ele>
        <time>2019-08-03T06:43:47Z</time>
      </trkpt>
      <trkpt lat="42.96214" lon="-0.34742">
        <ele>1112.86</ele>
        <time>2019-08-03T06:43:48Z</time>
      </trkpt>
      <trkpt lat="42.96213" lon="-0.34739">
        <ele>1112.38</ele>
        <time>2019-08-03T06:43:49Z</time>
      </trkpt>
      <trkpt lat="42.96211" lon="-0.34734">
        <ele>1112.38</ele>
        <time>2019-08-03T06:43:51Z</time>
      </trkpt>
      <trkpt lat="42.96212" lon="-0.3473">
        <ele>1112.86</ele>
        <time>2019-08-03T06:43:52Z</time>
      </trkpt>
      <trkpt lat="42.96213" lon="-0.34727">
        <ele>1112.86</ele>
        <time>2019-08-03T06:43:53Z</time>
      </trkpt>
      <trkpt lat="42.96213" lon="-0.34723">
        <ele>1112.38</ele>
        <time>2019-08-03T06:43:54Z</time>
      </trkpt>
      <trkpt lat="42.96214" lon="-0.3472">
        <ele>1112.86</ele>
        <time>2019-08-03T06:43:55Z</time>
      </trkpt>
      <trkpt lat="42.96214" lon="-0.34717">
        <ele>1112.86</ele>
        <time>2019-08-03T06:43:56Z</time>
      </trkpt>
      <trkpt lat="42.96214" lon="-0.34714">
        <ele>1112.86</ele>
        <time>2019-08-03T06:43:57Z</time>
      </trkpt>
      <trkpt lat="42.96215" lon="-0.34711">
        <ele>1112.86</ele>
        <time>2019-08-03T06:43:58Z</time>
      </trkpt>
      <trkpt lat="42.96215" lon="-0.34708">
        <ele>1112.86</ele>
        <time>2019-08-03T06:43:59Z</time>
      </trkpt>
      <trkpt lat="42.96216" lon="-0.34705">
        <ele>1112.86</ele>
        <time>2019-08-03T06:44:00Z</time>
      </trkpt>
      <trkpt lat="42.96217" lon="-0.34702">
        <ele>1112.86</ele>
        <time>2019-08-03T06:44:01Z</time>
      </trkpt>
      <trkpt lat="42.96217" lon="-0.34699">
        <ele>1112.86</ele>
        <time>2019-08-03T06:44:02Z</time>
      </trkpt>
      <trkpt lat="42.96217" lon="-0.34696">
        <ele>1112.86</ele>
        <time>2019-08-03T06:44:03Z</time>
      </trkpt>
      <trkpt lat="42.96217" lon="-0.34693">
        <ele>1113.34</ele>
        <time>2019-08-03T06:44:04Z</time>
      </trkpt>
      <trkpt lat="42.96216" lon="-0.3469">
        <ele>1113.34</ele>
        <time>2019-08-03T06:44:05Z</time>
      </trkpt>
      <trkpt lat="42.96215" lon="-0.34687">
        <ele>1113.34</ele>
        <time>2019-08-03T06:44:06Z</time>
      </trkpt>
      <trkpt lat="42.96215" lon="-0.34684">
        <ele>1113.34</ele>
        <time>2019-08-03T06:44:07Z</time>
      </trkpt>
      <trkpt lat="42.96215" lon="-0.34681">
        <ele>1113.34</ele>
        <time>2019-08-03T06:44:08Z</time>
      </trkpt>
      <trkpt lat="42.96215" lon="-0.34678">
        <ele>1113.34</ele>
        <time>2019-08-03T06:44:09Z</time>
      </trkpt>
      <trkpt lat="42.96215" lon="-0.34675">
        <ele>1113.34</ele>
        <time>2019-08-03T06:44:10Z</time>
      </trkpt>
      <trkpt lat="42.96215" lon="-0.34672">
        <ele>1113.34</ele>
        <time>2019-08-03T06:44:11Z</time>
      </trkpt>
      <trkpt lat="42.96215" lon="-0.3467">
        <ele>1112.86</ele>
        <time>2019-08-03T06:44:12Z</time>
      </trkpt>
      <trkpt lat="42.96215" lon="-0.34667">
        <ele>1113.34</ele>
        <time>2019-08-03T06:44:13Z</time>
      </trkpt>
      <trkpt lat="42.96215" lon="-0.34663">
        <ele>1113.34</ele>
        <time>2019-08-03T06:44:14Z</time>
      </trkpt>
      <trkpt lat="42.96217" lon="-0.34657">
        <ele>1113.34</ele>
        <time>2019-08-03T06:44:16Z</time>
      </trkpt>
      <trkpt lat="42.96217" lon="-0.34654">
        <ele>1113.34</ele>
        <time>2019-08-03T06:44:17Z</time>
      </trkpt>
      <trkpt lat="42.96216" lon="-0.34645">
        <ele>1113.34</ele>
        <time>2019-08-03T06:44:20Z</time>
      </trkpt>
      <trkpt lat="42.96217" lon="-0.34642">
        <ele>1113.34</ele>
        <time>2019-08-03T06:44:21Z</time>
      </trkpt>
      <trkpt lat="42.96218" lon="-0.34639">
        <ele>1113.34</ele>
        <time>2019-08-03T06:44:22Z</time>
      </trkpt>
      <trkpt lat="42.96218" lon="-0.34636">
        <ele>1113.34</ele>
        <time>2019-08-03T06:44:23Z</time>
      </trkpt>
      <trkpt lat="42.96218" lon="-0.34633">
        <ele>1113.34</ele>
        <time>2019-08-03T06:44:24Z</time>
      </trkpt>
      <trkpt lat="42.96221" lon="-0.34612">
        <ele>1113.82</ele>
        <time>2019-08-03T06:44:31Z</time>
      </trkpt>
      <trkpt lat="42.96224" lon="-0.34601">
        <ele>1113.82</ele>
        <time>2019-08-03T06:44:35Z</time>
      </trkpt>
      <trkpt lat="42.96223" lon="-0.34598">
        <ele>1113.82</ele>
        <time>2019-08-03T06:44:36Z</time>
      </trkpt>
      <trkpt lat="42.96223" lon="-0.34595">
        <ele>1113.82</ele>
        <time>2019-08-03T06:44:37Z</time>
      </trkpt>
      <trkpt lat="42.96224" lon="-0.34592">
        <ele>1113.82</ele>
        <time>2019-08-03T06:44:38Z</time>
      </trkpt>
      <trkpt lat="42.96225" lon="-0.34589">
        <ele>1113.82</ele>
        <time>2019-08-03T06:44:39Z</time>
      </trkpt>
      <trkpt lat="42.96225" lon="-0.34586">
        <ele>1113.82</ele>
        <time>2019-08-03T06:44:40Z</time>
      </trkpt>
      <trkpt lat="42.96225" lon="-0.34583">
        <ele>1113.82</ele>
        <time>2019-08-03T06:44:41Z</time>
      </trkpt>
      <trkpt lat="42.96225" lon="-0.34581">
        <ele>1114.31</ele>
        <time>2019-08-03T06:44:42Z</time>
      </trkpt>
      <trkpt lat="42.96224" lon="-0.34579">
        <ele>1114.31</ele>
        <time>2019-08-03T06:44:43Z</time>
      </trkpt>
      <trkpt lat="42.96225" lon="-0.34576">
        <ele>1114.31</ele>
        <time>2019-08-03T06:44:44Z</time>
      </trkpt>
      <trkpt lat="42.96225" lon="-0.34574">
        <ele>1114.31</ele>
        <time>2019-08-03T06:44:45Z</time>
      </trkpt>
      <trkpt lat="42.96226" lon="-0.34572">
        <ele>1114.31</ele>
        <time>2019-08-03T06:44:46Z</time>
      </trkpt>
      <trkpt lat="42.96227" lon="-0.34569">
        <ele>1114.31</ele>
        <time>2019-08-03T06:44:47Z</time>
      </trkpt>
      <trkpt lat="42.96227" lon="-0.34568">
        <ele>1114.79</ele>
        <time>2019-08-03T06:44:48Z</time>
      </trkpt>
      <trkpt lat="42.96228" lon="-0.34566">
        <ele>1115.27</ele>
        <time>2019-08-03T06:44:49Z</time>
      </trkpt>
      <trkpt lat="42.96234" lon="-0.34562">
        <ele>1115.75</ele>
        <time>2019-08-03T06:44:55Z</time>
      </trkpt>
      <trkpt lat="42.96294" lon="-0.34556">
        <ele>1147.95</ele>
        <time>2019-08-03T06:45:05Z</time>
      </trkpt>
      <trkpt lat="42.96296" lon="-0.34554">
        <ele>1146.99</ele>
        <time>2019-08-03T06:45:06Z</time>
      </trkpt>
      <trkpt lat="42.96297" lon="-0.34552">
        <ele>1146.99</ele>
        <time>2019-08-03T06:45:07Z</time>
      </trkpt>
      <trkpt lat="42.96298" lon="-0.3455">
        <ele>1146.99</ele>
        <time>2019-08-03T06:45:08Z</time>
      </trkpt>
      <trkpt lat="42.963" lon="-0.34547">
        <ele>1146.51</ele>
        <time>2019-08-03T06:45:09Z</time>
      </trkpt>
      <trkpt lat="42.963" lon="-0.34544">
        <ele>1146.51</ele>
        <time>2019-08-03T06:45:10Z</time>
      </trkpt>
      <trkpt lat="42.96301" lon="-0.34541">
        <ele>1146.03</ele>
        <time>2019-08-03T06:45:11Z</time>
      </trkpt>
      <trkpt lat="42.96302" lon="-0.34538">
        <ele>1146.03</ele>
        <time>2019-08-03T06:45:12Z</time>
      </trkpt>
      <trkpt lat="42.96303" lon="-0.34535">
        <ele>1145.55</ele>
        <time>2019-08-03T06:45:13Z</time>
      </trkpt>
      <trkpt lat="42.96304" lon="-0.34532">
        <ele>1145.55</ele>
        <time>2019-08-03T06:45:14Z</time>
      </trkpt>
      <trkpt lat="42.96304" lon="-0.3453">
        <ele>1145.07</ele>
        <time>2019-08-03T06:45:15Z</time>
      </trkpt>
      <trkpt lat="42.96304" lon="-0.34526">
        <ele>1144.59</ele>
        <time>2019-08-03T06:45:16Z</time>
      </trkpt>
      <trkpt lat="42.96303" lon="-0.34524">
        <ele>1144.59</ele>
        <time>2019-08-03T06:45:17Z</time>
      </trkpt>
      <trkpt lat="42.96303" lon="-0.34521">
        <ele>1144.59</ele>
        <time>2019-08-03T06:45:18Z</time>
      </trkpt>
      <trkpt lat="42.96303" lon="-0.34518">
        <ele>1144.59</ele>
        <time>2019-08-03T06:45:19Z</time>
      </trkpt>
      <trkpt lat="42.96303" lon="-0.34515">
        <ele>1144.59</ele>
        <time>2019-08-03T06:45:20Z</time>
      </trkpt>
      <trkpt lat="42.96303" lon="-0.34512">
        <ele>1144.59</ele>
        <time>2019-08-03T06:45:21Z</time>
      </trkpt>
      <trkpt lat="42.96303" lon="-0.34509">
        <ele>1144.59</ele>
        <time>2019-08-03T06:45:22Z</time>
      </trkpt>
      <trkpt lat="42.96303" lon="-0.34506">
        <ele>1144.59</ele>
        <time>2019-08-03T06:45:23Z</time>
      </trkpt>
      <trkpt lat="42.96303" lon="-0.34503">
        <ele>1144.11</ele>
        <time>2019-08-03T06:45:24Z</time>
      </trkpt>
      <trkpt lat="42.96302" lon="-0.345">
        <ele>1144.11</ele>
        <time>2019-08-03T06:45:25Z</time>
      </trkpt>
      <trkpt lat="42.96302" lon="-0.34497">
        <ele>1144.11</ele>
        <time>2019-08-03T06:45:26Z</time>
      </trkpt>
      <trkpt lat="42.96302" lon="-0.34494">
        <ele>1144.11</ele>
        <time>2019-08-03T06:45:27Z</time>
      </trkpt>
      <trkpt lat="42.96301" lon="-0.34492">
        <ele>1144.11</ele>
        <time>2019-08-03T06:45:28Z</time>
      </trkpt>
      <trkpt lat="42.96301" lon="-0.34489">
        <ele>1144.11</ele>
        <time>2019-08-03T06:45:29Z</time>
      </trkpt>
      <trkpt lat="42.96298" lon="-0.34456">
        <ele>1143.14</ele>
        <time>2019-08-03T06:45:40Z</time>
      </trkpt>
      <trkpt lat="42.96298" lon="-0.34453">
        <ele>1143.14</ele>
        <time>2019-08-03T06:45:41Z</time>
      </trkpt>
      <trkpt lat="42.96297" lon="-0.3445">
        <ele>1143.63</ele>
        <time>2019-08-03T06:45:42Z</time>
      </trkpt>
      <trkpt lat="42.96296" lon="-0.34448">
        <ele>1143.63</ele>
        <time>2019-08-03T06:45:43Z</time>
      </trkpt>
      <trkpt lat="42.96295" lon="-0.34445">
        <ele>1143.63</ele>
        <time>2019-08-03T06:45:44Z</time>
      </trkpt>
      <trkpt lat="42.96295" lon="-0.34442">
        <ele>1143.63</ele>
        <time>2019-08-03T06:45:45Z</time>
      </trkpt>
      <trkpt lat="42.96295" lon="-0.3444">
        <ele>1144.11</ele>
        <time>2019-08-03T06:45:46Z</time>
      </trkpt>
      <trkpt lat="42.96295" lon="-0.34437">
        <ele>1144.11</ele>
        <time>2019-08-03T06:45:47Z</time>
      </trkpt>
      <trkpt lat="42.96296" lon="-0.34434">
        <ele>1144.11</ele>
        <time>2019-08-03T06:45:48Z</time>
      </trkpt>
      <trkpt lat="42.96295" lon="-0.34431">
        <ele>1144.11</ele>
        <time>2019-08-03T06:45:49Z</time>
      </trkpt>
      <trkpt lat="42.96295" lon="-0.34428">
        <ele>1144.59</ele>
        <time>2019-08-03T06:45:50Z</time>
      </trkpt>
      <trkpt lat="42.96295" lon="-0.34426">
        <ele>1144.59</ele>
        <time>2019-08-03T06:45:51Z</time>
      </trkpt>
      <trkpt lat="42.96295" lon="-0.34423">
        <ele>1145.07</ele>
        <time>2019-08-03T06:45:52Z</time>
      </trkpt>
      <trkpt lat="42.96295" lon="-0.3442">
        <ele>1145.07</ele>
        <time>2019-08-03T06:45:53Z</time>
      </trkpt>
      <trkpt lat="42.96295" lon="-0.34418">
        <ele>1145.07</ele>
        <time>2019-08-03T06:45:54Z</time>
      </trkpt>
      <trkpt lat="42.96295" lon="-0.34415">
        <ele>1145.07</ele>
        <time>2019-08-03T06:45:55Z</time>
      </trkpt>
      <trkpt lat="42.96296" lon="-0.34412">
        <ele>1145.55</ele>
        <time>2019-08-03T06:45:56Z</time>
      </trkpt>
      <trkpt lat="42.96297" lon="-0.34409">
        <ele>1145.55</ele>
        <time>2019-08-03T06:45:57Z</time>
      </trkpt>
      <trkpt lat="42.96298" lon="-0.34406">
        <ele>1145.55</ele>
        <time>2019-08-03T06:45:58Z</time>
      </trkpt>
      <trkpt lat="42.96305" lon="-0.34375">
        <ele>1146.03</ele>
        <time>2019-08-03T06:46:09Z</time>
      </trkpt>
      <trkpt lat="42.96305" lon="-0.34366">
        <ele>1146.03</ele>
        <time>2019-08-03T06:46:12Z</time>
      </trkpt>
      <trkpt lat="42.96304" lon="-0.34363">
        <ele>1146.03</ele>
        <time>2019-08-03T06:46:13Z</time>
      </trkpt>
      <trkpt lat="42.96297" lon="-0.34344">
        <ele>1146.51</ele>
        <time>2019-08-03T06:46:20Z</time>
      </trkpt>
      <trkpt lat="42.96296" lon="-0.34341">
        <ele>1146.51</ele>
        <time>2019-08-03T06:46:21Z</time>
      </trkpt>
      <trkpt lat="42.96296" lon="-0.34338">
        <ele>1146.03</ele>
        <time>2019-08-03T06:46:22Z</time>
      </trkpt>
      <trkpt lat="42.96295" lon="-0.34335">
        <ele>1146.51</ele>
        <time>2019-08-03T06:46:23Z</time>
      </trkpt>
      <trkpt lat="42.96294" lon="-0.34332">
        <ele>1146.51</ele>
        <time>2019-08-03T06:46:24Z</time>
      </trkpt>
      <trkpt lat="42.96294" lon="-0.34329">
        <ele>1146.51</ele>
        <time>2019-08-03T06:46:25Z</time>
      </trkpt>
      <trkpt lat="42.9629" lon="-0.34306">
        <ele>1146.51</ele>
        <time>2019-08-03T06:46:33Z</time>
      </trkpt>
      <trkpt lat="42.9629" lon="-0.34303">
        <ele>1146.51</ele>
        <time>2019-08-03T06:46:34Z</time>
      </trkpt>
      <trkpt lat="42.96289" lon="-0.34287">
        <ele>1146.51</ele>
        <time>2019-08-03T06:46:40Z</time>
      </trkpt>
      <trkpt lat="42.96289" lon="-0.34284">
        <ele>1146.51</ele>
        <time>2019-08-03T06:46:41Z</time>
      </trkpt>
      <trkpt lat="42.96289" lon="-0.34281">
        <ele>1146.99</ele>
        <time>2019-08-03T06:46:42Z</time>
      </trkpt>
      <trkpt lat="42.96289" lon="-0.34279">
        <ele>1146.99</ele>
        <time>2019-08-03T06:46:43Z</time>
      </trkpt>
      <trkpt lat="42.96289" lon="-0.34276">
        <ele>1146.99</ele>
        <time>2019-08-03T06:46:44Z</time>
      </trkpt>
      <trkpt lat="42.96294" lon="-0.34257">
        <ele>1146.99</ele>
        <time>2019-08-03T06:46:51Z</time>
      </trkpt>
      <trkpt lat="42.96294" lon="-0.34254">
        <ele>1146.99</ele>
        <time>2019-08-03T06:46:52Z</time>
      </trkpt>
      <trkpt lat="42.96294" lon="-0.34251">
        <ele>1146.99</ele>
        <time>2019-08-03T06:46:53Z</time>
      </trkpt>
      <trkpt lat="42.96293" lon="-0.34248">
        <ele>1146.99</ele>
        <time>2019-08-03T06:46:54Z</time>
      </trkpt>
      <trkpt lat="42.96292" lon="-0.34245">
        <ele>1146.99</ele>
        <time>2019-08-03T06:46:55Z</time>
      </trkpt>
      <trkpt lat="42.96291" lon="-0.34242">
        <ele>1146.99</ele>
        <time>2019-08-03T06:46:56Z</time>
      </trkpt>
      <trkpt lat="42.96291" lon="-0.34239">
        <ele>1146.99</ele>
        <time>2019-08-03T06:46:57Z</time>
      </trkpt>
      <trkpt lat="42.96291" lon="-0.34236">
        <ele>1147.47</ele>
        <time>2019-08-03T06:46:58Z</time>
      </trkpt>
      <trkpt lat="42.96287" lon="-0.34217">
        <ele>1147.47</ele>
        <time>2019-08-03T06:47:05Z</time>
      </trkpt>
      <trkpt lat="42.96288" lon="-0.34214">
        <ele>1147.47</ele>
        <time>2019-08-03T06:47:06Z</time>
      </trkpt>
      <trkpt lat="42.96288" lon="-0.34206">
        <ele>1147.47</ele>
        <time>2019-08-03T06:47:09Z</time>
      </trkpt>
      <trkpt lat="42.96287" lon="-0.34204">
        <ele>1147.95</ele>
        <time>2019-08-03T06:47:10Z</time>
      </trkpt>
      <trkpt lat="42.96287" lon="-0.34201">
        <ele>1147.95</ele>
        <time>2019-08-03T06:47:11Z</time>
      </trkpt>
      <trkpt lat="42.9629" lon="-0.34191">
        <ele>1147.47</ele>
        <time>2019-08-03T06:47:14Z</time>
      </trkpt>
      <trkpt lat="42.96291" lon="-0.34188">
        <ele>1147.47</ele>
        <time>2019-08-03T06:47:15Z</time>
      </trkpt>
      <trkpt lat="42.96292" lon="-0.34185">
        <ele>1147.95</ele>
        <time>2019-08-03T06:47:16Z</time>
      </trkpt>
      <trkpt lat="42.96293" lon="-0.34183">
        <ele>1147.95</ele>
        <time>2019-08-03T06:47:17Z</time>
      </trkpt>
      <trkpt lat="42.96314" lon="-0.34173">
        <ele>1171.98</ele>
        <time>2019-08-03T06:47:18Z</time>
      </trkpt>
      <trkpt lat="42.9633" lon="-0.34162">
        <ele>1175.83</ele>
        <time>2019-08-03T06:47:21Z</time>
      </trkpt>
      <trkpt lat="42.96332" lon="-0.34158">
        <ele>1176.79</ele>
        <time>2019-08-03T06:47:22Z</time>
      </trkpt>
      <trkpt lat="42.96341" lon="-0.34138">
        <ele>1174.39</ele>
        <time>2019-08-03T06:47:29Z</time>
      </trkpt>
      <trkpt lat="42.96342" lon="-0.34135">
        <ele>1174.39</ele>
        <time>2019-08-03T06:47:30Z</time>
      </trkpt>
      <trkpt lat="42.96339" lon="-0.34098">
        <ele>1174.39</ele>
        <time>2019-08-03T06:47:43Z</time>
      </trkpt>
      <trkpt lat="42.96332" lon="-0.34059">
        <ele>1170.06</ele>
        <time>2019-08-03T06:47:57Z</time>
      </trkpt>
      <trkpt lat="42.96328" lon="-0.34044">
        <ele>1168.14</ele>
        <time>2019-08-03T06:48:03Z</time>
      </trkpt>
      <trkpt lat="42.96314" lon="-0.34008">
        <ele>1172.95</ele>
        <time>2019-08-03T06:48:17Z</time>
      </trkpt>
      <trkpt lat="42.96299" lon="-0.33965">
        <ele>1177.27</ele>
        <time>2019-08-03T06:48:32Z</time>
      </trkpt>
      <trkpt lat="42.96307" lon="-0.33934">
        <ele>1181.12</ele>
        <time>2019-08-03T06:48:45Z</time>
      </trkpt>
      <trkpt lat="42.96338" lon="-0.33926">
        <ele>1185.44</ele>
        <time>2019-08-03T06:48:58Z</time>
      </trkpt>
      <trkpt lat="42.9638" lon="-0.33928">
        <ele>1189.29</ele>
        <time>2019-08-03T06:49:16Z</time>
      </trkpt>
      <trkpt lat="42.96405" lon="-0.33951">
        <ele>1190.25</ele>
        <time>2019-08-03T06:49:30Z</time>
      </trkpt>
      <trkpt lat="42.9641" lon="-0.33988">
        <ele>1189.77</ele>
        <time>2019-08-03T06:49:44Z</time>
      </trkpt>
      <trkpt lat="42.96409" lon="-0.33995">
        <ele>1189.77</ele>
        <time>2019-08-03T06:49:47Z</time>
      </trkpt>
      <trkpt lat="42.96408" lon="-0.34033">
        <ele>1190.73</ele>
        <time>2019-08-03T06:50:01Z</time>
      </trkpt>
      <trkpt lat="42.96406" lon="-0.34037">
        <ele>1191.21</ele>
        <time>2019-08-03T06:50:03Z</time>
      </trkpt>
      <trkpt lat="42.96404" lon="-0.34039">
        <ele>1191.21</ele>
        <time>2019-08-03T06:50:04Z</time>
      </trkpt>
      <trkpt lat="42.96399" lon="-0.34053">
        <ele>1191.21</ele>
        <time>2019-08-03T06:50:11Z</time>
      </trkpt>
      <trkpt lat="42.96399" lon="-0.34056">
        <ele>1191.69</ele>
        <time>2019-08-03T06:50:12Z</time>
      </trkpt>
      <trkpt lat="42.96404" lon="-0.34068">
        <ele>1190.73</ele>
        <time>2019-08-03T06:50:17Z</time>
      </trkpt>
      <trkpt lat="42.96406" lon="-0.34072">
        <ele>1190.25</ele>
        <time>2019-08-03T06:50:18Z</time>
      </trkpt>
      <trkpt lat="42.96409" lon="-0.34075">
        <ele>1189.77</ele>
        <time>2019-08-03T06:50:19Z</time>
      </trkpt>
      <trkpt lat="42.96435" lon="-0.34123">
        <ele>1184.96</ele>
        <time>2019-08-03T06:50:33Z</time>
      </trkpt>
      <trkpt lat="42.96463" lon="-0.34163">
        <ele>1185.44</ele>
        <time>2019-08-03T06:50:49Z</time>
      </trkpt>
      <trkpt lat="42.96461" lon="-0.34215">
        <ele>1192.17</ele>
        <time>2019-08-03T06:51:06Z</time>
      </trkpt>
      <trkpt lat="42.96464" lon="-0.34272">
        <ele>1203.23</ele>
        <time>2019-08-03T06:51:24Z</time>
      </trkpt>
      <trkpt lat="42.96477" lon="-0.34326">
        <ele>1209.96</ele>
        <time>2019-08-03T06:51:42Z</time>
      </trkpt>
      <trkpt lat="42.96501" lon="-0.34331">
        <ele>1216.21</ele>
        <time>2019-08-03T06:51:55Z</time>
      </trkpt>
      <trkpt lat="42.96511" lon="-0.34289">
        <ele>1220.53</ele>
        <time>2019-08-03T06:52:10Z</time>
      </trkpt>
      <trkpt lat="42.9651" lon="-0.34252">
        <ele>1219.57</ele>
        <time>2019-08-03T06:52:23Z</time>
      </trkpt>
      <trkpt lat="42.96508" lon="-0.34218">
        <ele>1218.13</ele>
        <time>2019-08-03T06:52:35Z</time>
      </trkpt>
      <trkpt lat="42.96504" lon="-0.34185">
        <ele>1217.17</ele>
        <time>2019-08-03T06:52:47Z</time>
      </trkpt>
      <trkpt lat="42.96503" lon="-0.34156">
        <ele>1217.17</ele>
        <time>2019-08-03T06:52:58Z</time>
      </trkpt>
      <trkpt lat="42.96502" lon="-0.34153">
        <ele>1217.17</ele>
        <time>2019-08-03T06:52:59Z</time>
      </trkpt>
      <trkpt lat="42.96502" lon="-0.34151">
        <ele>1217.17</ele>
        <time>2019-08-03T06:53:00Z</time>
      </trkpt>
      <trkpt lat="42.96501" lon="-0.34122">
        <ele>1218.61</ele>
        <time>2019-08-03T06:53:11Z</time>
      </trkpt>
      <trkpt lat="42.965" lon="-0.34089">
        <ele>1219.09</ele>
        <time>2019-08-03T06:53:24Z</time>
      </trkpt>
      <trkpt lat="42.96505" lon="-0.3405">
        <ele>1217.65</ele>
        <time>2019-08-03T06:53:39Z</time>
      </trkpt>
      <trkpt lat="42.96505" lon="-0.34022">
        <ele>1216.21</ele>
        <time>2019-08-03T06:53:51Z</time>
      </trkpt>
      <trkpt lat="42.96499" lon="-0.33988">
        <ele>1215.72</ele>
        <time>2019-08-03T06:54:04Z</time>
      </trkpt>
      <trkpt lat="42.96492" lon="-0.33952">
        <ele>1221.49</ele>
        <time>2019-08-03T06:54:17Z</time>
      </trkpt>
      <trkpt lat="42.96486" lon="-0.33914">
        <ele>1224.38</ele>
        <time>2019-08-03T06:54:31Z</time>
      </trkpt>
      <trkpt lat="42.96475" lon="-0.33881">
        <ele>1226.78</ele>
        <time>2019-08-03T06:54:44Z</time>
      </trkpt>
      <trkpt lat="42.96478" lon="-0.33842">
        <ele>1228.7</ele>
        <time>2019-08-03T06:54:58Z</time>
      </trkpt>
      <trkpt lat="42.96467" lon="-0.33796">
        <ele>1235.91</ele>
        <time>2019-08-03T06:55:14Z</time>
      </trkpt>
      <trkpt lat="42.96463" lon="-0.33757">
        <ele>1240.72</ele>
        <time>2019-08-03T06:55:28Z</time>
      </trkpt>
      <trkpt lat="42.96461" lon="-0.33718">
        <ele>1247.45</ele>
        <time>2019-08-03T06:55:43Z</time>
      </trkpt>
      <trkpt lat="42.96462" lon="-0.33709">
        <ele>1247.45</ele>
        <time>2019-08-03T06:55:47Z</time>
      </trkpt>
      <trkpt lat="42.96459" lon="-0.33671">
        <ele>1247.45</ele>
        <time>2019-08-03T06:56:00Z</time>
      </trkpt>
      <trkpt lat="42.96458" lon="-0.33637">
        <ele>1246.49</ele>
        <time>2019-08-03T06:56:12Z</time>
      </trkpt>
      <trkpt lat="42.96446" lon="-0.33602">
        <ele>1254.18</ele>
        <time>2019-08-03T06:56:23Z</time>
      </trkpt>
      <trkpt lat="42.96441" lon="-0.33577">
        <ele>1257.54</ele>
        <time>2019-08-03T06:56:32Z</time>
      </trkpt>
      <trkpt lat="42.96439" lon="-0.33575">
        <ele>1258.02</ele>
        <time>2019-08-03T06:56:33Z</time>
      </trkpt>
      <trkpt lat="42.96439" lon="-0.33572">
        <ele>1258.02</ele>
        <time>2019-08-03T06:56:34Z</time>
      </trkpt>
      <trkpt lat="42.96438" lon="-0.33569">
        <ele>1258.02</ele>
        <time>2019-08-03T06:56:35Z</time>
      </trkpt>
      <trkpt lat="42.96438" lon="-0.33567">
        <ele>1258.5</ele>
        <time>2019-08-03T06:56:36Z</time>
      </trkpt>
      <trkpt lat="42.96437" lon="-0.33564">
        <ele>1258.5</ele>
        <time>2019-08-03T06:56:37Z</time>
      </trkpt>
      <trkpt lat="42.96429" lon="-0.33546">
        <ele>1261.39</ele>
        <time>2019-08-03T06:56:44Z</time>
      </trkpt>
      <trkpt lat="42.96428" lon="-0.33542">
        <ele>1261.39</ele>
        <time>2019-08-03T06:56:45Z</time>
      </trkpt>
      <trkpt lat="42.96427" lon="-0.33539">
        <ele>1262.35</ele>
        <time>2019-08-03T06:56:46Z</time>
      </trkpt>
      <trkpt lat="42.96425" lon="-0.33529">
        <ele>1264.27</ele>
        <time>2019-08-03T06:56:50Z</time>
      </trkpt>
      <trkpt lat="42.96424" lon="-0.33527">
        <ele>1264.75</ele>
        <time>2019-08-03T06:56:51Z</time>
      </trkpt>
      <trkpt lat="42.9641" lon="-0.33496">
        <ele>1281.09</ele>
        <time>2019-08-03T06:57:06Z</time>
      </trkpt>
      <trkpt lat="42.96405" lon="-0.33486">
        <ele>1289.75</ele>
        <time>2019-08-03T06:57:12Z</time>
      </trkpt>
      <trkpt lat="42.96403" lon="-0.33484">
        <ele>1290.71</ele>
        <time>2019-08-03T06:57:13Z</time>
      </trkpt>
      <trkpt lat="42.96401" lon="-0.33481">
        <ele>1291.67</ele>
        <time>2019-08-03T06:57:14Z</time>
      </trkpt>
      <trkpt lat="42.96399" lon="-0.33478">
        <ele>1292.63</ele>
        <time>2019-08-03T06:57:15Z</time>
      </trkpt>
      <trkpt lat="42.96397" lon="-0.33475">
        <ele>1293.59</ele>
        <time>2019-08-03T06:57:16Z</time>
      </trkpt>
      <trkpt lat="42.96384" lon="-0.33443">
        <ele>1293.59</ele>
        <time>2019-08-03T06:57:26Z</time>
      </trkpt>
      <trkpt lat="42.96385" lon="-0.33438">
        <ele>1294.07</ele>
        <time>2019-08-03T06:57:29Z</time>
      </trkpt>
      <trkpt lat="42.96384" lon="-0.33435">
        <ele>1294.07</ele>
        <time>2019-08-03T06:57:30Z</time>
      </trkpt>
      <trkpt lat="42.96384" lon="-0.33432">
        <ele>1294.55</ele>
        <time>2019-08-03T06:57:32Z</time>
      </trkpt>
      <trkpt lat="42.96382" lon="-0.33424">
        <ele>1296.48</ele>
        <time>2019-08-03T06:57:36Z</time>
      </trkpt>
      <trkpt lat="42.96375" lon="-0.33414">
        <ele>1298.4</ele>
        <time>2019-08-03T06:57:40Z</time>
      </trkpt>
      <trkpt lat="42.96346" lon="-0.33377">
        <ele>1311.86</ele>
        <time>2019-08-03T06:57:57Z</time>
      </trkpt>
      <trkpt lat="42.96331" lon="-0.33355">
        <ele>1312.34</ele>
        <time>2019-08-03T06:58:09Z</time>
      </trkpt>
      <trkpt lat="42.96311" lon="-0.33336">
        <ele>1316.66</ele>
        <time>2019-08-03T06:58:22Z</time>
      </trkpt>
      <trkpt lat="42.96272" lon="-0.33294">
        <ele>1319.55</ele>
        <time>2019-08-03T06:58:38Z</time>
      </trkpt>
      <trkpt lat="42.96249" lon="-0.33266">
        <ele>1314.26</ele>
        <time>2019-08-03T06:58:52Z</time>
      </trkpt>
      <trkpt lat="42.9622" lon="-0.33262">
        <ele>1317.62</ele>
        <time>2019-08-03T06:59:06Z</time>
      </trkpt>
      <trkpt lat="42.96191" lon="-0.3326">
        <ele>1320.03</ele>
        <time>2019-08-03T06:59:18Z</time>
      </trkpt>
      <trkpt lat="42.96156" lon="-0.33268">
        <ele>1321.47</ele>
        <time>2019-08-03T06:59:34Z</time>
      </trkpt>
      <trkpt lat="42.96128" lon="-0.33296">
        <ele>1324.35</ele>
        <time>2019-08-03T06:59:49Z</time>
      </trkpt>
      <trkpt lat="42.96096" lon="-0.333">
        <ele>1327.24</ele>
        <time>2019-08-03T07:00:04Z</time>
      </trkpt>
      <trkpt lat="42.96063" lon="-0.33279">
        <ele>1331.08</ele>
        <time>2019-08-03T07:00:21Z</time>
      </trkpt>
      <trkpt lat="42.96036" lon="-0.33283">
        <ele>1333.97</ele>
        <time>2019-08-03T07:00:34Z</time>
      </trkpt>
      <trkpt lat="42.96011" lon="-0.333">
        <ele>1339.25</ele>
        <time>2019-08-03T07:00:47Z</time>
      </trkpt>
      <trkpt lat="42.95973" lon="-0.33306">
        <ele>1343.1</ele>
        <time>2019-08-03T07:01:05Z</time>
      </trkpt>
      <trkpt lat="42.95933" lon="-0.33296">
        <ele>1344.54</ele>
        <time>2019-08-03T07:01:24Z</time>
      </trkpt>
      <trkpt lat="42.95897" lon="-0.33296">
        <ele>1344.06</ele>
        <time>2019-08-03T07:01:39Z</time>
      </trkpt>
      <trkpt lat="42.95848" lon="-0.33298">
        <ele>1344.54</ele>
        <time>2019-08-03T07:01:57Z</time>
      </trkpt>
      <trkpt lat="42.95817" lon="-0.33267">
        <ele>1345.02</ele>
        <time>2019-08-03T07:02:12Z</time>
      </trkpt>
      <trkpt lat="42.95819" lon="-0.33235">
        <ele>1345.5</ele>
        <time>2019-08-03T07:02:22Z</time>
      </trkpt>
      <trkpt lat="42.95821" lon="-0.33234">
        <ele>1345.98</ele>
        <time>2019-08-03T07:02:23Z</time>
      </trkpt>
      <trkpt lat="42.95824" lon="-0.33233">
        <ele>1347.43</ele>
        <time>2019-08-03T07:02:24Z</time>
      </trkpt>
      <trkpt lat="42.95827" lon="-0.33232">
        <ele>1347.91</ele>
        <time>2019-08-03T07:02:25Z</time>
      </trkpt>
      <trkpt lat="42.95829" lon="-0.33232">
        <ele>1347.91</ele>
        <time>2019-08-03T07:02:26Z</time>
      </trkpt>
      <trkpt lat="42.95831" lon="-0.33231">
        <ele>1347.91</ele>
        <time>2019-08-03T07:02:27Z</time>
      </trkpt>
      <trkpt lat="42.95857" lon="-0.33246">
        <ele>1350.31</ele>
        <time>2019-08-03T07:02:40Z</time>
      </trkpt>
      <trkpt lat="42.95886" lon="-0.33262">
        <ele>1354.15</ele>
        <time>2019-08-03T07:02:54Z</time>
      </trkpt>
      <trkpt lat="42.9592" lon="-0.33258">
        <ele>1362.33</ele>
        <time>2019-08-03T07:03:10Z</time>
      </trkpt>
      <trkpt lat="42.95947" lon="-0.33259">
        <ele>1366.17</ele>
        <time>2019-08-03T07:03:22Z</time>
      </trkpt>
      <trkpt lat="42.95976" lon="-0.33236">
        <ele>1370.02</ele>
        <time>2019-08-03T07:03:38Z</time>
      </trkpt>
      <trkpt lat="42.9599" lon="-0.33189">
        <ele>1370.5</ele>
        <time>2019-08-03T07:03:55Z</time>
      </trkpt>
      <trkpt lat="42.96013" lon="-0.33157">
        <ele>1374.82</ele>
        <time>2019-08-03T07:04:11Z</time>
      </trkpt>
      <trkpt lat="42.9604" lon="-0.33126">
        <ele>1376.75</ele>
        <time>2019-08-03T07:04:27Z</time>
      </trkpt>
      <trkpt lat="42.96072" lon="-0.33119">
        <ele>1380.59</ele>
        <time>2019-08-03T07:04:43Z</time>
      </trkpt>
      <trkpt lat="42.961" lon="-0.33106">
        <ele>1384.44</ele>
        <time>2019-08-03T07:04:58Z</time>
      </trkpt>
      <trkpt lat="42.96128" lon="-0.33108">
        <ele>1387.8</ele>
        <time>2019-08-03T07:05:11Z</time>
      </trkpt>
      <trkpt lat="42.96159" lon="-0.331">
        <ele>1390.68</ele>
        <time>2019-08-03T07:05:26Z</time>
      </trkpt>
      <trkpt lat="42.96185" lon="-0.33086">
        <ele>1394.53</ele>
        <time>2019-08-03T07:05:41Z</time>
      </trkpt>
      <trkpt lat="42.96212" lon="-0.33067">
        <ele>1396.45</ele>
        <time>2019-08-03T07:05:55Z</time>
      </trkpt>
      <trkpt lat="42.96222" lon="-0.33061">
        <ele>1398.86</ele>
        <time>2019-08-03T07:06:02Z</time>
      </trkpt>
      <trkpt lat="42.96224" lon="-0.33061">
        <ele>1399.34</ele>
        <time>2019-08-03T07:06:03Z</time>
      </trkpt>
      <trkpt lat="42.96247" lon="-0.33049">
        <ele>1404.14</ele>
        <time>2019-08-03T07:06:16Z</time>
      </trkpt>
      <trkpt lat="42.96272" lon="-0.33039">
        <ele>1405.58</ele>
        <time>2019-08-03T07:06:29Z</time>
      </trkpt>
      <trkpt lat="42.96304" lon="-0.33043">
        <ele>1408.95</ele>
        <time>2019-08-03T07:06:45Z</time>
      </trkpt>
      <trkpt lat="42.96328" lon="-0.33069">
        <ele>1412.79</ele>
        <time>2019-08-03T07:07:00Z</time>
      </trkpt>
      <trkpt lat="42.96344" lon="-0.33107">
        <ele>1416.64</ele>
        <time>2019-08-03T07:07:16Z</time>
      </trkpt>
      <trkpt lat="42.96369" lon="-0.33127">
        <ele>1420.97</ele>
        <time>2019-08-03T07:07:31Z</time>
      </trkpt>
      <trkpt lat="42.96391" lon="-0.33139">
        <ele>1427.21</ele>
        <time>2019-08-03T07:07:44Z</time>
      </trkpt>
      <trkpt lat="42.96414" lon="-0.3315">
        <ele>1426.73</ele>
        <time>2019-08-03T07:07:56Z</time>
      </trkpt>
      <trkpt lat="42.96438" lon="-0.33159">
        <ele>1425.77</ele>
        <time>2019-08-03T07:08:08Z</time>
      </trkpt>
      <trkpt lat="42.96454" lon="-0.3318">
        <ele>1427.21</ele>
        <time>2019-08-03T07:08:19Z</time>
      </trkpt>
      <trkpt lat="42.96473" lon="-0.33196">
        <ele>1431.54</ele>
        <time>2019-08-03T07:08:30Z</time>
      </trkpt>
      <trkpt lat="42.96491" lon="-0.33227">
        <ele>1433.94</ele>
        <time>2019-08-03T07:08:45Z</time>
      </trkpt>
      <trkpt lat="42.96499" lon="-0.33264">
        <ele>1437.31</ele>
        <time>2019-08-03T07:09:00Z</time>
      </trkpt>
      <trkpt lat="42.96508" lon="-0.33306">
        <ele>1440.19</ele>
        <time>2019-08-03T07:09:16Z</time>
      </trkpt>
      <trkpt lat="42.96514" lon="-0.3335">
        <ele>1442.11</ele>
        <time>2019-08-03T07:09:32Z</time>
      </trkpt>
      <trkpt lat="42.96524" lon="-0.33387">
        <ele>1447.4</ele>
        <time>2019-08-03T07:09:47Z</time>
      </trkpt>
      <trkpt lat="42.96538" lon="-0.33428">
        <ele>1449.32</ele>
        <time>2019-08-03T07:10:03Z</time>
      </trkpt>
      <trkpt lat="42.96562" lon="-0.33446">
        <ele>1454.13</ele>
        <time>2019-08-03T07:10:17Z</time>
      </trkpt>
      <trkpt lat="42.96591" lon="-0.33441">
        <ele>1456.53</ele>
        <time>2019-08-03T07:10:32Z</time>
      </trkpt>
      <trkpt lat="42.96613" lon="-0.33441">
        <ele>1459.42</ele>
        <time>2019-08-03T07:10:45Z</time>
      </trkpt>
      <trkpt lat="42.96631" lon="-0.33462">
        <ele>1461.82</ele>
        <time>2019-08-03T07:10:58Z</time>
      </trkpt>
      <trkpt lat="42.9664" lon="-0.33503">
        <ele>1462.3</ele>
        <time>2019-08-03T07:11:14Z</time>
      </trkpt>
      <trkpt lat="42.96655" lon="-0.33534">
        <ele>1464.71</ele>
        <time>2019-08-03T07:11:27Z</time>
      </trkpt>
      <trkpt lat="42.9668" lon="-0.33551">
        <ele>1466.15</ele>
        <time>2019-08-03T07:11:40Z</time>
      </trkpt>
      <trkpt lat="42.96704" lon="-0.33558">
        <ele>1467.11</ele>
        <time>2019-08-03T07:11:53Z</time>
      </trkpt>
      <trkpt lat="42.96723" lon="-0.33562">
        <ele>1471.44</ele>
        <time>2019-08-03T07:12:05Z</time>
      </trkpt>
      <trkpt lat="42.96747" lon="-0.33581">
        <ele>1475.76</ele>
        <time>2019-08-03T07:12:18Z</time>
      </trkpt>
      <trkpt lat="42.96774" lon="-0.33594">
        <ele>1479.61</ele>
        <time>2019-08-03T07:12:33Z</time>
      </trkpt>
      <trkpt lat="42.96797" lon="-0.33608">
        <ele>1480.57</ele>
        <time>2019-08-03T07:12:46Z</time>
      </trkpt>
      <trkpt lat="42.96813" lon="-0.33637">
        <ele>1482.01</ele>
        <time>2019-08-03T07:13:01Z</time>
      </trkpt>
      <trkpt lat="42.96835" lon="-0.33655">
        <ele>1482.01</ele>
        <time>2019-08-03T07:13:15Z</time>
      </trkpt>
      <trkpt lat="42.96864" lon="-0.3366">
        <ele>1483.45</ele>
        <time>2019-08-03T07:13:32Z</time>
      </trkpt>
      <trkpt lat="42.96889" lon="-0.33677">
        <ele>1486.34</ele>
        <time>2019-08-03T07:13:49Z</time>
      </trkpt>
      <trkpt lat="42.96884" lon="-0.33711">
        <ele>1490.18</ele>
        <time>2019-08-03T07:14:03Z</time>
      </trkpt>
      <trkpt lat="42.96892" lon="-0.33743">
        <ele>1492.1</ele>
        <time>2019-08-03T07:14:16Z</time>
      </trkpt>
      <trkpt lat="42.96886" lon="-0.33786">
        <ele>1494.99</ele>
        <time>2019-08-03T07:14:32Z</time>
      </trkpt>
      <trkpt lat="42.96889" lon="-0.33825">
        <ele>1498.35</ele>
        <time>2019-08-03T07:14:47Z</time>
      </trkpt>
      <trkpt lat="42.96896" lon="-0.33861">
        <ele>1502.2</ele>
        <time>2019-08-03T07:15:02Z</time>
      </trkpt>
      <trkpt lat="42.96901" lon="-0.33891">
        <ele>1506.04</ele>
        <time>2019-08-03T07:15:14Z</time>
      </trkpt>
      <trkpt lat="42.96904" lon="-0.33927">
        <ele>1509.41</ele>
        <time>2019-08-03T07:15:26Z</time>
      </trkpt>
      <trkpt lat="42.96913" lon="-0.33966">
        <ele>1512.29</ele>
        <time>2019-08-03T07:15:39Z</time>
      </trkpt>
      <trkpt lat="42.96925" lon="-0.34013">
        <ele>1515.18</ele>
        <time>2019-08-03T07:15:57Z</time>
      </trkpt>
      <trkpt lat="42.96938" lon="-0.34047">
        <ele>1517.58</ele>
        <time>2019-08-03T07:16:13Z</time>
      </trkpt>
      <trkpt lat="42.96945" lon="-0.34082">
        <ele>1519.5</ele>
        <time>2019-08-03T07:16:27Z</time>
      </trkpt>
      <trkpt lat="42.96929" lon="-0.34118">
        <ele>1521.9</ele>
        <time>2019-08-03T07:16:42Z</time>
      </trkpt>
      <trkpt lat="42.96936" lon="-0.34154">
        <ele>1526.23</ele>
        <time>2019-08-03T07:16:57Z</time>
      </trkpt>
      <trkpt lat="42.96953" lon="-0.34188">
        <ele>1531.04</ele>
        <time>2019-08-03T07:17:13Z</time>
      </trkpt>
      <trkpt lat="42.96969" lon="-0.34224">
        <ele>1534.88</ele>
        <time>2019-08-03T07:17:29Z</time>
      </trkpt>
      <trkpt lat="42.96983" lon="-0.34265">
        <ele>1539.21</ele>
        <time>2019-08-03T07:17:46Z</time>
      </trkpt>
      <trkpt lat="42.96988" lon="-0.34302">
        <ele>1541.61</ele>
        <time>2019-08-03T07:18:00Z</time>
      </trkpt>
      <trkpt lat="42.96983" lon="-0.34352">
        <ele>1543.53</ele>
        <time>2019-08-03T07:18:18Z</time>
      </trkpt>
      <trkpt lat="42.97" lon="-0.34383">
        <ele>1544.5</ele>
        <time>2019-08-03T07:18:33Z</time>
      </trkpt>
      <trkpt lat="42.97021" lon="-0.34402">
        <ele>1545.94</ele>
        <time>2019-08-03T07:18:47Z</time>
      </trkpt>
      <trkpt lat="42.97039" lon="-0.34433">
        <ele>1551.22</ele>
        <time>2019-08-03T07:19:03Z</time>
      </trkpt>
      <trkpt lat="42.97058" lon="-0.34472">
        <ele>1556.03</ele>
        <time>2019-08-03T07:19:21Z</time>
      </trkpt>
      <trkpt lat="42.97073" lon="-0.34506">
        <ele>1559.4</ele>
        <time>2019-08-03T07:19:37Z</time>
      </trkpt>
      <trkpt lat="42.97095" lon="-0.34541">
        <ele>1562.76</ele>
        <time>2019-08-03T07:19:54Z</time>
      </trkpt>
      <trkpt lat="42.97108" lon="-0.34552">
        <ele>1564.2</ele>
        <time>2019-08-03T07:20:02Z</time>
      </trkpt>
      <trkpt lat="42.9711" lon="-0.34552">
        <ele>1564.68</ele>
        <time>2019-08-03T07:20:03Z</time>
      </trkpt>
      <trkpt lat="42.97112" lon="-0.34554">
        <ele>1564.68</ele>
        <time>2019-08-03T07:20:04Z</time>
      </trkpt>
      <trkpt lat="42.97113" lon="-0.34555">
        <ele>1564.68</ele>
        <time>2019-08-03T07:20:05Z</time>
      </trkpt>
      <trkpt lat="42.97115" lon="-0.34556">
        <ele>1565.16</ele>
        <time>2019-08-03T07:20:06Z</time>
      </trkpt>
      <trkpt lat="42.97117" lon="-0.34557">
        <ele>1565.64</ele>
        <time>2019-08-03T07:20:07Z</time>
      </trkpt>
      <trkpt lat="42.9714" lon="-0.34569">
        <ele>1567.57</ele>
        <time>2019-08-03T07:20:19Z</time>
      </trkpt>
      <trkpt lat="42.97153" lon="-0.34601">
        <ele>1568.05</ele>
        <time>2019-08-03T07:20:32Z</time>
      </trkpt>
      <trkpt lat="42.9716" lon="-0.34648">
        <ele>1570.45</ele>
        <time>2019-08-03T07:20:49Z</time>
      </trkpt>
      <trkpt lat="42.97171" lon="-0.34677">
        <ele>1573.33</ele>
        <time>2019-08-03T07:21:01Z</time>
      </trkpt>
      <trkpt lat="42.97173" lon="-0.34677">
        <ele>1573.33</ele>
        <time>2019-08-03T07:21:02Z</time>
      </trkpt>
      <trkpt lat="42.97175" lon="-0.34676">
        <ele>1573.33</ele>
        <time>2019-08-03T07:21:03Z</time>
      </trkpt>
      <trkpt lat="42.97176" lon="-0.34675">
        <ele>1573.82</ele>
        <time>2019-08-03T07:21:04Z</time>
      </trkpt>
      <trkpt lat="42.97178" lon="-0.34674">
        <ele>1573.82</ele>
        <time>2019-08-03T07:21:05Z</time>
      </trkpt>
      <trkpt lat="42.97179" lon="-0.34672">
        <ele>1573.82</ele>
        <time>2019-08-03T07:21:06Z</time>
      </trkpt>
      <trkpt lat="42.9718" lon="-0.3467">
        <ele>1573.82</ele>
        <time>2019-08-03T07:21:07Z</time>
      </trkpt>
      <trkpt lat="42.97181" lon="-0.34667">
        <ele>1574.3</ele>
        <time>2019-08-03T07:21:08Z</time>
      </trkpt>
      <trkpt lat="42.97182" lon="-0.34664">
        <ele>1574.3</ele>
        <time>2019-08-03T07:21:09Z</time>
      </trkpt>
      <trkpt lat="42.97182" lon="-0.34662">
        <ele>1574.3</ele>
        <time>2019-08-03T07:21:10Z</time>
      </trkpt>
      <trkpt lat="42.97184" lon="-0.34607">
        <ele>1577.66</ele>
        <time>2019-08-03T07:21:30Z</time>
      </trkpt>
      <trkpt lat="42.972" lon="-0.34576">
        <ele>1580.54</ele>
        <time>2019-08-03T07:21:45Z</time>
      </trkpt>
      <trkpt lat="42.97229" lon="-0.34575">
        <ele>1583.91</ele>
        <time>2019-08-03T07:22:00Z</time>
      </trkpt>
      <trkpt lat="42.97256" lon="-0.34584">
        <ele>1586.31</ele>
        <time>2019-08-03T07:22:15Z</time>
      </trkpt>
      <trkpt lat="42.97268" lon="-0.34623">
        <ele>1589.2</ele>
        <time>2019-08-03T07:22:30Z</time>
      </trkpt>
      <trkpt lat="42.9729" lon="-0.34643">
        <ele>1592.08</ele>
        <time>2019-08-03T07:22:44Z</time>
      </trkpt>
      <trkpt lat="42.97326" lon="-0.34648">
        <ele>1597.37</ele>
        <time>2019-08-03T07:23:03Z</time>
      </trkpt>
      <trkpt lat="42.9736" lon="-0.34639">
        <ele>1600.73</ele>
        <time>2019-08-03T07:23:21Z</time>
      </trkpt>
      <trkpt lat="42.97365" lon="-0.34604">
        <ele>1603.62</ele>
        <time>2019-08-03T07:23:36Z</time>
      </trkpt>
      <trkpt lat="42.97363" lon="-0.3456">
        <ele>1606.98</ele>
        <time>2019-08-03T07:23:54Z</time>
      </trkpt>
      <trkpt lat="42.97379" lon="-0.34532">
        <ele>1609.38</ele>
        <time>2019-08-03T07:24:09Z</time>
      </trkpt>
      <trkpt lat="42.97407" lon="-0.34517">
        <ele>1611.31</ele>
        <time>2019-08-03T07:24:25Z</time>
      </trkpt>
      <trkpt lat="42.97422" lon="-0.34477">
        <ele>1614.67</ele>
        <time>2019-08-03T07:24:43Z</time>
      </trkpt>
      <trkpt lat="42.97441" lon="-0.34444">
        <ele>1617.56</ele>
        <time>2019-08-03T07:25:00Z</time>
      </trkpt>
      <trkpt lat="42.97472" lon="-0.34445">
        <ele>1620.44</ele>
        <time>2019-08-03T07:25:16Z</time>
      </trkpt>
      <trkpt lat="42.97496" lon="-0.3446">
        <ele>1622.84</ele>
        <time>2019-08-03T07:25:30Z</time>
      </trkpt>
      <trkpt lat="42.97522" lon="-0.34485">
        <ele>1625.25</ele>
        <time>2019-08-03T07:25:47Z</time>
      </trkpt>
      <trkpt lat="42.97541" lon="-0.3452">
        <ele>1628.13</ele>
        <time>2019-08-03T07:26:03Z</time>
      </trkpt>
      <trkpt lat="42.97562" lon="-0.3453">
        <ele>1630.53</ele>
        <time>2019-08-03T07:26:16Z</time>
      </trkpt>
      <trkpt lat="42.97588" lon="-0.34515">
        <ele>1633.42</ele>
        <time>2019-08-03T07:26:32Z</time>
      </trkpt>
      <trkpt lat="42.97603" lon="-0.34488">
        <ele>1636.78</ele>
        <time>2019-08-03T07:26:46Z</time>
      </trkpt>
      <trkpt lat="42.97625" lon="-0.34485">
        <ele>1637.26</ele>
        <time>2019-08-03T07:26:58Z</time>
      </trkpt>
      <trkpt lat="42.97653" lon="-0.34516">
        <ele>1637.26</ele>
        <time>2019-08-03T07:27:15Z</time>
      </trkpt>
      <trkpt lat="42.97687" lon="-0.34532">
        <ele>1639.67</ele>
        <time>2019-08-03T07:27:33Z</time>
      </trkpt>
      <trkpt lat="42.97717" lon="-0.34519">
        <ele>1641.59</ele>
        <time>2019-08-03T07:27:49Z</time>
      </trkpt>
      <trkpt lat="42.97738" lon="-0.34481">
        <ele>1644.47</ele>
        <time>2019-08-03T07:28:07Z</time>
      </trkpt>
      <trkpt lat="42.9775" lon="-0.34457">
        <ele>1645.43</ele>
        <time>2019-08-03T07:28:17Z</time>
      </trkpt>
      <trkpt lat="42.97774" lon="-0.34425">
        <ele>1648.32</ele>
        <time>2019-08-03T07:28:34Z</time>
      </trkpt>
      <trkpt lat="42.9779" lon="-0.34393">
        <ele>1650.24</ele>
        <time>2019-08-03T07:28:49Z</time>
      </trkpt>
      <trkpt lat="42.97808" lon="-0.34353">
        <ele>1654.09</ele>
        <time>2019-08-03T07:29:07Z</time>
      </trkpt>
      <trkpt lat="42.97818" lon="-0.34312">
        <ele>1657.45</ele>
        <time>2019-08-03T07:29:24Z</time>
      </trkpt>
      <trkpt lat="42.9784" lon="-0.34299">
        <ele>1659.37</ele>
        <time>2019-08-03T07:29:37Z</time>
      </trkpt>
      <trkpt lat="42.97872" lon="-0.34305">
        <ele>1661.3</ele>
        <time>2019-08-03T07:29:52Z</time>
      </trkpt>
      <trkpt lat="42.97895" lon="-0.343">
        <ele>1664.18</ele>
        <time>2019-08-03T07:30:03Z</time>
      </trkpt>
      <trkpt lat="42.97895" lon="-0.34297">
        <ele>1664.18</ele>
        <time>2019-08-03T07:30:04Z</time>
      </trkpt>
      <trkpt lat="42.97896" lon="-0.34295">
        <ele>1664.66</ele>
        <time>2019-08-03T07:30:05Z</time>
      </trkpt>
      <trkpt lat="42.97896" lon="-0.34293">
        <ele>1665.14</ele>
        <time>2019-08-03T07:30:06Z</time>
      </trkpt>
      <trkpt lat="42.97897" lon="-0.3429">
        <ele>1665.62</ele>
        <time>2019-08-03T07:30:07Z</time>
      </trkpt>
      <trkpt lat="42.97896" lon="-0.34287">
        <ele>1665.62</ele>
        <time>2019-08-03T07:30:08Z</time>
      </trkpt>
      <trkpt lat="42.97895" lon="-0.34285">
        <ele>1666.1</ele>
        <time>2019-08-03T07:30:09Z</time>
      </trkpt>
      <trkpt lat="42.97894" lon="-0.34283">
        <ele>1666.1</ele>
        <time>2019-08-03T07:30:10Z</time>
      </trkpt>
      <trkpt lat="42.97892" lon="-0.34281">
        <ele>1666.58</ele>
        <time>2019-08-03T07:30:11Z</time>
      </trkpt>
      <trkpt lat="42.9789" lon="-0.3428">
        <ele>1666.58</ele>
        <time>2019-08-03T07:30:12Z</time>
      </trkpt>
      <trkpt lat="42.97861" lon="-0.34281">
        <ele>1669.47</ele>
        <time>2019-08-03T07:30:26Z</time>
      </trkpt>
      <trkpt lat="42.97818" lon="-0.34279">
        <ele>1673.31</ele>
        <time>2019-08-03T07:30:46Z</time>
      </trkpt>
      <trkpt lat="42.97787" lon="-0.34305">
        <ele>1678.12</ele>
        <time>2019-08-03T07:31:03Z</time>
      </trkpt>
      <trkpt lat="42.97754" lon="-0.34323">
        <ele>1683.89</ele>
        <time>2019-08-03T07:31:21Z</time>
      </trkpt>
      <trkpt lat="42.97723" lon="-0.34317">
        <ele>1687.25</ele>
        <time>2019-08-03T07:31:37Z</time>
      </trkpt>
      <trkpt lat="42.97705" lon="-0.34283">
        <ele>1690.14</ele>
        <time>2019-08-03T07:31:53Z</time>
      </trkpt>
      <trkpt lat="42.97697" lon="-0.34235">
        <ele>1693.02</ele>
        <time>2019-08-03T07:32:12Z</time>
      </trkpt>
      <trkpt lat="42.97684" lon="-0.34199">
        <ele>1695.9</ele>
        <time>2019-08-03T07:32:28Z</time>
      </trkpt>
      <trkpt lat="42.97662" lon="-0.34171">
        <ele>1698.31</ele>
        <time>2019-08-03T07:32:43Z</time>
      </trkpt>
      <trkpt lat="42.97644" lon="-0.34143">
        <ele>1701.19</ele>
        <time>2019-08-03T07:32:57Z</time>
      </trkpt>
      <trkpt lat="42.97629" lon="-0.34102">
        <ele>1704.55</ele>
        <time>2019-08-03T07:33:15Z</time>
      </trkpt>
      <trkpt lat="42.97625" lon="-0.34054">
        <ele>1706.48</ele>
        <time>2019-08-03T07:33:33Z</time>
      </trkpt>
      <trkpt lat="42.97636" lon="-0.3401">
        <ele>1709.36</ele>
        <time>2019-08-03T07:33:49Z</time>
      </trkpt>
      <trkpt lat="42.97657" lon="-0.33975">
        <ele>1711.28</ele>
        <time>2019-08-03T07:34:07Z</time>
      </trkpt>
      <trkpt lat="42.97657" lon="-0.33973">
        <ele>1711.76</ele>
        <time>2019-08-03T07:34:20Z</time>
      </trkpt>
      <trkpt lat="42.97656" lon="-0.33974">
        <ele>1708.88</ele>
        <time>2019-08-03T07:34:42Z</time>
      </trkpt>
      <trkpt lat="42.97656" lon="-0.33974">
        <ele>1710.8</ele>
        <time>2019-08-03T07:35:10Z</time>
      </trkpt>
      <trkpt lat="42.97657" lon="-0.33974">
        <ele>1710.8</ele>
        <time>2019-08-03T07:35:38Z</time>
      </trkpt>
      <trkpt lat="42.97657" lon="-0.33974">
        <ele>1711.76</ele>
        <time>2019-08-03T07:36:06Z</time>
      </trkpt>
      <trkpt lat="42.97657" lon="-0.33973">
        <ele>1709.84</ele>
        <time>2019-08-03T07:36:37Z</time>
      </trkpt>
      <trkpt lat="42.97657" lon="-0.33972">
        <ele>1709.84</ele>
        <time>2019-08-03T07:37:03Z</time>
      </trkpt>
      <trkpt lat="42.97657" lon="-0.33973">
        <ele>1710.8</ele>
        <time>2019-08-03T07:37:32Z</time>
      </trkpt>
      <trkpt lat="42.97656" lon="-0.33973">
        <ele>1711.28</ele>
        <time>2019-08-03T07:38:03Z</time>
      </trkpt>
      <trkpt lat="42.97656" lon="-0.33973">
        <ele>1712.25</ele>
        <time>2019-08-03T07:38:35Z</time>
      </trkpt>
      <trkpt lat="42.97656" lon="-0.33974">
        <ele>1711.76</ele>
        <time>2019-08-03T07:38:58Z</time>
      </trkpt>
      <trkpt lat="42.97656" lon="-0.33972">
        <ele>1713.21</ele>
        <time>2019-08-03T07:39:23Z</time>
      </trkpt>
      <trkpt lat="42.97657" lon="-0.33972">
        <ele>1712.25</ele>
        <time>2019-08-03T07:39:53Z</time>
      </trkpt>
      <trkpt lat="42.97656" lon="-0.33973">
        <ele>1710.8</ele>
        <time>2019-08-03T07:40:21Z</time>
      </trkpt>
      <trkpt lat="42.97656" lon="-0.33973">
        <ele>1711.28</ele>
        <time>2019-08-03T07:40:46Z</time>
      </trkpt>
      <trkpt lat="42.97657" lon="-0.33973">
        <ele>1712.73</ele>
        <time>2019-08-03T07:41:11Z</time>
      </trkpt>
      <trkpt lat="42.97657" lon="-0.33973">
        <ele>1712.25</ele>
        <time>2019-08-03T07:41:43Z</time>
      </trkpt>
      <trkpt lat="42.97657" lon="-0.33971">
        <ele>1714.17</ele>
        <time>2019-08-03T07:42:15Z</time>
      </trkpt>
      <trkpt lat="42.97658" lon="-0.33973">
        <ele>1714.17</ele>
        <time>2019-08-03T07:42:27Z</time>
      </trkpt>
      <trkpt lat="42.97658" lon="-0.33977">
        <ele>1714.17</ele>
        <time>2019-08-03T07:42:40Z</time>
      </trkpt>
      <trkpt lat="42.97658" lon="-0.33978">
        <ele>1714.17</ele>
        <time>2019-08-03T07:42:41Z</time>
      </trkpt>
      <trkpt lat="42.97658" lon="-0.3398">
        <ele>1714.17</ele>
        <time>2019-08-03T07:42:42Z</time>
      </trkpt>
      <trkpt lat="42.97657" lon="-0.33981">
        <ele>1714.17</ele>
        <time>2019-08-03T07:42:43Z</time>
      </trkpt>
      <trkpt lat="42.97656" lon="-0.33985">
        <ele>1714.17</ele>
        <time>2019-08-03T07:42:44Z</time>
      </trkpt>
      <trkpt lat="42.97638" lon="-0.3402">
        <ele>1712.25</ele>
        <time>2019-08-03T07:42:53Z</time>
      </trkpt>
      <trkpt lat="42.97633" lon="-0.34038">
        <ele>1711.76</ele>
        <time>2019-08-03T07:42:57Z</time>
      </trkpt>
      <trkpt lat="42.97631" lon="-0.34053">
        <ele>1711.28</ele>
        <time>2019-08-03T07:42:59Z</time>
      </trkpt>
      <trkpt lat="42.97631" lon="-0.34062">
        <ele>1710.32</ele>
        <time>2019-08-03T07:43:00Z</time>
      </trkpt>
      <trkpt lat="42.97632" lon="-0.34083">
        <ele>1708.88</ele>
        <time>2019-08-03T07:43:02Z</time>
      </trkpt>
      <trkpt lat="42.97634" lon="-0.34094">
        <ele>1707.92</ele>
        <time>2019-08-03T07:43:03Z</time>
      </trkpt>
      <trkpt lat="42.97636" lon="-0.34106">
        <ele>1706.96</ele>
        <time>2019-08-03T07:43:04Z</time>
      </trkpt>
      <trkpt lat="42.9764" lon="-0.34119">
        <ele>1706</ele>
        <time>2019-08-03T07:43:05Z</time>
      </trkpt>
      <trkpt lat="42.97645" lon="-0.34131">
        <ele>1705.04</ele>
        <time>2019-08-03T07:43:06Z</time>
      </trkpt>
      <trkpt lat="42.9765" lon="-0.34142">
        <ele>1703.59</ele>
        <time>2019-08-03T07:43:07Z</time>
      </trkpt>
      <trkpt lat="42.97656" lon="-0.34153">
        <ele>1702.63</ele>
        <time>2019-08-03T07:43:08Z</time>
      </trkpt>
      <trkpt lat="42.97663" lon="-0.34163">
        <ele>1701.67</ele>
        <time>2019-08-03T07:43:09Z</time>
      </trkpt>
      <trkpt lat="42.9767" lon="-0.34172">
        <ele>1700.71</ele>
        <time>2019-08-03T07:43:10Z</time>
      </trkpt>
      <trkpt lat="42.97689" lon="-0.34199">
        <ele>1697.83</ele>
        <time>2019-08-03T07:43:13Z</time>
      </trkpt>
      <trkpt lat="42.97694" lon="-0.34209">
        <ele>1696.86</ele>
        <time>2019-08-03T07:43:14Z</time>
      </trkpt>
      <trkpt lat="42.97698" lon="-0.34221">
        <ele>1695.9</ele>
        <time>2019-08-03T07:43:15Z</time>
      </trkpt>
      <trkpt lat="42.97702" lon="-0.34235">
        <ele>1694.94</ele>
        <time>2019-08-03T07:43:16Z</time>
      </trkpt>
      <trkpt lat="42.97705" lon="-0.34248">
        <ele>1693.98</ele>
        <time>2019-08-03T07:43:17Z</time>
      </trkpt>
      <trkpt lat="42.97707" lon="-0.34262">
        <ele>1693.02</ele>
        <time>2019-08-03T07:43:18Z</time>
      </trkpt>
      <trkpt lat="42.97714" lon="-0.34295">
        <ele>1690.62</ele>
        <time>2019-08-03T07:43:21Z</time>
      </trkpt>
      <trkpt lat="42.97717" lon="-0.34304">
        <ele>1689.65</ele>
        <time>2019-08-03T07:43:22Z</time>
      </trkpt>
      <trkpt lat="42.97722" lon="-0.34312">
        <ele>1688.69</ele>
        <time>2019-08-03T07:43:23Z</time>
      </trkpt>
      <trkpt lat="42.97729" lon="-0.34317">
        <ele>1688.21</ele>
        <time>2019-08-03T07:43:24Z</time>
      </trkpt>
      <trkpt lat="42.97736" lon="-0.3432">
        <ele>1687.73</ele>
        <time>2019-08-03T07:43:25Z</time>
      </trkpt>
      <trkpt lat="42.97744" lon="-0.34321">
        <ele>1686.77</ele>
        <time>2019-08-03T07:43:26Z</time>
      </trkpt>
      <trkpt lat="42.97753" lon="-0.3432">
        <ele>1685.81</ele>
        <time>2019-08-03T07:43:27Z</time>
      </trkpt>
      <trkpt lat="42.97761" lon="-0.34318">
        <ele>1684.85</ele>
        <time>2019-08-03T07:43:28Z</time>
      </trkpt>
      <trkpt lat="42.9777" lon="-0.34314">
        <ele>1683.89</ele>
        <time>2019-08-03T07:43:29Z</time>
      </trkpt>
      <trkpt lat="42.97778" lon="-0.34309">
        <ele>1682.93</ele>
        <time>2019-08-03T07:43:30Z</time>
      </trkpt>
      <trkpt lat="42.97785" lon="-0.34303">
        <ele>1681.96</ele>
        <time>2019-08-03T07:43:31Z</time>
      </trkpt>
      <trkpt lat="42.97792" lon="-0.34295">
        <ele>1681</ele>
        <time>2019-08-03T07:43:32Z</time>
      </trkpt>
      <trkpt lat="42.97808" lon="-0.34281">
        <ele>1679.56</ele>
        <time>2019-08-03T07:43:34Z</time>
      </trkpt>
      <trkpt lat="42.97817" lon="-0.34276">
        <ele>1678.6</ele>
        <time>2019-08-03T07:43:35Z</time>
      </trkpt>
      <trkpt lat="42.97828" lon="-0.34275">
        <ele>1677.64</ele>
        <time>2019-08-03T07:43:36Z</time>
      </trkpt>
      <trkpt lat="42.97847" lon="-0.34276">
        <ele>1676.2</ele>
        <time>2019-08-03T07:43:38Z</time>
      </trkpt>
      <trkpt lat="42.97857" lon="-0.34275">
        <ele>1675.23</ele>
        <time>2019-08-03T07:43:39Z</time>
      </trkpt>
      <trkpt lat="42.97867" lon="-0.34274">
        <ele>1674.75</ele>
        <time>2019-08-03T07:43:40Z</time>
      </trkpt>
      <trkpt lat="42.97883" lon="-0.34271">
        <ele>1673.31</ele>
        <time>2019-08-03T07:43:42Z</time>
      </trkpt>
      <trkpt lat="42.97889" lon="-0.34273">
        <ele>1672.35</ele>
        <time>2019-08-03T07:43:43Z</time>
      </trkpt>
      <trkpt lat="42.97896" lon="-0.34278">
        <ele>1671.39</ele>
        <time>2019-08-03T07:43:44Z</time>
      </trkpt>
      <trkpt lat="42.97899" lon="-0.34285">
        <ele>1670.91</ele>
        <time>2019-08-03T07:43:45Z</time>
      </trkpt>
      <trkpt lat="42.97899" lon="-0.34295">
        <ele>1670.43</ele>
        <time>2019-08-03T07:43:46Z</time>
      </trkpt>
      <trkpt lat="42.97896" lon="-0.34304">
        <ele>1669.95</ele>
        <time>2019-08-03T07:43:47Z</time>
      </trkpt>
      <trkpt lat="42.9789" lon="-0.34309">
        <ele>1668.99</ele>
        <time>2019-08-03T07:43:48Z</time>
      </trkpt>
      <trkpt lat="42.97883" lon="-0.34311">
        <ele>1668.51</ele>
        <time>2019-08-03T07:43:49Z</time>
      </trkpt>
      <trkpt lat="42.97875" lon="-0.3431">
        <ele>1668.02</ele>
        <time>2019-08-03T07:43:50Z</time>
      </trkpt>
      <trkpt lat="42.97867" lon="-0.34307">
        <ele>1667.54</ele>
        <time>2019-08-03T07:43:51Z</time>
      </trkpt>
      <trkpt lat="42.97851" lon="-0.34303">
        <ele>1666.58</ele>
        <time>2019-08-03T07:43:53Z</time>
      </trkpt>
      <trkpt lat="42.97842" lon="-0.34304">
        <ele>1666.1</ele>
        <time>2019-08-03T07:43:54Z</time>
      </trkpt>
      <trkpt lat="42.97834" lon="-0.34306">
        <ele>1665.14</ele>
        <time>2019-08-03T07:43:55Z</time>
      </trkpt>
      <trkpt lat="42.97826" lon="-0.3431">
        <ele>1664.66</ele>
        <time>2019-08-03T07:43:56Z</time>
      </trkpt>
      <trkpt lat="42.97818" lon="-0.34318">
        <ele>1663.7</ele>
        <time>2019-08-03T07:43:57Z</time>
      </trkpt>
      <trkpt lat="42.97814" lon="-0.3433">
        <ele>1663.22</ele>
        <time>2019-08-03T07:43:58Z</time>
      </trkpt>
      <trkpt lat="42.97811" lon="-0.34343">
        <ele>1662.26</ele>
        <time>2019-08-03T07:43:59Z</time>
      </trkpt>
      <trkpt lat="42.97807" lon="-0.34356">
        <ele>1661.3</ele>
        <time>2019-08-03T07:44:00Z</time>
      </trkpt>
      <trkpt lat="42.97803" lon="-0.3437">
        <ele>1660.33</ele>
        <time>2019-08-03T07:44:01Z</time>
      </trkpt>
      <trkpt lat="42.97751" lon="-0.34464">
        <ele>1652.64</ele>
        <time>2019-08-03T07:44:08Z</time>
      </trkpt>
      <trkpt lat="42.97744" lon="-0.34477">
        <ele>1651.68</ele>
        <time>2019-08-03T07:44:09Z</time>
      </trkpt>
      <trkpt lat="42.97725" lon="-0.34514">
        <ele>1648.32</ele>
        <time>2019-08-03T07:44:12Z</time>
      </trkpt>
      <trkpt lat="42.97717" lon="-0.34523">
        <ele>1647.36</ele>
        <time>2019-08-03T07:44:13Z</time>
      </trkpt>
      <trkpt lat="42.97708" lon="-0.3453">
        <ele>1646.4</ele>
        <time>2019-08-03T07:44:14Z</time>
      </trkpt>
      <trkpt lat="42.97698" lon="-0.34533">
        <ele>1645.43</ele>
        <time>2019-08-03T07:44:15Z</time>
      </trkpt>
      <trkpt lat="42.97689" lon="-0.34535">
        <ele>1644.95</ele>
        <time>2019-08-03T07:44:16Z</time>
      </trkpt>
      <trkpt lat="42.9768" lon="-0.34534">
        <ele>1643.99</ele>
        <time>2019-08-03T07:44:17Z</time>
      </trkpt>
      <trkpt lat="42.9767" lon="-0.3453">
        <ele>1643.51</ele>
        <time>2019-08-03T07:44:18Z</time>
      </trkpt>
      <trkpt lat="42.97661" lon="-0.34526">
        <ele>1642.55</ele>
        <time>2019-08-03T07:44:19Z</time>
      </trkpt>
      <trkpt lat="42.97652" lon="-0.34521">
        <ele>1642.07</ele>
        <time>2019-08-03T07:44:20Z</time>
      </trkpt>
      <trkpt lat="42.97644" lon="-0.34514">
        <ele>1641.59</ele>
        <time>2019-08-03T07:44:21Z</time>
      </trkpt>
      <trkpt lat="42.97638" lon="-0.34506">
        <ele>1640.63</ele>
        <time>2019-08-03T07:44:22Z</time>
      </trkpt>
      <trkpt lat="42.97631" lon="-0.34498">
        <ele>1640.15</ele>
        <time>2019-08-03T07:44:23Z</time>
      </trkpt>
      <trkpt lat="42.97619" lon="-0.34487">
        <ele>1638.22</ele>
        <time>2019-08-03T07:44:25Z</time>
      </trkpt>
      <trkpt lat="42.97612" lon="-0.34487">
        <ele>1637.74</ele>
        <time>2019-08-03T07:44:26Z</time>
      </trkpt>
      <trkpt lat="42.97604" lon="-0.34491">
        <ele>1636.78</ele>
        <time>2019-08-03T07:44:27Z</time>
      </trkpt>
      <trkpt lat="42.97597" lon="-0.345">
        <ele>1635.82</ele>
        <time>2019-08-03T07:44:28Z</time>
      </trkpt>
      <trkpt lat="42.97592" lon="-0.34512">
        <ele>1635.34</ele>
        <time>2019-08-03T07:44:29Z</time>
      </trkpt>
      <trkpt lat="42.97585" lon="-0.34521">
        <ele>1634.38</ele>
        <time>2019-08-03T07:44:30Z</time>
      </trkpt>
      <trkpt lat="42.97577" lon="-0.34528">
        <ele>1633.42</ele>
        <time>2019-08-03T07:44:31Z</time>
      </trkpt>
      <trkpt lat="42.97568" lon="-0.34533">
        <ele>1632.46</ele>
        <time>2019-08-03T07:44:32Z</time>
      </trkpt>
      <trkpt lat="42.97558" lon="-0.34534">
        <ele>1631.49</ele>
        <time>2019-08-03T07:44:33Z</time>
      </trkpt>
      <trkpt lat="42.97549" lon="-0.34531">
        <ele>1630.53</ele>
        <time>2019-08-03T07:44:34Z</time>
      </trkpt>
      <trkpt lat="42.97541" lon="-0.34525">
        <ele>1629.57</ele>
        <time>2019-08-03T07:44:35Z</time>
      </trkpt>
      <trkpt lat="42.97534" lon="-0.34516">
        <ele>1629.09</ele>
        <time>2019-08-03T07:44:36Z</time>
      </trkpt>
      <trkpt lat="42.97528" lon="-0.34505">
        <ele>1628.13</ele>
        <time>2019-08-03T07:44:37Z</time>
      </trkpt>
      <trkpt lat="42.97521" lon="-0.34494">
        <ele>1627.17</ele>
        <time>2019-08-03T07:44:38Z</time>
      </trkpt>
      <trkpt lat="42.97514" lon="-0.34483">
        <ele>1625.73</ele>
        <time>2019-08-03T07:44:39Z</time>
      </trkpt>
      <trkpt lat="42.97506" lon="-0.34474">
        <ele>1624.77</ele>
        <time>2019-08-03T07:44:40Z</time>
      </trkpt>
      <trkpt lat="42.97497" lon="-0.34465">
        <ele>1623.8</ele>
        <time>2019-08-03T07:44:41Z</time>
      </trkpt>
      <trkpt lat="42.97472" lon="-0.34447">
        <ele>1620.92</ele>
        <time>2019-08-03T07:44:44Z</time>
      </trkpt>
      <trkpt lat="42.97464" lon="-0.34444">
        <ele>1619.96</ele>
        <time>2019-08-03T07:44:45Z</time>
      </trkpt>
      <trkpt lat="42.97456" lon="-0.34444">
        <ele>1619</ele>
        <time>2019-08-03T07:44:46Z</time>
      </trkpt>
      <trkpt lat="42.97448" lon="-0.34446">
        <ele>1618.04</ele>
        <time>2019-08-03T07:44:47Z</time>
      </trkpt>
      <trkpt lat="42.9744" lon="-0.3445">
        <ele>1617.07</ele>
        <time>2019-08-03T07:44:48Z</time>
      </trkpt>
      <trkpt lat="42.97434" lon="-0.34457">
        <ele>1616.59</ele>
        <time>2019-08-03T07:44:49Z</time>
      </trkpt>
      <trkpt lat="42.97429" lon="-0.34466">
        <ele>1616.11</ele>
        <time>2019-08-03T07:44:50Z</time>
      </trkpt>
      <trkpt lat="42.97425" lon="-0.34477">
        <ele>1615.63</ele>
        <time>2019-08-03T07:44:51Z</time>
      </trkpt>
      <trkpt lat="42.97421" lon="-0.34489">
        <ele>1614.67</ele>
        <time>2019-08-03T07:44:52Z</time>
      </trkpt>
      <trkpt lat="42.97413" lon="-0.34512">
        <ele>1612.27</ele>
        <time>2019-08-03T07:44:54Z</time>
      </trkpt>
      <trkpt lat="42.97406" lon="-0.34521">
        <ele>1611.79</ele>
        <time>2019-08-03T07:44:55Z</time>
      </trkpt>
      <trkpt lat="42.97398" lon="-0.34527">
        <ele>1610.83</ele>
        <time>2019-08-03T07:44:56Z</time>
      </trkpt>
      <trkpt lat="42.9739" lon="-0.34531">
        <ele>1609.86</ele>
        <time>2019-08-03T07:44:57Z</time>
      </trkpt>
      <trkpt lat="42.97382" lon="-0.34535">
        <ele>1608.9</ele>
        <time>2019-08-03T07:44:58Z</time>
      </trkpt>
      <trkpt lat="42.97374" lon="-0.34541">
        <ele>1607.94</ele>
        <time>2019-08-03T07:44:59Z</time>
      </trkpt>
      <trkpt lat="42.97369" lon="-0.34548">
        <ele>1607.46</ele>
        <time>2019-08-03T07:45:00Z</time>
      </trkpt>
      <trkpt lat="42.97366" lon="-0.3456">
        <ele>1606.5</ele>
        <time>2019-08-03T07:45:01Z</time>
      </trkpt>
      <trkpt lat="42.97365" lon="-0.34573">
        <ele>1605.54</ele>
        <time>2019-08-03T07:45:02Z</time>
      </trkpt>
      <trkpt lat="42.97366" lon="-0.34587">
        <ele>1605.06</ele>
        <time>2019-08-03T07:45:03Z</time>
      </trkpt>
      <trkpt lat="42.97368" lon="-0.34601">
        <ele>1604.1</ele>
        <time>2019-08-03T07:45:04Z</time>
      </trkpt>
      <trkpt lat="42.97369" lon="-0.34614">
        <ele>1603.14</ele>
        <time>2019-08-03T07:45:05Z</time>
      </trkpt>
      <trkpt lat="42.97369" lon="-0.34625">
        <ele>1601.69</ele>
        <time>2019-08-03T07:45:06Z</time>
      </trkpt>
      <trkpt lat="42.97365" lon="-0.34636">
        <ele>1600.73</ele>
        <time>2019-08-03T07:45:07Z</time>
      </trkpt>
      <trkpt lat="42.97359" lon="-0.34644">
        <ele>1599.77</ele>
        <time>2019-08-03T07:45:08Z</time>
      </trkpt>
      <trkpt lat="42.97351" lon="-0.3465">
        <ele>1598.81</ele>
        <time>2019-08-03T07:45:09Z</time>
      </trkpt>
      <trkpt lat="42.97342" lon="-0.34653">
        <ele>1597.85</ele>
        <time>2019-08-03T07:45:10Z</time>
      </trkpt>
      <trkpt lat="42.97331" lon="-0.34653">
        <ele>1596.89</ele>
        <time>2019-08-03T07:45:11Z</time>
      </trkpt>
      <trkpt lat="42.9732" lon="-0.34652">
        <ele>1595.93</ele>
        <time>2019-08-03T07:45:12Z</time>
      </trkpt>
      <trkpt lat="42.9728" lon="-0.34644">
        <ele>1591.6</ele>
        <time>2019-08-03T07:45:16Z</time>
      </trkpt>
      <trkpt lat="42.97273" lon="-0.34639">
        <ele>1590.64</ele>
        <time>2019-08-03T07:45:17Z</time>
      </trkpt>
      <trkpt lat="42.97268" lon="-0.34632">
        <ele>1590.16</ele>
        <time>2019-08-03T07:45:18Z</time>
      </trkpt>
      <trkpt lat="42.97264" lon="-0.34622">
        <ele>1589.2</ele>
        <time>2019-08-03T07:45:19Z</time>
      </trkpt>
      <trkpt lat="42.97262" lon="-0.34612">
        <ele>1588.24</ele>
        <time>2019-08-03T07:45:20Z</time>
      </trkpt>
      <trkpt lat="42.9726" lon="-0.34601">
        <ele>1587.27</ele>
        <time>2019-08-03T07:45:21Z</time>
      </trkpt>
      <trkpt lat="42.97256" lon="-0.34591">
        <ele>1586.31</ele>
        <time>2019-08-03T07:45:22Z</time>
      </trkpt>
      <trkpt lat="42.9725" lon="-0.34583">
        <ele>1585.35</ele>
        <time>2019-08-03T07:45:23Z</time>
      </trkpt>
      <trkpt lat="42.97242" lon="-0.34578">
        <ele>1583.91</ele>
        <time>2019-08-03T07:45:24Z</time>
      </trkpt>
      <trkpt lat="42.97234" lon="-0.34577">
        <ele>1583.43</ele>
        <time>2019-08-03T07:45:25Z</time>
      </trkpt>
      <trkpt lat="42.97224" lon="-0.34577">
        <ele>1582.47</ele>
        <time>2019-08-03T07:45:26Z</time>
      </trkpt>
      <trkpt lat="42.97208" lon="-0.34577">
        <ele>1581.03</ele>
        <time>2019-08-03T07:45:28Z</time>
      </trkpt>
      <trkpt lat="42.972" lon="-0.34579">
        <ele>1580.06</ele>
        <time>2019-08-03T07:45:29Z</time>
      </trkpt>
      <trkpt lat="42.97194" lon="-0.34585">
        <ele>1579.1</ele>
        <time>2019-08-03T07:45:30Z</time>
      </trkpt>
      <trkpt lat="42.97189" lon="-0.34593">
        <ele>1577.66</ele>
        <time>2019-08-03T07:45:31Z</time>
      </trkpt>
      <trkpt lat="42.97187" lon="-0.34604">
        <ele>1576.7</ele>
        <time>2019-08-03T07:45:32Z</time>
      </trkpt>
      <trkpt lat="42.97186" lon="-0.34617">
        <ele>1575.74</ele>
        <time>2019-08-03T07:45:33Z</time>
      </trkpt>
      <trkpt lat="42.97186" lon="-0.34629">
        <ele>1574.78</ele>
        <time>2019-08-03T07:45:34Z</time>
      </trkpt>
      <trkpt lat="42.97183" lon="-0.34672">
        <ele>1572.37</ele>
        <time>2019-08-03T07:45:38Z</time>
      </trkpt>
      <trkpt lat="42.97179" lon="-0.34678">
        <ele>1571.41</ele>
        <time>2019-08-03T07:45:39Z</time>
      </trkpt>
      <trkpt lat="42.97174" lon="-0.34681">
        <ele>1570.93</ele>
        <time>2019-08-03T07:45:40Z</time>
      </trkpt>
      <trkpt lat="42.97167" lon="-0.3468">
        <ele>1570.45</ele>
        <time>2019-08-03T07:45:41Z</time>
      </trkpt>
      <trkpt lat="42.97162" lon="-0.34675">
        <ele>1569.97</ele>
        <time>2019-08-03T07:45:42Z</time>
      </trkpt>
      <trkpt lat="42.97158" lon="-0.34668">
        <ele>1569.49</ele>
        <time>2019-08-03T07:45:43Z</time>
      </trkpt>
      <trkpt lat="42.97157" lon="-0.34658">
        <ele>1569.01</ele>
        <time>2019-08-03T07:45:44Z</time>
      </trkpt>
      <trkpt lat="42.97156" lon="-0.34648">
        <ele>1568.53</ele>
        <time>2019-08-03T07:45:45Z</time>
      </trkpt>
      <trkpt lat="42.97155" lon="-0.34636">
        <ele>1568.05</ele>
        <time>2019-08-03T07:45:46Z</time>
      </trkpt>
      <trkpt lat="42.97154" lon="-0.34625">
        <ele>1567.57</ele>
        <time>2019-08-03T07:45:47Z</time>
      </trkpt>
      <trkpt lat="42.97152" lon="-0.34613">
        <ele>1567.09</ele>
        <time>2019-08-03T07:45:48Z</time>
      </trkpt>
      <trkpt lat="42.97146" lon="-0.34589">
        <ele>1565.64</ele>
        <time>2019-08-03T07:45:50Z</time>
      </trkpt>
      <trkpt lat="42.97141" lon="-0.34579">
        <ele>1565.16</ele>
        <time>2019-08-03T07:45:51Z</time>
      </trkpt>
      <trkpt lat="42.97133" lon="-0.34571">
        <ele>1564.2</ele>
        <time>2019-08-03T07:45:52Z</time>
      </trkpt>
      <trkpt lat="42.97124" lon="-0.34565">
        <ele>1563.24</ele>
        <time>2019-08-03T07:45:53Z</time>
      </trkpt>
      <trkpt lat="42.97114" lon="-0.34559">
        <ele>1562.28</ele>
        <time>2019-08-03T07:45:54Z</time>
      </trkpt>
      <trkpt lat="42.97086" lon="-0.34537">
        <ele>1558.92</ele>
        <time>2019-08-03T07:45:57Z</time>
      </trkpt>
      <trkpt lat="42.97079" lon="-0.34527">
        <ele>1557.95</ele>
        <time>2019-08-03T07:45:58Z</time>
      </trkpt>
      <trkpt lat="42.97074" lon="-0.34514">
        <ele>1556.99</ele>
        <time>2019-08-03T07:45:59Z</time>
      </trkpt>
      <trkpt lat="42.97063" lon="-0.34486">
        <ele>1555.07</ele>
        <time>2019-08-03T07:46:01Z</time>
      </trkpt>
      <trkpt lat="42.97022" lon="-0.34407">
        <ele>1548.34</ele>
        <time>2019-08-03T07:46:07Z</time>
      </trkpt>
      <trkpt lat="42.97015" lon="-0.34399">
        <ele>1547.38</ele>
        <time>2019-08-03T07:46:08Z</time>
      </trkpt>
      <trkpt lat="42.97007" lon="-0.34392">
        <ele>1545.94</ele>
        <time>2019-08-03T07:46:09Z</time>
      </trkpt>
      <trkpt lat="42.96987" lon="-0.34373">
        <ele>1543.53</ele>
        <time>2019-08-03T07:46:12Z</time>
      </trkpt>
      <trkpt lat="42.96983" lon="-0.34363">
        <ele>1542.57</ele>
        <time>2019-08-03T07:46:13Z</time>
      </trkpt>
      <trkpt lat="42.96981" lon="-0.34352">
        <ele>1541.61</ele>
        <time>2019-08-03T07:46:14Z</time>
      </trkpt>
      <trkpt lat="42.96981" lon="-0.34339">
        <ele>1540.65</ele>
        <time>2019-08-03T07:46:15Z</time>
      </trkpt>
      <trkpt lat="42.96982" lon="-0.34326">
        <ele>1539.69</ele>
        <time>2019-08-03T07:46:16Z</time>
      </trkpt>
      <trkpt lat="42.96984" lon="-0.34312">
        <ele>1538.73</ele>
        <time>2019-08-03T07:46:17Z</time>
      </trkpt>
      <trkpt lat="42.96986" lon="-0.34298">
        <ele>1537.77</ele>
        <time>2019-08-03T07:46:18Z</time>
      </trkpt>
      <trkpt lat="42.96986" lon="-0.34283">
        <ele>1536.8</ele>
        <time>2019-08-03T07:46:19Z</time>
      </trkpt>
      <trkpt lat="42.96983" lon="-0.34269">
        <ele>1536.32</ele>
        <time>2019-08-03T07:46:20Z</time>
      </trkpt>
      <trkpt lat="42.96979" lon="-0.34255">
        <ele>1535.36</ele>
        <time>2019-08-03T07:46:21Z</time>
      </trkpt>
      <trkpt lat="42.96973" lon="-0.3424">
        <ele>1533.92</ele>
        <time>2019-08-03T07:46:22Z</time>
      </trkpt>
      <trkpt lat="42.96928" lon="-0.34144">
        <ele>1524.79</ele>
        <time>2019-08-03T07:46:29Z</time>
      </trkpt>
      <trkpt lat="42.96925" lon="-0.34134">
        <ele>1523.83</ele>
        <time>2019-08-03T07:46:30Z</time>
      </trkpt>
      <trkpt lat="42.96925" lon="-0.34123">
        <ele>1522.87</ele>
        <time>2019-08-03T07:46:31Z</time>
      </trkpt>
      <trkpt lat="42.96927" lon="-0.34113">
        <ele>1522.39</ele>
        <time>2019-08-03T07:46:32Z</time>
      </trkpt>
      <trkpt lat="42.96931" lon="-0.34101">
        <ele>1521.42</ele>
        <time>2019-08-03T07:46:33Z</time>
      </trkpt>
      <trkpt lat="42.96936" lon="-0.34091">
        <ele>1520.46</ele>
        <time>2019-08-03T07:46:34Z</time>
      </trkpt>
      <trkpt lat="42.9694" lon="-0.3408">
        <ele>1519.02</ele>
        <time>2019-08-03T07:46:35Z</time>
      </trkpt>
      <trkpt lat="42.96941" lon="-0.34069">
        <ele>1518.06</ele>
        <time>2019-08-03T07:46:36Z</time>
      </trkpt>
      <trkpt lat="42.9694" lon="-0.34057">
        <ele>1517.1</ele>
        <time>2019-08-03T07:46:37Z</time>
      </trkpt>
      <trkpt lat="42.96934" lon="-0.34045">
        <ele>1516.14</ele>
        <time>2019-08-03T07:46:38Z</time>
      </trkpt>
      <trkpt lat="42.96929" lon="-0.34033">
        <ele>1515.18</ele>
        <time>2019-08-03T07:46:39Z</time>
      </trkpt>
      <trkpt lat="42.96925" lon="-0.3402">
        <ele>1514.21</ele>
        <time>2019-08-03T07:46:40Z</time>
      </trkpt>
      <trkpt lat="42.96921" lon="-0.34006">
        <ele>1513.25</ele>
        <time>2019-08-03T07:46:41Z</time>
      </trkpt>
      <trkpt lat="42.96901" lon="-0.33927">
        <ele>1507.97</ele>
        <time>2019-08-03T07:46:46Z</time>
      </trkpt>
      <trkpt lat="42.96899" lon="-0.33909">
        <ele>1506.52</ele>
        <time>2019-08-03T07:46:47Z</time>
      </trkpt>
      <trkpt lat="42.96898" lon="-0.3389">
        <ele>1505.56</ele>
        <time>2019-08-03T07:46:48Z</time>
      </trkpt>
      <trkpt lat="42.96895" lon="-0.33871">
        <ele>1504.12</ele>
        <time>2019-08-03T07:46:49Z</time>
      </trkpt>
      <trkpt lat="42.96891" lon="-0.33853">
        <ele>1502.2</ele>
        <time>2019-08-03T07:46:50Z</time>
      </trkpt>
      <trkpt lat="42.96883" lon="-0.33805">
        <ele>1497.87</ele>
        <time>2019-08-03T07:46:53Z</time>
      </trkpt>
      <trkpt lat="42.96883" lon="-0.33791">
        <ele>1496.91</ele>
        <time>2019-08-03T07:46:54Z</time>
      </trkpt>
      <trkpt lat="42.96885" lon="-0.33779">
        <ele>1495.47</ele>
        <time>2019-08-03T07:46:55Z</time>
      </trkpt>
      <trkpt lat="42.96887" lon="-0.33768">
        <ele>1494.51</ele>
        <time>2019-08-03T07:46:56Z</time>
      </trkpt>
      <trkpt lat="42.9689" lon="-0.33757">
        <ele>1493.06</ele>
        <time>2019-08-03T07:46:57Z</time>
      </trkpt>
      <trkpt lat="42.9689" lon="-0.33746">
        <ele>1492.1</ele>
        <time>2019-08-03T07:46:58Z</time>
      </trkpt>
      <trkpt lat="42.96887" lon="-0.33736">
        <ele>1491.14</ele>
        <time>2019-08-03T07:46:59Z</time>
      </trkpt>
      <trkpt lat="42.96884" lon="-0.33726">
        <ele>1490.18</ele>
        <time>2019-08-03T07:47:00Z</time>
      </trkpt>
      <trkpt lat="42.96882" lon="-0.33716">
        <ele>1489.22</ele>
        <time>2019-08-03T07:47:01Z</time>
      </trkpt>
      <trkpt lat="42.96884" lon="-0.33706">
        <ele>1488.26</ele>
        <time>2019-08-03T07:47:02Z</time>
      </trkpt>
      <trkpt lat="42.96886" lon="-0.33695">
        <ele>1487.3</ele>
        <time>2019-08-03T07:47:03Z</time>
      </trkpt>
      <trkpt lat="42.96888" lon="-0.33685">
        <ele>1486.34</ele>
        <time>2019-08-03T07:47:04Z</time>
      </trkpt>
      <trkpt lat="42.96886" lon="-0.33676">
        <ele>1485.37</ele>
        <time>2019-08-03T07:47:05Z</time>
      </trkpt>
      <trkpt lat="42.96882" lon="-0.33668">
        <ele>1484.41</ele>
        <time>2019-08-03T07:47:06Z</time>
      </trkpt>
      <trkpt lat="42.96875" lon="-0.33664">
        <ele>1483.45</ele>
        <time>2019-08-03T07:47:07Z</time>
      </trkpt>
      <trkpt lat="42.96867" lon="-0.33661">
        <ele>1483.45</ele>
        <time>2019-08-03T07:47:08Z</time>
      </trkpt>
      <trkpt lat="42.96858" lon="-0.33658">
        <ele>1483.45</ele>
        <time>2019-08-03T07:47:09Z</time>
      </trkpt>
      <trkpt lat="42.96849" lon="-0.33656">
        <ele>1483.45</ele>
        <time>2019-08-03T07:47:10Z</time>
      </trkpt>
      <trkpt lat="42.96839" lon="-0.33654">
        <ele>1482.97</ele>
        <time>2019-08-03T07:47:11Z</time>
      </trkpt>
      <trkpt lat="42.96828" lon="-0.33648">
        <ele>1482.97</ele>
        <time>2019-08-03T07:47:12Z</time>
      </trkpt>
      <trkpt lat="42.96819" lon="-0.33641">
        <ele>1482.01</ele>
        <time>2019-08-03T07:47:13Z</time>
      </trkpt>
      <trkpt lat="42.9681" lon="-0.33632">
        <ele>1481.53</ele>
        <time>2019-08-03T07:47:14Z</time>
      </trkpt>
      <trkpt lat="42.96803" lon="-0.33623">
        <ele>1480.57</ele>
        <time>2019-08-03T07:47:15Z</time>
      </trkpt>
      <trkpt lat="42.96798" lon="-0.33613">
        <ele>1479.61</ele>
        <time>2019-08-03T07:47:16Z</time>
      </trkpt>
      <trkpt lat="42.96793" lon="-0.33604">
        <ele>1478.65</ele>
        <time>2019-08-03T07:47:17Z</time>
      </trkpt>
      <trkpt lat="42.96784" lon="-0.33596">
        <ele>1477.68</ele>
        <time>2019-08-03T07:47:18Z</time>
      </trkpt>
      <trkpt lat="42.96775" lon="-0.33592">
        <ele>1477.2</ele>
        <time>2019-08-03T07:47:19Z</time>
      </trkpt>
      <trkpt lat="42.96765" lon="-0.33588">
        <ele>1476.24</ele>
        <time>2019-08-03T07:47:20Z</time>
      </trkpt>
      <trkpt lat="42.96755" lon="-0.33583">
        <ele>1475.28</ele>
        <time>2019-08-03T07:47:21Z</time>
      </trkpt>
      <trkpt lat="42.96745" lon="-0.33575">
        <ele>1474.32</ele>
        <time>2019-08-03T07:47:22Z</time>
      </trkpt>
      <trkpt lat="42.96735" lon="-0.33567">
        <ele>1472.88</ele>
        <time>2019-08-03T07:47:23Z</time>
      </trkpt>
      <trkpt lat="42.96723" lon="-0.33562">
        <ele>1472.4</ele>
        <time>2019-08-03T07:47:24Z</time>
      </trkpt>
      <trkpt lat="42.96712" lon="-0.33559">
        <ele>1472.4</ele>
        <time>2019-08-03T07:47:25Z</time>
      </trkpt>
      <trkpt lat="42.96699" lon="-0.33557">
        <ele>1472.4</ele>
        <time>2019-08-03T07:47:26Z</time>
      </trkpt>
      <trkpt lat="42.96689" lon="-0.33554">
        <ele>1472.4</ele>
        <time>2019-08-03T07:47:27Z</time>
      </trkpt>
      <trkpt lat="42.96659" lon="-0.33539">
        <ele>1470.95</ele>
        <time>2019-08-03T07:47:30Z</time>
      </trkpt>
      <trkpt lat="42.96651" lon="-0.33532">
        <ele>1470.47</ele>
        <time>2019-08-03T07:47:31Z</time>
      </trkpt>
      <trkpt lat="42.96645" lon="-0.33524">
        <ele>1469.99</ele>
        <time>2019-08-03T07:47:32Z</time>
      </trkpt>
      <trkpt lat="42.96642" lon="-0.33515">
        <ele>1469.03</ele>
        <time>2019-08-03T07:47:33Z</time>
      </trkpt>
      <trkpt lat="42.96639" lon="-0.33504">
        <ele>1468.55</ele>
        <time>2019-08-03T07:47:34Z</time>
      </trkpt>
      <trkpt lat="42.96638" lon="-0.33492">
        <ele>1467.59</ele>
        <time>2019-08-03T07:47:35Z</time>
      </trkpt>
      <trkpt lat="42.96637" lon="-0.3348">
        <ele>1467.11</ele>
        <time>2019-08-03T07:47:36Z</time>
      </trkpt>
      <trkpt lat="42.96634" lon="-0.33468">
        <ele>1466.15</ele>
        <time>2019-08-03T07:47:37Z</time>
      </trkpt>
      <trkpt lat="42.9663" lon="-0.33457">
        <ele>1465.67</ele>
        <time>2019-08-03T07:47:38Z</time>
      </trkpt>
      <trkpt lat="42.96625" lon="-0.33447">
        <ele>1464.71</ele>
        <time>2019-08-03T07:47:39Z</time>
      </trkpt>
      <trkpt lat="42.96618" lon="-0.33438">
        <ele>1464.23</ele>
        <time>2019-08-03T07:47:40Z</time>
      </trkpt>
      <trkpt lat="42.96609" lon="-0.33434">
        <ele>1463.74</ele>
        <time>2019-08-03T07:47:41Z</time>
      </trkpt>
      <trkpt lat="42.966" lon="-0.33434">
        <ele>1463.74</ele>
        <time>2019-08-03T07:47:42Z</time>
      </trkpt>
      <trkpt lat="42.9659" lon="-0.33436">
        <ele>1463.74</ele>
        <time>2019-08-03T07:47:43Z</time>
      </trkpt>
      <trkpt lat="42.9658" lon="-0.33439">
        <ele>1463.26</ele>
        <time>2019-08-03T07:47:44Z</time>
      </trkpt>
      <trkpt lat="42.96571" lon="-0.33441">
        <ele>1463.26</ele>
        <time>2019-08-03T07:47:45Z</time>
      </trkpt>
      <trkpt lat="42.96562" lon="-0.33439">
        <ele>1462.3</ele>
        <time>2019-08-03T07:47:46Z</time>
      </trkpt>
      <trkpt lat="42.96554" lon="-0.33434">
        <ele>1461.82</ele>
        <time>2019-08-03T07:47:47Z</time>
      </trkpt>
      <trkpt lat="42.96544" lon="-0.33428">
        <ele>1460.38</ele>
        <time>2019-08-03T07:47:48Z</time>
      </trkpt>
      <trkpt lat="42.96537" lon="-0.33419">
        <ele>1459.9</ele>
        <time>2019-08-03T07:47:49Z</time>
      </trkpt>
      <trkpt lat="42.96533" lon="-0.33407">
        <ele>1458.94</ele>
        <time>2019-08-03T07:47:50Z</time>
      </trkpt>
      <trkpt lat="42.96529" lon="-0.33393">
        <ele>1457.98</ele>
        <time>2019-08-03T07:47:51Z</time>
      </trkpt>
      <trkpt lat="42.96511" lon="-0.33333">
        <ele>1454.13</ele>
        <time>2019-08-03T07:47:55Z</time>
      </trkpt>
      <trkpt lat="42.96508" lon="-0.33316">
        <ele>1453.17</ele>
        <time>2019-08-03T07:47:56Z</time>
      </trkpt>
      <trkpt lat="42.96504" lon="-0.33284">
        <ele>1450.77</ele>
        <time>2019-08-03T07:47:58Z</time>
      </trkpt>
      <trkpt lat="42.96498" lon="-0.33257">
        <ele>1448.36</ele>
        <time>2019-08-03T07:48:00Z</time>
      </trkpt>
      <trkpt lat="42.96495" lon="-0.33235">
        <ele>1445.96</ele>
        <time>2019-08-03T07:48:02Z</time>
      </trkpt>
      <trkpt lat="42.96492" lon="-0.33225">
        <ele>1445.48</ele>
        <time>2019-08-03T07:48:03Z</time>
      </trkpt>
      <trkpt lat="42.96487" lon="-0.33214">
        <ele>1445</ele>
        <time>2019-08-03T07:48:04Z</time>
      </trkpt>
      <trkpt lat="42.96481" lon="-0.33204">
        <ele>1444.04</ele>
        <time>2019-08-03T07:48:05Z</time>
      </trkpt>
      <trkpt lat="42.96474" lon="-0.33194">
        <ele>1443.08</ele>
        <time>2019-08-03T07:48:06Z</time>
      </trkpt>
      <trkpt lat="42.96466" lon="-0.33185">
        <ele>1442.6</ele>
        <time>2019-08-03T07:48:07Z</time>
      </trkpt>
      <trkpt lat="42.96458" lon="-0.33176">
        <ele>1442.11</ele>
        <time>2019-08-03T07:48:08Z</time>
      </trkpt>
      <trkpt lat="42.9645" lon="-0.33166">
        <ele>1441.15</ele>
        <time>2019-08-03T07:48:09Z</time>
      </trkpt>
      <trkpt lat="42.96443" lon="-0.33158">
        <ele>1440.67</ele>
        <time>2019-08-03T07:48:10Z</time>
      </trkpt>
      <trkpt lat="42.96433" lon="-0.33152">
        <ele>1439.71</ele>
        <time>2019-08-03T07:48:11Z</time>
      </trkpt>
      <trkpt lat="42.96423" lon="-0.33147">
        <ele>1438.75</ele>
        <time>2019-08-03T07:48:12Z</time>
      </trkpt>
      <trkpt lat="42.96359" lon="-0.33117">
        <ele>1432.5</ele>
        <time>2019-08-03T07:48:18Z</time>
      </trkpt>
      <trkpt lat="42.96352" lon="-0.33111">
        <ele>1431.54</ele>
        <time>2019-08-03T07:48:19Z</time>
      </trkpt>
      <trkpt lat="42.96346" lon="-0.33103">
        <ele>1430.58</ele>
        <time>2019-08-03T07:48:20Z</time>
      </trkpt>
      <trkpt lat="42.96341" lon="-0.33092">
        <ele>1429.14</ele>
        <time>2019-08-03T07:48:21Z</time>
      </trkpt>
      <trkpt lat="42.96336" lon="-0.33081">
        <ele>1428.18</ele>
        <time>2019-08-03T07:48:22Z</time>
      </trkpt>
      <trkpt lat="42.96325" lon="-0.33058">
        <ele>1425.77</ele>
        <time>2019-08-03T07:48:24Z</time>
      </trkpt>
      <trkpt lat="42.96317" lon="-0.33049">
        <ele>1424.81</ele>
        <time>2019-08-03T07:48:25Z</time>
      </trkpt>
      <trkpt lat="42.96306" lon="-0.33043">
        <ele>1423.37</ele>
        <time>2019-08-03T07:48:26Z</time>
      </trkpt>
      <trkpt lat="42.96296" lon="-0.33039">
        <ele>1422.41</ele>
        <time>2019-08-03T07:48:27Z</time>
      </trkpt>
      <trkpt lat="42.96285" lon="-0.33039">
        <ele>1420.97</ele>
        <time>2019-08-03T07:48:28Z</time>
      </trkpt>
      <trkpt lat="42.96272" lon="-0.33041">
        <ele>1419.52</ele>
        <time>2019-08-03T07:48:29Z</time>
      </trkpt>
      <trkpt lat="42.96261" lon="-0.33047">
        <ele>1418.56</ele>
        <time>2019-08-03T07:48:30Z</time>
      </trkpt>
      <trkpt lat="42.9625" lon="-0.33052">
        <ele>1417.6</ele>
        <time>2019-08-03T07:48:31Z</time>
      </trkpt>
      <trkpt lat="42.96214" lon="-0.33069">
        <ele>1414.72</ele>
        <time>2019-08-03T07:48:34Z</time>
      </trkpt>
      <trkpt lat="42.96202" lon="-0.33076">
        <ele>1414.72</ele>
        <time>2019-08-03T07:48:35Z</time>
      </trkpt>
      <trkpt lat="42.96179" lon="-0.33091">
        <ele>1414.24</ele>
        <time>2019-08-03T07:48:37Z</time>
      </trkpt>
      <trkpt lat="42.96136" lon="-0.33109">
        <ele>1411.83</ele>
        <time>2019-08-03T07:48:41Z</time>
      </trkpt>
      <trkpt lat="42.96126" lon="-0.33109">
        <ele>1410.87</ele>
        <time>2019-08-03T07:48:42Z</time>
      </trkpt>
      <trkpt lat="42.96107" lon="-0.33109">
        <ele>1408.95</ele>
        <time>2019-08-03T07:48:44Z</time>
      </trkpt>
      <trkpt lat="42.96097" lon="-0.33114">
        <ele>1407.99</ele>
        <time>2019-08-03T07:48:45Z</time>
      </trkpt>
      <trkpt lat="42.96079" lon="-0.33123">
        <ele>1405.58</ele>
        <time>2019-08-03T07:48:47Z</time>
      </trkpt>
      <trkpt lat="42.96069" lon="-0.33125">
        <ele>1404.14</ele>
        <time>2019-08-03T07:48:48Z</time>
      </trkpt>
      <trkpt lat="42.96051" lon="-0.33129">
        <ele>1400.78</ele>
        <time>2019-08-03T07:48:50Z</time>
      </trkpt>
      <trkpt lat="42.96042" lon="-0.33136">
        <ele>1399.34</ele>
        <time>2019-08-03T07:48:51Z</time>
      </trkpt>
      <trkpt lat="42.96033" lon="-0.33145">
        <ele>1397.89</ele>
        <time>2019-08-03T07:48:52Z</time>
      </trkpt>
      <trkpt lat="42.96025" lon="-0.33153">
        <ele>1396.45</ele>
        <time>2019-08-03T07:48:53Z</time>
      </trkpt>
      <trkpt lat="42.96018" lon="-0.33162">
        <ele>1395.49</ele>
        <time>2019-08-03T07:48:54Z</time>
      </trkpt>
      <trkpt lat="42.95998" lon="-0.33185">
        <ele>1392.13</ele>
        <time>2019-08-03T07:48:57Z</time>
      </trkpt>
      <trkpt lat="42.95994" lon="-0.33192">
        <ele>1390.68</ele>
        <time>2019-08-03T07:48:58Z</time>
      </trkpt>
      <trkpt lat="42.95992" lon="-0.33203">
        <ele>1389.72</ele>
        <time>2019-08-03T07:48:59Z</time>
      </trkpt>
      <trkpt lat="42.95988" lon="-0.33224">
        <ele>1387.32</ele>
        <time>2019-08-03T07:49:01Z</time>
      </trkpt>
      <trkpt lat="42.95984" lon="-0.33234">
        <ele>1386.36</ele>
        <time>2019-08-03T07:49:02Z</time>
      </trkpt>
      <trkpt lat="42.95979" lon="-0.33243">
        <ele>1385.4</ele>
        <time>2019-08-03T07:49:03Z</time>
      </trkpt>
      <trkpt lat="42.95972" lon="-0.3325">
        <ele>1384.44</ele>
        <time>2019-08-03T07:49:04Z</time>
      </trkpt>
      <trkpt lat="42.95964" lon="-0.33256">
        <ele>1382.99</ele>
        <time>2019-08-03T07:49:05Z</time>
      </trkpt>
      <trkpt lat="42.95954" lon="-0.33259">
        <ele>1382.03</ele>
        <time>2019-08-03T07:49:06Z</time>
      </trkpt>
      <trkpt lat="42.95945" lon="-0.3326">
        <ele>1381.07</ele>
        <time>2019-08-03T07:49:07Z</time>
      </trkpt>
      <trkpt lat="42.95935" lon="-0.33261">
        <ele>1380.11</ele>
        <time>2019-08-03T07:49:08Z</time>
      </trkpt>
      <trkpt lat="42.95926" lon="-0.3326">
        <ele>1378.67</ele>
        <time>2019-08-03T07:49:09Z</time>
      </trkpt>
      <trkpt lat="42.95917" lon="-0.3326">
        <ele>1377.71</ele>
        <time>2019-08-03T07:49:10Z</time>
      </trkpt>
      <trkpt lat="42.95907" lon="-0.33261">
        <ele>1376.26</ele>
        <time>2019-08-03T07:49:11Z</time>
      </trkpt>
      <trkpt lat="42.959" lon="-0.33264">
        <ele>1374.82</ele>
        <time>2019-08-03T07:49:12Z</time>
      </trkpt>
      <trkpt lat="42.95883" lon="-0.33267">
        <ele>1372.42</ele>
        <time>2019-08-03T07:49:14Z</time>
      </trkpt>
      <trkpt lat="42.95873" lon="-0.33266">
        <ele>1370.98</ele>
        <time>2019-08-03T07:49:15Z</time>
      </trkpt>
      <trkpt lat="42.95867" lon="-0.33264">
        <ele>1369.54</ele>
        <time>2019-08-03T07:49:16Z</time>
      </trkpt>
      <trkpt lat="42.9586" lon="-0.33257">
        <ele>1368.09</ele>
        <time>2019-08-03T07:49:17Z</time>
      </trkpt>
      <trkpt lat="42.95853" lon="-0.33249">
        <ele>1366.17</ele>
        <time>2019-08-03T07:49:18Z</time>
      </trkpt>
      <trkpt lat="42.9584" lon="-0.33238">
        <ele>1362.81</ele>
        <time>2019-08-03T07:49:20Z</time>
      </trkpt>
      <trkpt lat="42.95834" lon="-0.33235">
        <ele>1361.36</ele>
        <time>2019-08-03T07:49:21Z</time>
      </trkpt>
      <trkpt lat="42.95828" lon="-0.33234">
        <ele>1359.92</ele>
        <time>2019-08-03T07:49:22Z</time>
      </trkpt>
      <trkpt lat="42.95818" lon="-0.33236">
        <ele>1358</ele>
        <time>2019-08-03T07:49:24Z</time>
      </trkpt>
      <trkpt lat="42.95814" lon="-0.33239">
        <ele>1357.04</ele>
        <time>2019-08-03T07:49:25Z</time>
      </trkpt>
      <trkpt lat="42.95811" lon="-0.33244">
        <ele>1356.08</ele>
        <time>2019-08-03T07:49:26Z</time>
      </trkpt>
      <trkpt lat="42.95809" lon="-0.33251">
        <ele>1355.6</ele>
        <time>2019-08-03T07:49:27Z</time>
      </trkpt>
      <trkpt lat="42.9581" lon="-0.33259">
        <ele>1355.12</ele>
        <time>2019-08-03T07:49:28Z</time>
      </trkpt>
      <trkpt lat="42.95813" lon="-0.33266">
        <ele>1354.63</ele>
        <time>2019-08-03T07:49:29Z</time>
      </trkpt>
      <trkpt lat="42.95817" lon="-0.33272">
        <ele>1354.15</ele>
        <time>2019-08-03T07:49:30Z</time>
      </trkpt>
      <trkpt lat="42.95821" lon="-0.33278">
        <ele>1353.67</ele>
        <time>2019-08-03T07:49:31Z</time>
      </trkpt>
      <trkpt lat="42.95826" lon="-0.33283">
        <ele>1353.67</ele>
        <time>2019-08-03T07:49:32Z</time>
      </trkpt>
      <trkpt lat="42.95831" lon="-0.33287">
        <ele>1353.19</ele>
        <time>2019-08-03T07:49:33Z</time>
      </trkpt>
      <trkpt lat="42.95837" lon="-0.33291">
        <ele>1353.19</ele>
        <time>2019-08-03T07:49:34Z</time>
      </trkpt>
      <trkpt lat="42.95843" lon="-0.33293">
        <ele>1353.19</ele>
        <time>2019-08-03T07:49:35Z</time>
      </trkpt>
      <trkpt lat="42.95849" lon="-0.33295">
        <ele>1353.19</ele>
        <time>2019-08-03T07:49:36Z</time>
      </trkpt>
      <trkpt lat="42.95856" lon="-0.33296">
        <ele>1353.19</ele>
        <time>2019-08-03T07:49:37Z</time>
      </trkpt>
      <trkpt lat="42.95889" lon="-0.33295">
        <ele>1354.15</ele>
        <time>2019-08-03T07:49:42Z</time>
      </trkpt>
      <trkpt lat="42.95922" lon="-0.33291">
        <ele>1357.04</ele>
        <time>2019-08-03T07:49:47Z</time>
      </trkpt>
      <trkpt lat="42.95995" lon="-0.33302">
        <ele>1357.04</ele>
        <time>2019-08-03T07:49:56Z</time>
      </trkpt>
      <trkpt lat="42.96006" lon="-0.333">
        <ele>1357.04</ele>
        <time>2019-08-03T07:49:57Z</time>
      </trkpt>
      <trkpt lat="42.9606" lon="-0.33284">
        <ele>1357.52</ele>
        <time>2019-08-03T07:50:02Z</time>
      </trkpt>
      <trkpt lat="42.9607" lon="-0.33285">
        <ele>1357.04</ele>
        <time>2019-08-03T07:50:03Z</time>
      </trkpt>
      <trkpt lat="42.9608" lon="-0.33288">
        <ele>1357.04</ele>
        <time>2019-08-03T07:50:04Z</time>
      </trkpt>
      <trkpt lat="42.96121" lon="-0.33306">
        <ele>1356.56</ele>
        <time>2019-08-03T07:50:08Z</time>
      </trkpt>
      <trkpt lat="42.96131" lon="-0.33303">
        <ele>1356.56</ele>
        <time>2019-08-03T07:50:09Z</time>
      </trkpt>
      <trkpt lat="42.96139" lon="-0.33297">
        <ele>1356.08</ele>
        <time>2019-08-03T07:50:10Z</time>
      </trkpt>
      <trkpt lat="42.96165" lon="-0.33275">
        <ele>1356.08</ele>
        <time>2019-08-03T07:50:13Z</time>
      </trkpt>
      <trkpt lat="42.96175" lon="-0.3327">
        <ele>1355.6</ele>
        <time>2019-08-03T07:50:14Z</time>
      </trkpt>
      <trkpt lat="42.96186" lon="-0.33267">
        <ele>1355.6</ele>
        <time>2019-08-03T07:50:15Z</time>
      </trkpt>
      <trkpt lat="42.96199" lon="-0.33267">
        <ele>1355.12</ele>
        <time>2019-08-03T07:50:16Z</time>
      </trkpt>
      <trkpt lat="42.96212" lon="-0.33269">
        <ele>1354.63</ele>
        <time>2019-08-03T07:50:17Z</time>
      </trkpt>
      <trkpt lat="42.96236" lon="-0.33269">
        <ele>1353.19</ele>
        <time>2019-08-03T07:50:19Z</time>
      </trkpt>
      <trkpt lat="42.96249" lon="-0.33272">
        <ele>1352.71</ele>
        <time>2019-08-03T07:50:20Z</time>
      </trkpt>
      <trkpt lat="42.96262" lon="-0.33278">
        <ele>1352.71</ele>
        <time>2019-08-03T07:50:21Z</time>
      </trkpt>
      <trkpt lat="42.96275" lon="-0.33286">
        <ele>1352.71</ele>
        <time>2019-08-03T07:50:22Z</time>
      </trkpt>
      <trkpt lat="42.96287" lon="-0.33297">
        <ele>1352.23</ele>
        <time>2019-08-03T07:50:23Z</time>
      </trkpt>
      <trkpt lat="42.963" lon="-0.33309">
        <ele>1351.75</ele>
        <time>2019-08-03T07:50:24Z</time>
      </trkpt>
      <trkpt lat="42.96346" lon="-0.33368">
        <ele>1349.35</ele>
        <time>2019-08-03T07:50:28Z</time>
      </trkpt>
      <trkpt lat="42.96375" lon="-0.33421">
        <ele>1346.94</ele>
        <time>2019-08-03T07:50:31Z</time>
      </trkpt>
      <trkpt lat="42.96382" lon="-0.33439">
        <ele>1345.5</ele>
        <time>2019-08-03T07:50:32Z</time>
      </trkpt>
      <trkpt lat="42.96438" lon="-0.33596">
        <ele>1336.37</ele>
        <time>2019-08-03T07:50:40Z</time>
      </trkpt>
      <trkpt lat="42.96439" lon="-0.3361">
        <ele>1335.89</ele>
        <time>2019-08-03T07:50:41Z</time>
      </trkpt>
      <trkpt lat="42.96436" lon="-0.33722">
        <ele>1335.89</ele>
        <time>2019-08-03T07:50:48Z</time>
      </trkpt>
      <trkpt lat="42.96436" lon="-0.33738">
        <ele>1335.89</ele>
        <time>2019-08-03T07:50:49Z</time>
      </trkpt>
      <trkpt lat="42.9645" lon="-0.33759">
        <ele>1335.89</ele>
        <time>2019-08-03T07:50:51Z</time>
      </trkpt>
      <trkpt lat="42.96456" lon="-0.33772">
        <ele>1335.89</ele>
        <time>2019-08-03T07:50:52Z</time>
      </trkpt>
      <trkpt lat="42.96463" lon="-0.33787">
        <ele>1335.41</ele>
        <time>2019-08-03T07:50:53Z</time>
      </trkpt>
      <trkpt lat="42.96476" lon="-0.33846">
        <ele>1333.97</ele>
        <time>2019-08-03T07:50:56Z</time>
      </trkpt>
      <trkpt lat="42.96474" lon="-0.33866">
        <ele>1333.49</ele>
        <time>2019-08-03T07:50:57Z</time>
      </trkpt>
      <trkpt lat="42.96474" lon="-0.33903">
        <ele>1332.52</ele>
        <time>2019-08-03T07:50:59Z</time>
      </trkpt>
      <trkpt lat="42.96477" lon="-0.33921">
        <ele>1332.04</ele>
        <time>2019-08-03T07:51:00Z</time>
      </trkpt>
      <trkpt lat="42.96481" lon="-0.3394">
        <ele>1332.04</ele>
        <time>2019-08-03T07:51:01Z</time>
      </trkpt>
      <trkpt lat="42.96484" lon="-0.33961">
        <ele>1331.08</ele>
        <time>2019-08-03T07:51:02Z</time>
      </trkpt>
      <trkpt lat="42.96486" lon="-0.33981">
        <ele>1330.6</ele>
        <time>2019-08-03T07:51:03Z</time>
      </trkpt>
      <trkpt lat="42.96489" lon="-0.34002">
        <ele>1330.6</ele>
        <time>2019-08-03T07:51:04Z</time>
      </trkpt>
      <trkpt lat="42.96494" lon="-0.34022">
        <ele>1330.12</ele>
        <time>2019-08-03T07:51:05Z</time>
      </trkpt>
      <trkpt lat="42.96504" lon="-0.34062">
        <ele>1329.16</ele>
        <time>2019-08-03T07:51:07Z</time>
      </trkpt>
      <trkpt lat="42.96507" lon="-0.34083">
        <ele>1329.16</ele>
        <time>2019-08-03T07:51:08Z</time>
      </trkpt>
      <trkpt lat="42.96523" lon="-0.34271">
        <ele>1325.8</ele>
        <time>2019-08-03T07:51:17Z</time>
      </trkpt>
      <trkpt lat="42.96521" lon="-0.3429">
        <ele>1323.87</ele>
        <time>2019-08-03T07:51:18Z</time>
      </trkpt>
      <trkpt lat="42.96518" lon="-0.34306">
        <ele>1322.43</ele>
        <time>2019-08-03T07:51:19Z</time>
      </trkpt>
      <trkpt lat="42.96515" lon="-0.34317">
        <ele>1320.03</ele>
        <time>2019-08-03T07:51:20Z</time>
      </trkpt>
      <trkpt lat="42.9651" lon="-0.34325">
        <ele>1318.59</ele>
        <time>2019-08-03T07:51:21Z</time>
      </trkpt>
      <trkpt lat="42.96503" lon="-0.34328">
        <ele>1315.22</ele>
        <time>2019-08-03T07:51:22Z</time>
      </trkpt>
      <trkpt lat="42.96498" lon="-0.34329">
        <ele>1312.82</ele>
        <time>2019-08-03T07:51:23Z</time>
      </trkpt>
      <trkpt lat="42.96493" lon="-0.34327">
        <ele>1310.41</ele>
        <time>2019-08-03T07:51:24Z</time>
      </trkpt>
      <trkpt lat="42.96486" lon="-0.34322">
        <ele>1307.05</ele>
        <time>2019-08-03T07:51:25Z</time>
      </trkpt>
      <trkpt lat="42.96479" lon="-0.34316">
        <ele>1302.72</ele>
        <time>2019-08-03T07:51:26Z</time>
      </trkpt>
      <trkpt lat="42.96473" lon="-0.34308">
        <ele>1297.92</ele>
        <time>2019-08-03T07:51:27Z</time>
      </trkpt>
      <trkpt lat="42.96469" lon="-0.34299">
        <ele>1294.07</ele>
        <time>2019-08-03T07:51:28Z</time>
      </trkpt>
      <trkpt lat="42.96465" lon="-0.34288">
        <ele>1290.71</ele>
        <time>2019-08-03T07:51:29Z</time>
      </trkpt>
      <trkpt lat="42.96461" lon="-0.34277">
        <ele>1288.3</ele>
        <time>2019-08-03T07:51:30Z</time>
      </trkpt>
      <trkpt lat="42.96457" lon="-0.34265">
        <ele>1287.34</ele>
        <time>2019-08-03T07:51:31Z</time>
      </trkpt>
      <trkpt lat="42.96413" lon="-0.34112">
        <ele>1275.33</ele>
        <time>2019-08-03T07:51:41Z</time>
      </trkpt>
      <trkpt lat="42.96406" lon="-0.34073">
        <ele>1274.36</ele>
        <time>2019-08-03T07:51:43Z</time>
      </trkpt>
      <trkpt lat="42.96397" lon="-0.33944">
        <ele>1273.4</ele>
        <time>2019-08-03T07:51:50Z</time>
      </trkpt>
      <trkpt lat="42.96395" lon="-0.33932">
        <ele>1272.92</ele>
        <time>2019-08-03T07:51:51Z</time>
      </trkpt>
      <trkpt lat="42.9639" lon="-0.33921">
        <ele>1272.44</ele>
        <time>2019-08-03T07:51:52Z</time>
      </trkpt>
      <trkpt lat="42.96382" lon="-0.33912">
        <ele>1272.44</ele>
        <time>2019-08-03T07:51:53Z</time>
      </trkpt>
      <trkpt lat="42.96373" lon="-0.33906">
        <ele>1272.44</ele>
        <time>2019-08-03T07:51:54Z</time>
      </trkpt>
      <trkpt lat="42.96359" lon="-0.33905">
        <ele>1271</ele>
        <time>2019-08-03T07:51:55Z</time>
      </trkpt>
      <trkpt lat="42.96346" lon="-0.33908">
        <ele>1270.04</ele>
        <time>2019-08-03T07:51:56Z</time>
      </trkpt>
      <trkpt lat="42.96335" lon="-0.33913">
        <ele>1268.12</ele>
        <time>2019-08-03T07:51:57Z</time>
      </trkpt>
      <trkpt lat="42.96317" lon="-0.33922">
        <ele>1263.79</ele>
        <time>2019-08-03T07:51:59Z</time>
      </trkpt>
      <trkpt lat="42.9631" lon="-0.3393">
        <ele>1260.91</ele>
        <time>2019-08-03T07:52:00Z</time>
      </trkpt>
      <trkpt lat="42.96306" lon="-0.33942">
        <ele>1258.5</ele>
        <time>2019-08-03T07:52:01Z</time>
      </trkpt>
      <trkpt lat="42.96305" lon="-0.33955">
        <ele>1256.1</ele>
        <time>2019-08-03T07:52:02Z</time>
      </trkpt>
      <trkpt lat="42.96306" lon="-0.33969">
        <ele>1254.18</ele>
        <time>2019-08-03T07:52:03Z</time>
      </trkpt>
      <trkpt lat="42.96311" lon="-0.33982">
        <ele>1252.74</ele>
        <time>2019-08-03T07:52:04Z</time>
      </trkpt>
      <trkpt lat="42.96316" lon="-0.33996">
        <ele>1250.81</ele>
        <time>2019-08-03T07:52:05Z</time>
      </trkpt>
      <trkpt lat="42.96352" lon="-0.34107">
        <ele>1238.32</ele>
        <time>2019-08-03T07:52:12Z</time>
      </trkpt>
      <trkpt lat="42.96355" lon="-0.34124">
        <ele>1237.35</ele>
        <time>2019-08-03T07:52:13Z</time>
      </trkpt>
      <trkpt lat="42.96355" lon="-0.34141">
        <ele>1236.87</ele>
        <time>2019-08-03T07:52:14Z</time>
      </trkpt>
      <trkpt lat="42.9635" lon="-0.34196">
        <ele>1233.99</ele>
        <time>2019-08-03T07:52:17Z</time>
      </trkpt>
      <trkpt lat="42.96346" lon="-0.34214">
        <ele>1233.03</ele>
        <time>2019-08-03T07:52:18Z</time>
      </trkpt>
      <trkpt lat="42.96344" lon="-0.34232">
        <ele>1233.03</ele>
        <time>2019-08-03T07:52:19Z</time>
      </trkpt>
      <trkpt lat="42.96341" lon="-0.3425">
        <ele>1232.07</ele>
        <time>2019-08-03T07:52:20Z</time>
      </trkpt>
      <trkpt lat="42.96338" lon="-0.34269">
        <ele>1231.59</ele>
        <time>2019-08-03T07:52:21Z</time>
      </trkpt>
      <trkpt lat="42.9633" lon="-0.34365">
        <ele>1229.18</ele>
        <time>2019-08-03T07:52:26Z</time>
      </trkpt>
      <trkpt lat="42.96327" lon="-0.34383">
        <ele>1228.22</ele>
        <time>2019-08-03T07:52:27Z</time>
      </trkpt>
      <trkpt lat="42.96323" lon="-0.34399">
        <ele>1227.26</ele>
        <time>2019-08-03T07:52:28Z</time>
      </trkpt>
      <trkpt lat="42.96319" lon="-0.34414">
        <ele>1226.3</ele>
        <time>2019-08-03T07:52:29Z</time>
      </trkpt>
      <trkpt lat="42.96317" lon="-0.34429">
        <ele>1224.86</ele>
        <time>2019-08-03T07:52:30Z</time>
      </trkpt>
      <trkpt lat="42.96318" lon="-0.34446">
        <ele>1223.9</ele>
        <time>2019-08-03T07:52:31Z</time>
      </trkpt>
      <trkpt lat="42.96319" lon="-0.34463">
        <ele>1222.93</ele>
        <time>2019-08-03T07:52:32Z</time>
      </trkpt>
      <trkpt lat="42.96319" lon="-0.34481">
        <ele>1221.97</ele>
        <time>2019-08-03T07:52:33Z</time>
      </trkpt>
      <trkpt lat="42.96317" lon="-0.34513">
        <ele>1221.49</ele>
        <time>2019-08-03T07:52:35Z</time>
      </trkpt>
      <trkpt lat="42.96309" lon="-0.34547">
        <ele>1220.05</ele>
        <time>2019-08-03T07:52:38Z</time>
      </trkpt>
      <trkpt lat="42.96304" lon="-0.34554">
        <ele>1220.05</ele>
        <time>2019-08-03T07:52:39Z</time>
      </trkpt>
      <trkpt lat="42.96297" lon="-0.34557">
        <ele>1220.05</ele>
        <time>2019-08-03T07:52:40Z</time>
      </trkpt>
      <trkpt lat="42.96289" lon="-0.34559">
        <ele>1219.57</ele>
        <time>2019-08-03T07:52:41Z</time>
      </trkpt>
      <trkpt lat="42.96281" lon="-0.3456">
        <ele>1219.57</ele>
        <time>2019-08-03T07:52:42Z</time>
      </trkpt>
      <trkpt lat="42.96273" lon="-0.34566">
        <ele>1219.57</ele>
        <time>2019-08-03T07:52:43Z</time>
      </trkpt>
      <trkpt lat="42.96267" lon="-0.34575">
        <ele>1219.09</ele>
        <time>2019-08-03T07:52:44Z</time>
      </trkpt>
      <trkpt lat="42.96263" lon="-0.34586">
        <ele>1219.09</ele>
        <time>2019-08-03T07:52:45Z</time>
      </trkpt>
      <trkpt lat="42.96261" lon="-0.34599">
        <ele>1219.09</ele>
        <time>2019-08-03T07:52:46Z</time>
      </trkpt>
      <trkpt lat="42.96261" lon="-0.34613">
        <ele>1219.09</ele>
        <time>2019-08-03T07:52:47Z</time>
      </trkpt>
      <trkpt lat="42.96262" lon="-0.34629">
        <ele>1218.61</ele>
        <time>2019-08-03T07:52:48Z</time>
      </trkpt>
      <trkpt lat="42.96264" lon="-0.34646">
        <ele>1218.61</ele>
        <time>2019-08-03T07:52:49Z</time>
      </trkpt>
      <trkpt lat="42.96266" lon="-0.34679">
        <ele>1218.61</ele>
        <time>2019-08-03T07:52:51Z</time>
      </trkpt>
      <trkpt lat="42.96266" lon="-0.34696">
        <ele>1218.61</ele>
        <time>2019-08-03T07:52:52Z</time>
      </trkpt>
      <trkpt lat="42.96263" lon="-0.34715">
        <ele>1218.13</ele>
        <time>2019-08-03T07:52:53Z</time>
      </trkpt>
      <trkpt lat="42.9626" lon="-0.34732">
        <ele>1218.13</ele>
        <time>2019-08-03T07:52:54Z</time>
      </trkpt>
      <trkpt lat="42.96256" lon="-0.34749">
        <ele>1218.13</ele>
        <time>2019-08-03T07:52:55Z</time>
      </trkpt>
      <trkpt lat="42.96252" lon="-0.34767">
        <ele>1218.13</ele>
        <time>2019-08-03T07:52:56Z</time>
      </trkpt>
      <trkpt lat="42.96241" lon="-0.34822">
        <ele>1218.13</ele>
        <time>2019-08-03T07:52:59Z</time>
      </trkpt>
      <trkpt lat="42.96234" lon="-0.34921">
        <ele>1217.65</ele>
        <time>2019-08-03T07:53:05Z</time>
      </trkpt>
      <trkpt lat="42.96231" lon="-0.34945">
        <ele>1217.65</ele>
        <time>2019-08-03T07:53:08Z</time>
      </trkpt>
      <trkpt lat="42.96233" lon="-0.34951">
        <ele>1217.65</ele>
        <time>2019-08-03T07:53:09Z</time>
      </trkpt>
      <trkpt lat="42.96235" lon="-0.34952">
        <ele>1217.65</ele>
        <time>2019-08-03T07:53:10Z</time>
      </trkpt>
      <trkpt lat="42.96238" lon="-0.34947">
        <ele>1216.69</ele>
        <time>2019-08-03T07:53:11Z</time>
      </trkpt>
      <trkpt lat="42.9624" lon="-0.34941">
        <ele>1215.72</ele>
        <time>2019-08-03T07:53:12Z</time>
      </trkpt>
      <trkpt lat="42.96241" lon="-0.34932">
        <ele>1215.24</ele>
        <time>2019-08-03T07:53:13Z</time>
      </trkpt>
      <trkpt lat="42.96241" lon="-0.34924">
        <ele>1214.76</ele>
        <time>2019-08-03T07:53:14Z</time>
      </trkpt>
      <trkpt lat="42.96258" lon="-0.34813">
        <ele>1209.48</ele>
        <time>2019-08-03T07:53:25Z</time>
      </trkpt>
      <trkpt lat="42.96269" lon="-0.3478">
        <ele>1208.03</ele>
        <time>2019-08-03T07:53:28Z</time>
      </trkpt>
      <trkpt lat="42.96276" lon="-0.3477">
        <ele>1207.55</ele>
        <time>2019-08-03T07:53:29Z</time>
      </trkpt>
      <trkpt lat="42.96286" lon="-0.34762">
        <ele>1207.07</ele>
        <time>2019-08-03T07:53:30Z</time>
      </trkpt>
      <trkpt lat="42.96296" lon="-0.34754">
        <ele>1206.59</ele>
        <time>2019-08-03T07:53:31Z</time>
      </trkpt>
      <trkpt lat="42.96306" lon="-0.34744">
        <ele>1206.11</ele>
        <time>2019-08-03T07:53:32Z</time>
      </trkpt>
      <trkpt lat="42.96316" lon="-0.34734">
        <ele>1205.63</ele>
        <time>2019-08-03T07:53:33Z</time>
      </trkpt>
      <trkpt lat="42.96327" lon="-0.34724">
        <ele>1205.15</ele>
        <time>2019-08-03T07:53:34Z</time>
      </trkpt>
      <trkpt lat="42.96346" lon="-0.34704">
        <ele>1204.19</ele>
        <time>2019-08-03T07:53:36Z</time>
      </trkpt>
      <trkpt lat="42.96354" lon="-0.34692">
        <ele>1203.71</ele>
        <time>2019-08-03T07:53:37Z</time>
      </trkpt>
      <trkpt lat="42.9636" lon="-0.34677">
        <ele>1203.71</ele>
        <time>2019-08-03T07:53:38Z</time>
      </trkpt>
      <trkpt lat="42.96364" lon="-0.34662">
        <ele>1203.71</ele>
        <time>2019-08-03T07:53:39Z</time>
      </trkpt>
      <trkpt lat="42.96367" lon="-0.34647">
        <ele>1203.71</ele>
        <time>2019-08-03T07:53:40Z</time>
      </trkpt>
      <trkpt lat="42.96373" lon="-0.34623">
        <ele>1203.71</ele>
        <time>2019-08-03T07:53:42Z</time>
      </trkpt>
      <trkpt lat="42.96377" lon="-0.34614">
        <ele>1203.23</ele>
        <time>2019-08-03T07:53:43Z</time>
      </trkpt>
      <trkpt lat="42.96384" lon="-0.34609">
        <ele>1203.23</ele>
        <time>2019-08-03T07:53:44Z</time>
      </trkpt>
      <trkpt lat="42.96391" lon="-0.34608">
        <ele>1201.79</ele>
        <time>2019-08-03T07:53:45Z</time>
      </trkpt>
      <trkpt lat="42.96399" lon="-0.34611">
        <ele>1200.82</ele>
        <time>2019-08-03T07:53:46Z</time>
      </trkpt>
      <trkpt lat="42.96404" lon="-0.34615">
        <ele>1196.98</ele>
        <time>2019-08-03T07:53:47Z</time>
      </trkpt>
      <trkpt lat="42.96408" lon="-0.34623">
        <ele>1193.61</ele>
        <time>2019-08-03T07:53:48Z</time>
      </trkpt>
      <trkpt lat="42.9641" lon="-0.34632">
        <ele>1191.21</ele>
        <time>2019-08-03T07:53:49Z</time>
      </trkpt>
      <trkpt lat="42.96411" lon="-0.34642">
        <ele>1189.77</ele>
        <time>2019-08-03T07:53:50Z</time>
      </trkpt>
      <trkpt lat="42.96412" lon="-0.34652">
        <ele>1187.85</ele>
        <time>2019-08-03T07:53:51Z</time>
      </trkpt>
      <trkpt lat="42.9641" lon="-0.34739">
        <ele>1176.31</ele>
        <time>2019-08-03T07:53:59Z</time>
      </trkpt>
      <trkpt lat="42.96412" lon="-0.3475">
        <ele>1174.39</ele>
        <time>2019-08-03T07:54:00Z</time>
      </trkpt>
      <trkpt lat="42.96416" lon="-0.3476">
        <ele>1172.95</ele>
        <time>2019-08-03T07:54:01Z</time>
      </trkpt>
      <trkpt lat="42.96426" lon="-0.3478">
        <ele>1169.58</ele>
        <time>2019-08-03T07:54:03Z</time>
      </trkpt>
      <trkpt lat="42.9643" lon="-0.34791">
        <ele>1168.62</ele>
        <time>2019-08-03T07:54:04Z</time>
      </trkpt>
      <trkpt lat="42.96435" lon="-0.34815">
        <ele>1165.74</ele>
        <time>2019-08-03T07:54:06Z</time>
      </trkpt>
      <trkpt lat="42.96437" lon="-0.34828">
        <ele>1164.77</ele>
        <time>2019-08-03T07:54:07Z</time>
      </trkpt>
      <trkpt lat="42.96438" lon="-0.34854">
        <ele>1162.37</ele>
        <time>2019-08-03T07:54:09Z</time>
      </trkpt>
      <trkpt lat="42.96435" lon="-0.34867">
        <ele>1161.41</ele>
        <time>2019-08-03T07:54:10Z</time>
      </trkpt>
      <trkpt lat="42.96429" lon="-0.34878">
        <ele>1161.41</ele>
        <time>2019-08-03T07:54:11Z</time>
      </trkpt>
      <trkpt lat="42.96421" lon="-0.34885">
        <ele>1156.6</ele>
        <time>2019-08-03T07:54:12Z</time>
      </trkpt>
      <trkpt lat="42.96413" lon="-0.34893">
        <ele>1152.76</ele>
        <time>2019-08-03T07:54:13Z</time>
      </trkpt>
      <trkpt lat="42.96406" lon="-0.34901">
        <ele>1149.87</ele>
        <time>2019-08-03T07:54:14Z</time>
      </trkpt>
      <trkpt lat="42.96401" lon="-0.34913">
        <ele>1148.43</ele>
        <time>2019-08-03T07:54:15Z</time>
      </trkpt>
      <trkpt lat="42.96397" lon="-0.34926">
        <ele>1146.51</ele>
        <time>2019-08-03T07:54:16Z</time>
      </trkpt>
      <trkpt lat="42.96395" lon="-0.34941">
        <ele>1145.07</ele>
        <time>2019-08-03T07:54:17Z</time>
      </trkpt>
      <trkpt lat="42.96393" lon="-0.34957">
        <ele>1143.14</ele>
        <time>2019-08-03T07:54:18Z</time>
      </trkpt>
      <trkpt lat="42.96389" lon="-0.35006">
        <ele>1138.34</ele>
        <time>2019-08-03T07:54:21Z</time>
      </trkpt>
      <trkpt lat="42.96388" lon="-0.35021">
        <ele>1136.9</ele>
        <time>2019-08-03T07:54:22Z</time>
      </trkpt>
      <trkpt lat="42.96387" lon="-0.35036">
        <ele>1134.49</ele>
        <time>2019-08-03T07:54:23Z</time>
      </trkpt>
      <trkpt lat="42.96385" lon="-0.3505">
        <ele>1132.09</ele>
        <time>2019-08-03T07:54:24Z</time>
      </trkpt>
      <trkpt lat="42.96381" lon="-0.35062">
        <ele>1131.13</ele>
        <time>2019-08-03T07:54:25Z</time>
      </trkpt>
      <trkpt lat="42.96376" lon="-0.35071">
        <ele>1131.13</ele>
        <time>2019-08-03T07:54:26Z</time>
      </trkpt>
      <trkpt lat="42.96369" lon="-0.35081">
        <ele>1130.65</ele>
        <time>2019-08-03T07:54:27Z</time>
      </trkpt>
      <trkpt lat="42.96357" lon="-0.35104">
        <ele>1129.69</ele>
        <time>2019-08-03T07:54:29Z</time>
      </trkpt>
      <trkpt lat="42.96352" lon="-0.35119">
        <ele>1129.21</ele>
        <time>2019-08-03T07:54:30Z</time>
      </trkpt>
      <trkpt lat="42.9635" lon="-0.35134">
        <ele>1128.24</ele>
        <time>2019-08-03T07:54:31Z</time>
      </trkpt>
      <trkpt lat="42.96349" lon="-0.3515">
        <ele>1127.76</ele>
        <time>2019-08-03T07:54:32Z</time>
      </trkpt>
      <trkpt lat="42.9635" lon="-0.35167">
        <ele>1127.76</ele>
        <time>2019-08-03T07:54:33Z</time>
      </trkpt>
      <trkpt lat="42.96351" lon="-0.35185">
        <ele>1127.28</ele>
        <time>2019-08-03T07:54:34Z</time>
      </trkpt>
      <trkpt lat="42.96355" lon="-0.35239">
        <ele>1125.36</ele>
        <time>2019-08-03T07:54:37Z</time>
      </trkpt>
      <trkpt lat="42.96358" lon="-0.35257">
        <ele>1124.88</ele>
        <time>2019-08-03T07:54:38Z</time>
      </trkpt>
      <trkpt lat="42.96364" lon="-0.35275">
        <ele>1123.92</ele>
        <time>2019-08-03T07:54:39Z</time>
      </trkpt>
      <trkpt lat="42.96372" lon="-0.35293">
        <ele>1122.48</ele>
        <time>2019-08-03T07:54:40Z</time>
      </trkpt>
      <trkpt lat="42.96382" lon="-0.35309">
        <ele>1121.03</ele>
        <time>2019-08-03T07:54:41Z</time>
      </trkpt>
      <trkpt lat="42.96392" lon="-0.35324">
        <ele>1119.11</ele>
        <time>2019-08-03T07:54:42Z</time>
      </trkpt>
      <trkpt lat="42.96402" lon="-0.3534">
        <ele>1117.67</ele>
        <time>2019-08-03T07:54:43Z</time>
      </trkpt>
      <trkpt lat="42.96409" lon="-0.35358">
        <ele>1115.27</ele>
        <time>2019-08-03T07:54:44Z</time>
      </trkpt>
      <trkpt lat="42.96415" lon="-0.35379">
        <ele>1112.86</ele>
        <time>2019-08-03T07:54:45Z</time>
      </trkpt>
      <trkpt lat="42.9642" lon="-0.35398">
        <ele>1110.94</ele>
        <time>2019-08-03T07:54:46Z</time>
      </trkpt>
      <trkpt lat="42.96427" lon="-0.35417">
        <ele>1109.02</ele>
        <time>2019-08-03T07:54:47Z</time>
      </trkpt>
      <trkpt lat="42.96436" lon="-0.35435">
        <ele>1107.58</ele>
        <time>2019-08-03T07:54:48Z</time>
      </trkpt>
      <trkpt lat="42.96446" lon="-0.35451">
        <ele>1105.17</ele>
        <time>2019-08-03T07:54:49Z</time>
      </trkpt>
      <trkpt lat="42.96457" lon="-0.35468">
        <ele>1103.25</ele>
        <time>2019-08-03T07:54:50Z</time>
      </trkpt>
      <trkpt lat="42.96479" lon="-0.35499">
        <ele>1099.4</ele>
        <time>2019-08-03T07:54:52Z</time>
      </trkpt>
      <trkpt lat="42.96517" lon="-0.35543">
        <ele>1093.64</ele>
        <time>2019-08-03T07:54:55Z</time>
      </trkpt>
      <trkpt lat="42.96528" lon="-0.35558">
        <ele>1091.23</ele>
        <time>2019-08-03T07:54:56Z</time>
      </trkpt>
      <trkpt lat="42.96541" lon="-0.35572">
        <ele>1089.31</ele>
        <time>2019-08-03T07:54:57Z</time>
      </trkpt>
      <trkpt lat="42.96565" lon="-0.35598">
        <ele>1081.62</ele>
        <time>2019-08-03T07:54:59Z</time>
      </trkpt>
      <trkpt lat="42.96573" lon="-0.35613">
        <ele>1079.7</ele>
        <time>2019-08-03T07:55:00Z</time>
      </trkpt>
      <trkpt lat="42.96587" lon="-0.35645">
        <ele>1079.22</ele>
        <time>2019-08-03T07:55:02Z</time>
      </trkpt>
      <trkpt lat="42.96593" lon="-0.35662">
        <ele>1079.22</ele>
        <time>2019-08-03T07:55:03Z</time>
      </trkpt>
      <trkpt lat="42.96631" lon="-0.35835">
        <ele>1077.29</ele>
        <time>2019-08-03T07:55:11Z</time>
      </trkpt>
      <trkpt lat="42.96639" lon="-0.3588">
        <ele>1076.33</ele>
        <time>2019-08-03T07:55:13Z</time>
      </trkpt>
      <trkpt lat="42.96637" lon="-0.35926">
        <ele>1074.89</ele>
        <time>2019-08-03T07:55:15Z</time>
      </trkpt>
      <trkpt lat="42.96637" lon="-0.35968">
        <ele>1072.01</ele>
        <time>2019-08-03T07:55:17Z</time>
      </trkpt>
      <trkpt lat="42.96639" lon="-0.3599">
        <ele>1071.05</ele>
        <time>2019-08-03T07:55:18Z</time>
      </trkpt>
      <trkpt lat="42.96643" lon="-0.36011">
        <ele>1069.6</ele>
        <time>2019-08-03T07:55:19Z</time>
      </trkpt>
      <trkpt lat="42.96651" lon="-0.36055">
        <ele>1066.72</ele>
        <time>2019-08-03T07:55:21Z</time>
      </trkpt>
      <trkpt lat="42.96652" lon="-0.36079">
        <ele>1064.8</ele>
        <time>2019-08-03T07:55:22Z</time>
      </trkpt>
      <trkpt lat="42.96656" lon="-0.36123">
        <ele>1061.43</ele>
        <time>2019-08-03T07:55:24Z</time>
      </trkpt>
      <trkpt lat="42.96661" lon="-0.36144">
        <ele>1059.99</ele>
        <time>2019-08-03T07:55:25Z</time>
      </trkpt>
      <trkpt lat="42.96705" lon="-0.36365">
        <ele>1037.4</ele>
        <time>2019-08-03T07:55:35Z</time>
      </trkpt>
      <trkpt lat="42.9671" lon="-0.36412">
        <ele>1029.71</ele>
        <time>2019-08-03T07:55:38Z</time>
      </trkpt>
      <trkpt lat="42.96715" lon="-0.36428">
        <ele>1026.34</ele>
        <time>2019-08-03T07:55:39Z</time>
      </trkpt>
      <trkpt lat="42.9672" lon="-0.36444">
        <ele>1022.5</ele>
        <time>2019-08-03T07:55:40Z</time>
      </trkpt>
      <trkpt lat="42.96724" lon="-0.36461">
        <ele>1018.17</ele>
        <time>2019-08-03T07:55:41Z</time>
      </trkpt>
      <trkpt lat="42.96727" lon="-0.36479">
        <ele>1014.33</ele>
        <time>2019-08-03T07:55:42Z</time>
      </trkpt>
      <trkpt lat="42.96728" lon="-0.36497">
        <ele>1011.93</ele>
        <time>2019-08-03T07:55:43Z</time>
      </trkpt>
      <trkpt lat="42.96729" lon="-0.36515">
        <ele>1010</ele>
        <time>2019-08-03T07:55:44Z</time>
      </trkpt>
      <trkpt lat="42.96731" lon="-0.36533">
        <ele>1007.12</ele>
        <time>2019-08-03T07:55:45Z</time>
      </trkpt>
      <trkpt lat="42.96734" lon="-0.36551">
        <ele>1003.75</ele>
        <time>2019-08-03T07:55:46Z</time>
      </trkpt>
      <trkpt lat="42.9674" lon="-0.3657">
        <ele>999.43</ele>
        <time>2019-08-03T07:55:47Z</time>
      </trkpt>
      <trkpt lat="42.96759" lon="-0.36626">
        <ele>987.89</ele>
        <time>2019-08-03T07:55:50Z</time>
      </trkpt>
      <trkpt lat="42.96781" lon="-0.36773">
        <ele>972.03</ele>
        <time>2019-08-03T07:55:57Z</time>
      </trkpt>
      <trkpt lat="42.96785" lon="-0.36795">
        <ele>969.15</ele>
        <time>2019-08-03T07:55:58Z</time>
      </trkpt>
      <trkpt lat="42.96791" lon="-0.36816">
        <ele>966.26</ele>
        <time>2019-08-03T07:55:59Z</time>
      </trkpt>
      <trkpt lat="42.96797" lon="-0.36838">
        <ele>963.38</ele>
        <time>2019-08-03T07:56:00Z</time>
      </trkpt>
      <trkpt lat="42.96805" lon="-0.36859">
        <ele>960.49</ele>
        <time>2019-08-03T07:56:01Z</time>
      </trkpt>
      <trkpt lat="42.96841" lon="-0.36961">
        <ele>949.92</ele>
        <time>2019-08-03T07:56:06Z</time>
      </trkpt>
      <trkpt lat="42.9685" lon="-0.36979">
        <ele>948.48</ele>
        <time>2019-08-03T07:56:07Z</time>
      </trkpt>
      <trkpt lat="42.96893" lon="-0.37068">
        <ele>936.94</ele>
        <time>2019-08-03T07:56:13Z</time>
      </trkpt>
      <trkpt lat="42.96896" lon="-0.37083">
        <ele>935.02</ele>
        <time>2019-08-03T07:56:14Z</time>
      </trkpt>
      <trkpt lat="42.96896" lon="-0.37098">
        <ele>933.58</ele>
        <time>2019-08-03T07:56:15Z</time>
      </trkpt>
      <trkpt lat="42.96893" lon="-0.37113">
        <ele>931.65</ele>
        <time>2019-08-03T07:56:16Z</time>
      </trkpt>
      <trkpt lat="42.9689" lon="-0.37126">
        <ele>929.73</ele>
        <time>2019-08-03T07:56:17Z</time>
      </trkpt>
      <trkpt lat="42.9689" lon="-0.37141">
        <ele>927.81</ele>
        <time>2019-08-03T07:56:18Z</time>
      </trkpt>
      <trkpt lat="42.96893" lon="-0.37155">
        <ele>926.37</ele>
        <time>2019-08-03T07:56:19Z</time>
      </trkpt>
      <trkpt lat="42.96898" lon="-0.37169">
        <ele>925.41</ele>
        <time>2019-08-03T07:56:20Z</time>
      </trkpt>
      <trkpt lat="42.96904" lon="-0.37183">
        <ele>923.96</ele>
        <time>2019-08-03T07:56:21Z</time>
      </trkpt>
      <trkpt lat="42.96909" lon="-0.37197">
        <ele>922.52</ele>
        <time>2019-08-03T07:56:22Z</time>
      </trkpt>
      <trkpt lat="42.96911" lon="-0.37212">
        <ele>921.08</ele>
        <time>2019-08-03T07:56:23Z</time>
      </trkpt>
      <trkpt lat="42.9691" lon="-0.37225">
        <ele>919.64</ele>
        <time>2019-08-03T07:56:24Z</time>
      </trkpt>
      <trkpt lat="42.96907" lon="-0.37238">
        <ele>918.2</ele>
        <time>2019-08-03T07:56:25Z</time>
      </trkpt>
      <trkpt lat="42.96901" lon="-0.37247">
        <ele>916.75</ele>
        <time>2019-08-03T07:56:26Z</time>
      </trkpt>
      <trkpt lat="42.96892" lon="-0.37255">
        <ele>914.83</ele>
        <time>2019-08-03T07:56:27Z</time>
      </trkpt>
      <trkpt lat="42.96882" lon="-0.3726">
        <ele>912.91</ele>
        <time>2019-08-03T07:56:28Z</time>
      </trkpt>
      <trkpt lat="42.96871" lon="-0.37263">
        <ele>910.51</ele>
        <time>2019-08-03T07:56:29Z</time>
      </trkpt>
      <trkpt lat="42.9686" lon="-0.37263">
        <ele>908.1</ele>
        <time>2019-08-03T07:56:30Z</time>
      </trkpt>
      <trkpt lat="42.96848" lon="-0.3726">
        <ele>906.18</ele>
        <time>2019-08-03T07:56:31Z</time>
      </trkpt>
      <trkpt lat="42.96837" lon="-0.37253">
        <ele>903.78</ele>
        <time>2019-08-03T07:56:32Z</time>
      </trkpt>
      <trkpt lat="42.96825" lon="-0.37243">
        <ele>901.37</ele>
        <time>2019-08-03T07:56:33Z</time>
      </trkpt>
      <trkpt lat="42.96816" lon="-0.37231">
        <ele>899.45</ele>
        <time>2019-08-03T07:56:34Z</time>
      </trkpt>
      <trkpt lat="42.96807" lon="-0.37217">
        <ele>897.53</ele>
        <time>2019-08-03T07:56:35Z</time>
      </trkpt>
      <trkpt lat="42.968" lon="-0.37202">
        <ele>895.61</ele>
        <time>2019-08-03T07:56:36Z</time>
      </trkpt>
      <trkpt lat="42.96793" lon="-0.37188">
        <ele>894.16</ele>
        <time>2019-08-03T07:56:37Z</time>
      </trkpt>
      <trkpt lat="42.96786" lon="-0.37177">
        <ele>892.24</ele>
        <time>2019-08-03T07:56:38Z</time>
      </trkpt>
      <trkpt lat="42.96778" lon="-0.37168">
        <ele>890.8</ele>
        <time>2019-08-03T07:56:39Z</time>
      </trkpt>
      <trkpt lat="42.96768" lon="-0.37164">
        <ele>888.88</ele>
        <time>2019-08-03T07:56:40Z</time>
      </trkpt>
      <trkpt lat="42.96759" lon="-0.37165">
        <ele>887.43</ele>
        <time>2019-08-03T07:56:41Z</time>
      </trkpt>
      <trkpt lat="42.96751" lon="-0.37171">
        <ele>885.51</ele>
        <time>2019-08-03T07:56:42Z</time>
      </trkpt>
      <trkpt lat="42.96745" lon="-0.37181">
        <ele>884.07</ele>
        <time>2019-08-03T07:56:43Z</time>
      </trkpt>
      <trkpt lat="42.96741" lon="-0.37194">
        <ele>882.15</ele>
        <time>2019-08-03T07:56:44Z</time>
      </trkpt>
      <trkpt lat="42.9674" lon="-0.37209">
        <ele>880.71</ele>
        <time>2019-08-03T07:56:45Z</time>
      </trkpt>
      <trkpt lat="42.96741" lon="-0.37224">
        <ele>879.26</ele>
        <time>2019-08-03T07:56:46Z</time>
      </trkpt>
      <trkpt lat="42.96742" lon="-0.3724">
        <ele>877.82</ele>
        <time>2019-08-03T07:56:47Z</time>
      </trkpt>
      <trkpt lat="42.96754" lon="-0.37362">
        <ele>871.57</ele>
        <time>2019-08-03T07:56:55Z</time>
      </trkpt>
      <trkpt lat="42.96753" lon="-0.37427">
        <ele>869.17</ele>
        <time>2019-08-03T07:56:59Z</time>
      </trkpt>
      <trkpt lat="42.96755" lon="-0.37444">
        <ele>868.21</ele>
        <time>2019-08-03T07:57:00Z</time>
      </trkpt>
      <trkpt lat="42.96768" lon="-0.37534">
        <ele>861.48</ele>
        <time>2019-08-03T07:57:05Z</time>
      </trkpt>
      <trkpt lat="42.96775" lon="-0.37547">
        <ele>859.56</ele>
        <time>2019-08-03T07:57:06Z</time>
      </trkpt>
      <trkpt lat="42.96783" lon="-0.37558">
        <ele>858.11</ele>
        <time>2019-08-03T07:57:07Z</time>
      </trkpt>
      <trkpt lat="42.96792" lon="-0.37567">
        <ele>856.67</ele>
        <time>2019-08-03T07:57:08Z</time>
      </trkpt>
      <trkpt lat="42.96798" lon="-0.37576">
        <ele>855.23</ele>
        <time>2019-08-03T07:57:09Z</time>
      </trkpt>
      <trkpt lat="42.968" lon="-0.37586">
        <ele>853.79</ele>
        <time>2019-08-03T07:57:10Z</time>
      </trkpt>
      <trkpt lat="42.96799" lon="-0.37596">
        <ele>852.35</ele>
        <time>2019-08-03T07:57:11Z</time>
      </trkpt>
      <trkpt lat="42.96795" lon="-0.37605">
        <ele>850.9</ele>
        <time>2019-08-03T07:57:12Z</time>
      </trkpt>
      <trkpt lat="42.96788" lon="-0.37612">
        <ele>849.46</ele>
        <time>2019-08-03T07:57:13Z</time>
      </trkpt>
      <trkpt lat="42.96781" lon="-0.37619">
        <ele>848.5</ele>
        <time>2019-08-03T07:57:14Z</time>
      </trkpt>
      <trkpt lat="42.96772" lon="-0.37626">
        <ele>847.54</ele>
        <time>2019-08-03T07:57:15Z</time>
      </trkpt>
      <trkpt lat="42.96764" lon="-0.37635">
        <ele>846.58</ele>
        <time>2019-08-03T07:57:16Z</time>
      </trkpt>
      <trkpt lat="42.96757" lon="-0.37644">
        <ele>845.62</ele>
        <time>2019-08-03T07:57:17Z</time>
      </trkpt>
      <trkpt lat="42.96752" lon="-0.37655">
        <ele>844.66</ele>
        <time>2019-08-03T07:57:18Z</time>
      </trkpt>
      <trkpt lat="42.9675" lon="-0.37668">
        <ele>843.69</ele>
        <time>2019-08-03T07:57:19Z</time>
      </trkpt>
      <trkpt lat="42.96752" lon="-0.3768">
        <ele>843.21</ele>
        <time>2019-08-03T07:57:20Z</time>
      </trkpt>
      <trkpt lat="42.96757" lon="-0.37691">
        <ele>842.25</ele>
        <time>2019-08-03T07:57:21Z</time>
      </trkpt>
      <trkpt lat="42.96763" lon="-0.37702">
        <ele>841.77</ele>
        <time>2019-08-03T07:57:22Z</time>
      </trkpt>
      <trkpt lat="42.96769" lon="-0.37712">
        <ele>840.81</ele>
        <time>2019-08-03T07:57:23Z</time>
      </trkpt>
      <trkpt lat="42.96777" lon="-0.37721">
        <ele>840.33</ele>
        <time>2019-08-03T07:57:24Z</time>
      </trkpt>
      <trkpt lat="42.96784" lon="-0.37732">
        <ele>839.37</ele>
        <time>2019-08-03T07:57:25Z</time>
      </trkpt>
      <trkpt lat="42.96789" lon="-0.37743">
        <ele>838.89</ele>
        <time>2019-08-03T07:57:26Z</time>
      </trkpt>
      <trkpt lat="42.96793" lon="-0.37756">
        <ele>838.41</ele>
        <time>2019-08-03T07:57:27Z</time>
      </trkpt>
      <trkpt lat="42.96795" lon="-0.37771">
        <ele>837.93</ele>
        <time>2019-08-03T07:57:28Z</time>
      </trkpt>
      <trkpt lat="42.96796" lon="-0.37785">
        <ele>837.45</ele>
        <time>2019-08-03T07:57:29Z</time>
      </trkpt>
      <trkpt lat="42.96797" lon="-0.378">
        <ele>836.96</ele>
        <time>2019-08-03T07:57:30Z</time>
      </trkpt>
      <trkpt lat="42.968" lon="-0.37814">
        <ele>836.48</ele>
        <time>2019-08-03T07:57:31Z</time>
      </trkpt>
      <trkpt lat="42.96804" lon="-0.37827">
        <ele>836</ele>
        <time>2019-08-03T07:57:32Z</time>
      </trkpt>
      <trkpt lat="42.96809" lon="-0.37839">
        <ele>835.52</ele>
        <time>2019-08-03T07:57:33Z</time>
      </trkpt>
      <trkpt lat="42.96814" lon="-0.37852">
        <ele>835.04</ele>
        <time>2019-08-03T07:57:34Z</time>
      </trkpt>
      <trkpt lat="42.96817" lon="-0.37866">
        <ele>835.04</ele>
        <time>2019-08-03T07:57:35Z</time>
      </trkpt>
      <trkpt lat="42.96818" lon="-0.3788">
        <ele>834.56</ele>
        <time>2019-08-03T07:57:36Z</time>
      </trkpt>
      <trkpt lat="42.96818" lon="-0.37894">
        <ele>834.08</ele>
        <time>2019-08-03T07:57:37Z</time>
      </trkpt>
      <trkpt lat="42.96817" lon="-0.37907">
        <ele>834.08</ele>
        <time>2019-08-03T07:57:38Z</time>
      </trkpt>
      <trkpt lat="42.96817" lon="-0.37919">
        <ele>833.6</ele>
        <time>2019-08-03T07:57:39Z</time>
      </trkpt>
      <trkpt lat="42.9682" lon="-0.37929">
        <ele>833.12</ele>
        <time>2019-08-03T07:57:40Z</time>
      </trkpt>
      <trkpt lat="42.96826" lon="-0.37937">
        <ele>832.64</ele>
        <time>2019-08-03T07:57:41Z</time>
      </trkpt>
      <trkpt lat="42.96833" lon="-0.37942">
        <ele>832.64</ele>
        <time>2019-08-03T07:57:42Z</time>
      </trkpt>
      <trkpt lat="42.96842" lon="-0.37943">
        <ele>832.64</ele>
        <time>2019-08-03T07:57:43Z</time>
      </trkpt>
      <trkpt lat="42.96851" lon="-0.37943">
        <ele>832.16</ele>
        <time>2019-08-03T07:57:44Z</time>
      </trkpt>
      <trkpt lat="42.96859" lon="-0.37945">
        <ele>832.16</ele>
        <time>2019-08-03T07:57:45Z</time>
      </trkpt>
      <trkpt lat="42.96867" lon="-0.37949">
        <ele>832.16</ele>
        <time>2019-08-03T07:57:46Z</time>
      </trkpt>
      <trkpt lat="42.96874" lon="-0.37956">
        <ele>831.68</ele>
        <time>2019-08-03T07:57:47Z</time>
      </trkpt>
      <trkpt lat="42.9688" lon="-0.37964">
        <ele>831.68</ele>
        <time>2019-08-03T07:57:48Z</time>
      </trkpt>
      <trkpt lat="42.96884" lon="-0.37975">
        <ele>831.68</ele>
        <time>2019-08-03T07:57:49Z</time>
      </trkpt>
      <trkpt lat="42.96886" lon="-0.37987">
        <ele>831.2</ele>
        <time>2019-08-03T07:57:50Z</time>
      </trkpt>
      <trkpt lat="42.96886" lon="-0.37998">
        <ele>831.2</ele>
        <time>2019-08-03T07:57:51Z</time>
      </trkpt>
      <trkpt lat="42.96883" lon="-0.3801">
        <ele>830.72</ele>
        <time>2019-08-03T07:57:52Z</time>
      </trkpt>
      <trkpt lat="42.96878" lon="-0.38019">
        <ele>830.72</ele>
        <time>2019-08-03T07:57:53Z</time>
      </trkpt>
      <trkpt lat="42.96872" lon="-0.38028">
        <ele>830.24</ele>
        <time>2019-08-03T07:57:54Z</time>
      </trkpt>
      <trkpt lat="42.96866" lon="-0.38037">
        <ele>830.24</ele>
        <time>2019-08-03T07:57:55Z</time>
      </trkpt>
      <trkpt lat="42.96864" lon="-0.38047">
        <ele>829.76</ele>
        <time>2019-08-03T07:57:56Z</time>
      </trkpt>
      <trkpt lat="42.96864" lon="-0.38058">
        <ele>829.27</ele>
        <time>2019-08-03T07:57:57Z</time>
      </trkpt>
      <trkpt lat="42.96867" lon="-0.38068">
        <ele>829.27</ele>
        <time>2019-08-03T07:57:58Z</time>
      </trkpt>
      <trkpt lat="42.96873" lon="-0.38076">
        <ele>828.79</ele>
        <time>2019-08-03T07:57:59Z</time>
      </trkpt>
      <trkpt lat="42.9688" lon="-0.38084">
        <ele>828.31</ele>
        <time>2019-08-03T07:58:00Z</time>
      </trkpt>
      <trkpt lat="42.96889" lon="-0.3809">
        <ele>827.83</ele>
        <time>2019-08-03T07:58:01Z</time>
      </trkpt>
      <trkpt lat="42.96898" lon="-0.38092">
        <ele>827.35</ele>
        <time>2019-08-03T07:58:02Z</time>
      </trkpt>
      <trkpt lat="42.96908" lon="-0.38091">
        <ele>827.35</ele>
        <time>2019-08-03T07:58:03Z</time>
      </trkpt>
      <trkpt lat="42.96918" lon="-0.3809">
        <ele>826.87</ele>
        <time>2019-08-03T07:58:04Z</time>
      </trkpt>
      <trkpt lat="42.96927" lon="-0.38091">
        <ele>826.39</ele>
        <time>2019-08-03T07:58:05Z</time>
      </trkpt>
      <trkpt lat="42.96935" lon="-0.38097">
        <ele>825.91</ele>
        <time>2019-08-03T07:58:06Z</time>
      </trkpt>
      <trkpt lat="42.96942" lon="-0.38105">
        <ele>825.43</ele>
        <time>2019-08-03T07:58:07Z</time>
      </trkpt>
      <trkpt lat="42.96947" lon="-0.38116">
        <ele>825.43</ele>
        <time>2019-08-03T07:58:08Z</time>
      </trkpt>
      <trkpt lat="42.96952" lon="-0.38126">
        <ele>824.95</ele>
        <time>2019-08-03T07:58:09Z</time>
      </trkpt>
      <trkpt lat="42.96959" lon="-0.38135">
        <ele>824.47</ele>
        <time>2019-08-03T07:58:10Z</time>
      </trkpt>
      <trkpt lat="42.96966" lon="-0.38142">
        <ele>823.99</ele>
        <time>2019-08-03T07:58:11Z</time>
      </trkpt>
      <trkpt lat="42.96974" lon="-0.38149">
        <ele>823.51</ele>
        <time>2019-08-03T07:58:12Z</time>
      </trkpt>
      <trkpt lat="42.9698" lon="-0.38157">
        <ele>823.03</ele>
        <time>2019-08-03T07:58:13Z</time>
      </trkpt>
      <trkpt lat="42.96984" lon="-0.38168">
        <ele>822.55</ele>
        <time>2019-08-03T07:58:14Z</time>
      </trkpt>
      <trkpt lat="42.96987" lon="-0.38179">
        <ele>821.58</ele>
        <time>2019-08-03T07:58:15Z</time>
      </trkpt>
      <trkpt lat="42.96987" lon="-0.38192">
        <ele>821.1</ele>
        <time>2019-08-03T07:58:16Z</time>
      </trkpt>
      <trkpt lat="42.9699" lon="-0.38231">
        <ele>819.18</ele>
        <time>2019-08-03T07:58:19Z</time>
      </trkpt>
      <trkpt lat="42.96992" lon="-0.38241">
        <ele>818.7</ele>
        <time>2019-08-03T07:58:20Z</time>
      </trkpt>
      <trkpt lat="42.96993" lon="-0.38247">
        <ele>817.74</ele>
        <time>2019-08-03T07:58:21Z</time>
      </trkpt>
      <trkpt lat="42.96997" lon="-0.38248">
        <ele>817.26</ele>
        <time>2019-08-03T07:58:22Z</time>
      </trkpt>
      <trkpt lat="42.97" lon="-0.38243">
        <ele>816.78</ele>
        <time>2019-08-03T07:58:23Z</time>
      </trkpt>
      <trkpt lat="42.97001" lon="-0.38237">
        <ele>815.82</ele>
        <time>2019-08-03T07:58:24Z</time>
      </trkpt>
      <trkpt lat="42.97" lon="-0.38229">
        <ele>815.82</ele>
        <time>2019-08-03T07:58:25Z</time>
      </trkpt>
      <trkpt lat="42.96998" lon="-0.38221">
        <ele>815.34</ele>
        <time>2019-08-03T07:58:26Z</time>
      </trkpt>
      <trkpt lat="42.96996" lon="-0.38202">
        <ele>814.85</ele>
        <time>2019-08-03T07:58:28Z</time>
      </trkpt>
      <trkpt lat="42.96995" lon="-0.3819">
        <ele>814.85</ele>
        <time>2019-08-03T07:58:29Z</time>
      </trkpt>
      <trkpt lat="42.96995" lon="-0.38166">
        <ele>814.37</ele>
        <time>2019-08-03T07:58:31Z</time>
      </trkpt>
      <trkpt lat="42.96994" lon="-0.38153">
        <ele>813.89</ele>
        <time>2019-08-03T07:58:32Z</time>
      </trkpt>
      <trkpt lat="42.9699" lon="-0.38142">
        <ele>813.41</ele>
        <time>2019-08-03T07:58:33Z</time>
      </trkpt>
      <trkpt lat="42.96985" lon="-0.38131">
        <ele>812.93</ele>
        <time>2019-08-03T07:58:34Z</time>
      </trkpt>
      <trkpt lat="42.96979" lon="-0.38121">
        <ele>812.45</ele>
        <time>2019-08-03T07:58:35Z</time>
      </trkpt>
      <trkpt lat="42.96974" lon="-0.38109">
        <ele>811.97</ele>
        <time>2019-08-03T07:58:36Z</time>
      </trkpt>
      <trkpt lat="42.9697" lon="-0.38097">
        <ele>811.49</ele>
        <time>2019-08-03T07:58:37Z</time>
      </trkpt>
      <trkpt lat="42.96968" lon="-0.38086">
        <ele>811.01</ele>
        <time>2019-08-03T07:58:38Z</time>
      </trkpt>
      <trkpt lat="42.96966" lon="-0.38076">
        <ele>810.53</ele>
        <time>2019-08-03T07:58:39Z</time>
      </trkpt>
      <trkpt lat="42.96966" lon="-0.38068">
        <ele>810.05</ele>
        <time>2019-08-03T07:58:40Z</time>
      </trkpt>
      <trkpt lat="42.96968" lon="-0.38061">
        <ele>809.57</ele>
        <time>2019-08-03T07:58:41Z</time>
      </trkpt>
      <trkpt lat="42.96971" lon="-0.38057">
        <ele>809.09</ele>
        <time>2019-08-03T07:58:42Z</time>
      </trkpt>
      <trkpt lat="42.96977" lon="-0.38057">
        <ele>808.61</ele>
        <time>2019-08-03T07:58:43Z</time>
      </trkpt>
      <trkpt lat="42.96983" lon="-0.38063">
        <ele>808.13</ele>
        <time>2019-08-03T07:58:44Z</time>
      </trkpt>
      <trkpt lat="42.96988" lon="-0.38071">
        <ele>807.64</ele>
        <time>2019-08-03T07:58:45Z</time>
      </trkpt>
      <trkpt lat="42.96993" lon="-0.38079">
        <ele>807.16</ele>
        <time>2019-08-03T07:58:46Z</time>
      </trkpt>
      <trkpt lat="42.97004" lon="-0.38097">
        <ele>805.72</ele>
        <time>2019-08-03T07:58:48Z</time>
      </trkpt>
      <trkpt lat="42.97007" lon="-0.38108">
        <ele>804.76</ele>
        <time>2019-08-03T07:58:49Z</time>
      </trkpt>
      <trkpt lat="42.97033" lon="-0.38217">
        <ele>797.55</ele>
        <time>2019-08-03T07:58:57Z</time>
      </trkpt>
      <trkpt lat="42.9704" lon="-0.38228">
        <ele>797.07</ele>
        <time>2019-08-03T07:58:58Z</time>
      </trkpt>
      <trkpt lat="42.97048" lon="-0.38237">
        <ele>796.11</ele>
        <time>2019-08-03T07:58:59Z</time>
      </trkpt>
      <trkpt lat="42.97057" lon="-0.38244">
        <ele>795.63</ele>
        <time>2019-08-03T07:59:00Z</time>
      </trkpt>
      <trkpt lat="42.97068" lon="-0.38249">
        <ele>794.67</ele>
        <time>2019-08-03T07:59:01Z</time>
      </trkpt>
      <trkpt lat="42.97098" lon="-0.38269">
        <ele>792.74</ele>
        <time>2019-08-03T07:59:04Z</time>
      </trkpt>
      <trkpt lat="42.97106" lon="-0.38279">
        <ele>792.26</ele>
        <time>2019-08-03T07:59:05Z</time>
      </trkpt>
      <trkpt lat="42.97113" lon="-0.38291">
        <ele>791.3</ele>
        <time>2019-08-03T07:59:06Z</time>
      </trkpt>
      <trkpt lat="42.97118" lon="-0.38305">
        <ele>790.34</ele>
        <time>2019-08-03T07:59:07Z</time>
      </trkpt>
      <trkpt lat="42.97124" lon="-0.38319">
        <ele>789.38</ele>
        <time>2019-08-03T07:59:08Z</time>
      </trkpt>
      <trkpt lat="42.97178" lon="-0.38459">
        <ele>779.29</ele>
        <time>2019-08-03T07:59:17Z</time>
      </trkpt>
      <trkpt lat="42.97184" lon="-0.38477">
        <ele>778.32</ele>
        <time>2019-08-03T07:59:18Z</time>
      </trkpt>
      <trkpt lat="42.97188" lon="-0.38494">
        <ele>776.88</ele>
        <time>2019-08-03T07:59:19Z</time>
      </trkpt>
      <trkpt lat="42.9719" lon="-0.38512">
        <ele>775.92</ele>
        <time>2019-08-03T07:59:20Z</time>
      </trkpt>
      <trkpt lat="42.97189" lon="-0.38529">
        <ele>774.96</ele>
        <time>2019-08-03T07:59:21Z</time>
      </trkpt>
      <trkpt lat="42.97187" lon="-0.38547">
        <ele>774</ele>
        <time>2019-08-03T07:59:22Z</time>
      </trkpt>
      <trkpt lat="42.97184" lon="-0.38564">
        <ele>773.04</ele>
        <time>2019-08-03T07:59:23Z</time>
      </trkpt>
      <trkpt lat="42.97174" lon="-0.38616">
        <ele>769.19</ele>
        <time>2019-08-03T07:59:26Z</time>
      </trkpt>
      <trkpt lat="42.97172" lon="-0.38632">
        <ele>768.23</ele>
        <time>2019-08-03T07:59:27Z</time>
      </trkpt>
      <trkpt lat="42.97173" lon="-0.38648">
        <ele>767.27</ele>
        <time>2019-08-03T07:59:28Z</time>
      </trkpt>
      <trkpt lat="42.97176" lon="-0.38664">
        <ele>766.31</ele>
        <time>2019-08-03T07:59:29Z</time>
      </trkpt>
      <trkpt lat="42.97181" lon="-0.3868">
        <ele>764.87</ele>
        <time>2019-08-03T07:59:30Z</time>
      </trkpt>
      <trkpt lat="42.97213" lon="-0.38799">
        <ele>756.69</ele>
        <time>2019-08-03T07:59:37Z</time>
      </trkpt>
      <trkpt lat="42.97226" lon="-0.38874">
        <ele>752.85</ele>
        <time>2019-08-03T07:59:41Z</time>
      </trkpt>
      <trkpt lat="42.97233" lon="-0.38891">
        <ele>751.89</ele>
        <time>2019-08-03T07:59:42Z</time>
      </trkpt>
      <trkpt lat="42.97251" lon="-0.38923">
        <ele>749</ele>
        <time>2019-08-03T07:59:44Z</time>
      </trkpt>
      <trkpt lat="42.97258" lon="-0.3894">
        <ele>748.04</ele>
        <time>2019-08-03T07:59:45Z</time>
      </trkpt>
      <trkpt lat="42.97316" lon="-0.39104">
        <ele>736.03</ele>
        <time>2019-08-03T07:59:55Z</time>
      </trkpt>
      <trkpt lat="42.97322" lon="-0.39121">
        <ele>734.1</ele>
        <time>2019-08-03T07:59:57Z</time>
      </trkpt>
      <trkpt lat="42.97323" lon="-0.3913">
        <ele>733.14</ele>
        <time>2019-08-03T07:59:58Z</time>
      </trkpt>
      <trkpt lat="42.97322" lon="-0.39139">
        <ele>732.66</ele>
        <time>2019-08-03T07:59:59Z</time>
      </trkpt>
      <trkpt lat="42.9732" lon="-0.39147">
        <ele>732.18</ele>
        <time>2019-08-03T08:00:00Z</time>
      </trkpt>
      <trkpt lat="42.97316" lon="-0.39156">
        <ele>731.7</ele>
        <time>2019-08-03T08:00:01Z</time>
      </trkpt>
      <trkpt lat="42.97312" lon="-0.39165">
        <ele>730.74</ele>
        <time>2019-08-03T08:00:02Z</time>
      </trkpt>
      <trkpt lat="42.97307" lon="-0.39173">
        <ele>730.26</ele>
        <time>2019-08-03T08:00:03Z</time>
      </trkpt>
      <trkpt lat="42.97301" lon="-0.39181">
        <ele>730.26</ele>
        <time>2019-08-03T08:00:04Z</time>
      </trkpt>
      <trkpt lat="42.97295" lon="-0.39187">
        <ele>729.78</ele>
        <time>2019-08-03T08:00:05Z</time>
      </trkpt>
      <trkpt lat="42.97288" lon="-0.39193">
        <ele>729.78</ele>
        <time>2019-08-03T08:00:06Z</time>
      </trkpt>
      <trkpt lat="42.97283" lon="-0.39199">
        <ele>729.3</ele>
        <time>2019-08-03T08:00:07Z</time>
      </trkpt>
      <trkpt lat="42.97278" lon="-0.39204">
        <ele>729.3</ele>
        <time>2019-08-03T08:00:08Z</time>
      </trkpt>
      <trkpt lat="42.97273" lon="-0.39209">
        <ele>729.3</ele>
        <time>2019-08-03T08:00:09Z</time>
      </trkpt>
      <trkpt lat="42.97271" lon="-0.39217">
        <ele>729.3</ele>
        <time>2019-08-03T08:00:10Z</time>
      </trkpt>
      <trkpt lat="42.9727" lon="-0.39225">
        <ele>730.26</ele>
        <time>2019-08-03T08:00:11Z</time>
      </trkpt>
      <trkpt lat="42.97271" lon="-0.39233">
        <ele>730.26</ele>
        <time>2019-08-03T08:00:12Z</time>
      </trkpt>
      <trkpt lat="42.97275" lon="-0.39242">
        <ele>730.74</ele>
        <time>2019-08-03T08:00:13Z</time>
      </trkpt>
      <trkpt lat="42.97279" lon="-0.39249">
        <ele>730.74</ele>
        <time>2019-08-03T08:00:14Z</time>
      </trkpt>
      <trkpt lat="42.97286" lon="-0.39257">
        <ele>730.74</ele>
        <time>2019-08-03T08:00:15Z</time>
      </trkpt>
      <trkpt lat="42.97301" lon="-0.39274">
        <ele>730.26</ele>
        <time>2019-08-03T08:00:17Z</time>
      </trkpt>
      <trkpt lat="42.97367" lon="-0.39367">
        <ele>728.82</ele>
        <time>2019-08-03T08:00:25Z</time>
      </trkpt>
      <trkpt lat="42.97389" lon="-0.394">
        <ele>727.86</ele>
        <time>2019-08-03T08:00:28Z</time>
      </trkpt>
      <trkpt lat="42.97394" lon="-0.39412">
        <ele>727.86</ele>
        <time>2019-08-03T08:00:29Z</time>
      </trkpt>
      <trkpt lat="42.97397" lon="-0.39427">
        <ele>728.34</ele>
        <time>2019-08-03T08:00:30Z</time>
      </trkpt>
      <trkpt lat="42.97399" lon="-0.39441">
        <ele>728.34</ele>
        <time>2019-08-03T08:00:31Z</time>
      </trkpt>
      <trkpt lat="42.974" lon="-0.39457">
        <ele>728.34</ele>
        <time>2019-08-03T08:00:32Z</time>
      </trkpt>
      <trkpt lat="42.97403" lon="-0.39488">
        <ele>726.89</ele>
        <time>2019-08-03T08:00:34Z</time>
      </trkpt>
      <trkpt lat="42.97406" lon="-0.39504">
        <ele>725.93</ele>
        <time>2019-08-03T08:00:35Z</time>
      </trkpt>
      <trkpt lat="42.97418" lon="-0.3955">
        <ele>724.49</ele>
        <time>2019-08-03T08:00:38Z</time>
      </trkpt>
      <trkpt lat="42.9742" lon="-0.39565">
        <ele>724.01</ele>
        <time>2019-08-03T08:00:39Z</time>
      </trkpt>
      <trkpt lat="42.97418" lon="-0.39579">
        <ele>723.05</ele>
        <time>2019-08-03T08:00:40Z</time>
      </trkpt>
      <trkpt lat="42.97413" lon="-0.39592">
        <ele>722.57</ele>
        <time>2019-08-03T08:00:41Z</time>
      </trkpt>
      <trkpt lat="42.97409" lon="-0.39605">
        <ele>722.09</ele>
        <time>2019-08-03T08:00:42Z</time>
      </trkpt>
      <trkpt lat="42.97406" lon="-0.3962">
        <ele>721.13</ele>
        <time>2019-08-03T08:00:43Z</time>
      </trkpt>
      <trkpt lat="42.97405" lon="-0.39635">
        <ele>721.13</ele>
        <time>2019-08-03T08:00:44Z</time>
      </trkpt>
      <trkpt lat="42.97404" lon="-0.3965">
        <ele>721.13</ele>
        <time>2019-08-03T08:00:45Z</time>
      </trkpt>
      <trkpt lat="42.97402" lon="-0.39665">
        <ele>720.65</ele>
        <time>2019-08-03T08:00:46Z</time>
      </trkpt>
      <trkpt lat="42.97399" lon="-0.39679">
        <ele>720.16</ele>
        <time>2019-08-03T08:00:47Z</time>
      </trkpt>
      <trkpt lat="42.97394" lon="-0.39693">
        <ele>720.16</ele>
        <time>2019-08-03T08:00:48Z</time>
      </trkpt>
      <trkpt lat="42.97389" lon="-0.39706">
        <ele>719.68</ele>
        <time>2019-08-03T08:00:49Z</time>
      </trkpt>
      <trkpt lat="42.97387" lon="-0.3972">
        <ele>719.2</ele>
        <time>2019-08-03T08:00:50Z</time>
      </trkpt>
      <trkpt lat="42.97387" lon="-0.39736">
        <ele>718.72</ele>
        <time>2019-08-03T08:00:51Z</time>
      </trkpt>
      <trkpt lat="42.9739" lon="-0.39751">
        <ele>718.24</ele>
        <time>2019-08-03T08:00:52Z</time>
      </trkpt>
      <trkpt lat="42.97396" lon="-0.39764">
        <ele>717.28</ele>
        <time>2019-08-03T08:00:53Z</time>
      </trkpt>
      <trkpt lat="42.97404" lon="-0.39774">
        <ele>716.8</ele>
        <time>2019-08-03T08:00:54Z</time>
      </trkpt>
      <trkpt lat="42.97412" lon="-0.39783">
        <ele>716.32</ele>
        <time>2019-08-03T08:00:55Z</time>
      </trkpt>
      <trkpt lat="42.97421" lon="-0.39794">
        <ele>715.36</ele>
        <time>2019-08-03T08:00:56Z</time>
      </trkpt>
      <trkpt lat="42.97427" lon="-0.39807">
        <ele>714.4</ele>
        <time>2019-08-03T08:00:57Z</time>
      </trkpt>
      <trkpt lat="42.97432" lon="-0.3982">
        <ele>713.44</ele>
        <time>2019-08-03T08:00:58Z</time>
      </trkpt>
      <trkpt lat="42.97435" lon="-0.39836">
        <ele>712.95</ele>
        <time>2019-08-03T08:00:59Z</time>
      </trkpt>
      <trkpt lat="42.97437" lon="-0.39852">
        <ele>711.99</ele>
        <time>2019-08-03T08:01:00Z</time>
      </trkpt>
      <trkpt lat="42.97438" lon="-0.39868">
        <ele>711.03</ele>
        <time>2019-08-03T08:01:01Z</time>
      </trkpt>
      <trkpt lat="42.97441" lon="-0.39884">
        <ele>710.07</ele>
        <time>2019-08-03T08:01:02Z</time>
      </trkpt>
      <trkpt lat="42.97445" lon="-0.39899">
        <ele>709.11</ele>
        <time>2019-08-03T08:01:03Z</time>
      </trkpt>
      <trkpt lat="42.97448" lon="-0.39915">
        <ele>708.63</ele>
        <time>2019-08-03T08:01:04Z</time>
      </trkpt>
      <trkpt lat="42.9745" lon="-0.3993">
        <ele>707.67</ele>
        <time>2019-08-03T08:01:05Z</time>
      </trkpt>
      <trkpt lat="42.97451" lon="-0.39947">
        <ele>706.71</ele>
        <time>2019-08-03T08:01:06Z</time>
      </trkpt>
      <trkpt lat="42.97452" lon="-0.39963">
        <ele>706.23</ele>
        <time>2019-08-03T08:01:07Z</time>
      </trkpt>
      <trkpt lat="42.97451" lon="-0.39979">
        <ele>705.26</ele>
        <time>2019-08-03T08:01:08Z</time>
      </trkpt>
      <trkpt lat="42.97446" lon="-0.40042">
        <ele>702.38</ele>
        <time>2019-08-03T08:01:12Z</time>
      </trkpt>
      <trkpt lat="42.97447" lon="-0.40059">
        <ele>701.42</ele>
        <time>2019-08-03T08:01:13Z</time>
      </trkpt>
      <trkpt lat="42.97449" lon="-0.40075">
        <ele>700.46</ele>
        <time>2019-08-03T08:01:14Z</time>
      </trkpt>
      <trkpt lat="42.97469" lon="-0.40272">
        <ele>688.44</ele>
        <time>2019-08-03T08:01:26Z</time>
      </trkpt>
      <trkpt lat="42.97471" lon="-0.40289">
        <ele>687.48</ele>
        <time>2019-08-03T08:01:27Z</time>
      </trkpt>
      <trkpt lat="42.97474" lon="-0.40306">
        <ele>686.52</ele>
        <time>2019-08-03T08:01:28Z</time>
      </trkpt>
      <trkpt lat="42.97478" lon="-0.40322">
        <ele>685.56</ele>
        <time>2019-08-03T08:01:29Z</time>
      </trkpt>
      <trkpt lat="42.97483" lon="-0.40337">
        <ele>684.12</ele>
        <time>2019-08-03T08:01:30Z</time>
      </trkpt>
      <trkpt lat="42.97488" lon="-0.40353">
        <ele>683.15</ele>
        <time>2019-08-03T08:01:31Z</time>
      </trkpt>
      <trkpt lat="42.97491" lon="-0.40369">
        <ele>682.19</ele>
        <time>2019-08-03T08:01:32Z</time>
      </trkpt>
      <trkpt lat="42.97497" lon="-0.40402">
        <ele>680.75</ele>
        <time>2019-08-03T08:01:34Z</time>
      </trkpt>
      <trkpt lat="42.97504" lon="-0.40418">
        <ele>679.79</ele>
        <time>2019-08-03T08:01:35Z</time>
      </trkpt>
      <trkpt lat="42.97512" lon="-0.40431">
        <ele>678.83</ele>
        <time>2019-08-03T08:01:36Z</time>
      </trkpt>
      <trkpt lat="42.97521" lon="-0.40444">
        <ele>677.87</ele>
        <time>2019-08-03T08:01:37Z</time>
      </trkpt>
      <trkpt lat="42.9753" lon="-0.40456">
        <ele>676.91</ele>
        <time>2019-08-03T08:01:38Z</time>
      </trkpt>
      <trkpt lat="42.97578" lon="-0.40512">
        <ele>673.06</ele>
        <time>2019-08-03T08:01:43Z</time>
      </trkpt>
      <trkpt lat="42.9759" lon="-0.40519">
        <ele>672.58</ele>
        <time>2019-08-03T08:01:44Z</time>
      </trkpt>
      <trkpt lat="42.97626" lon="-0.40533">
        <ele>672.1</ele>
        <time>2019-08-03T08:01:47Z</time>
      </trkpt>
      <trkpt lat="42.97637" lon="-0.40541">
        <ele>672.1</ele>
        <time>2019-08-03T08:01:48Z</time>
      </trkpt>
      <trkpt lat="42.97648" lon="-0.40551">
        <ele>671.62</ele>
        <time>2019-08-03T08:01:49Z</time>
      </trkpt>
      <trkpt lat="42.97657" lon="-0.40563">
        <ele>671.14</ele>
        <time>2019-08-03T08:01:50Z</time>
      </trkpt>
      <trkpt lat="42.97665" lon="-0.40576">
        <ele>671.14</ele>
        <time>2019-08-03T08:01:51Z</time>
      </trkpt>
      <trkpt lat="42.97671" lon="-0.40591">
        <ele>670.66</ele>
        <time>2019-08-03T08:01:52Z</time>
      </trkpt>
      <trkpt lat="42.97676" lon="-0.40606">
        <ele>670.18</ele>
        <time>2019-08-03T08:01:53Z</time>
      </trkpt>
      <trkpt lat="42.97679" lon="-0.40622">
        <ele>669.22</ele>
        <time>2019-08-03T08:01:54Z</time>
      </trkpt>
      <trkpt lat="42.97682" lon="-0.40638">
        <ele>668.73</ele>
        <time>2019-08-03T08:01:55Z</time>
      </trkpt>
      <trkpt lat="42.97685" lon="-0.40654">
        <ele>667.77</ele>
        <time>2019-08-03T08:01:56Z</time>
      </trkpt>
      <trkpt lat="42.97689" lon="-0.40669">
        <ele>667.29</ele>
        <time>2019-08-03T08:01:57Z</time>
      </trkpt>
      <trkpt lat="42.97695" lon="-0.40684">
        <ele>666.33</ele>
        <time>2019-08-03T08:01:58Z</time>
      </trkpt>
      <trkpt lat="42.97703" lon="-0.40698">
        <ele>665.37</ele>
        <time>2019-08-03T08:01:59Z</time>
      </trkpt>
      <trkpt lat="42.97713" lon="-0.40708">
        <ele>664.41</ele>
        <time>2019-08-03T08:02:00Z</time>
      </trkpt>
      <trkpt lat="42.97722" lon="-0.40716">
        <ele>663.93</ele>
        <time>2019-08-03T08:02:01Z</time>
      </trkpt>
      <trkpt lat="42.97734" lon="-0.40723">
        <ele>662.97</ele>
        <time>2019-08-03T08:02:02Z</time>
      </trkpt>
      <trkpt lat="42.97773" lon="-0.40756">
        <ele>659.12</ele>
        <time>2019-08-03T08:02:06Z</time>
      </trkpt>
      <trkpt lat="42.9778" lon="-0.40768">
        <ele>658.16</ele>
        <time>2019-08-03T08:02:07Z</time>
      </trkpt>
      <trkpt lat="42.97786" lon="-0.40781">
        <ele>657.68</ele>
        <time>2019-08-03T08:02:08Z</time>
      </trkpt>
      <trkpt lat="42.9779" lon="-0.40795">
        <ele>656.72</ele>
        <time>2019-08-03T08:02:09Z</time>
      </trkpt>
      <trkpt lat="42.97794" lon="-0.4081">
        <ele>655.76</ele>
        <time>2019-08-03T08:02:10Z</time>
      </trkpt>
      <trkpt lat="42.97796" lon="-0.40825">
        <ele>654.8</ele>
        <time>2019-08-03T08:02:11Z</time>
      </trkpt>
      <trkpt lat="42.97796" lon="-0.4084">
        <ele>653.83</ele>
        <time>2019-08-03T08:02:12Z</time>
      </trkpt>
      <trkpt lat="42.97797" lon="-0.40855">
        <ele>653.35</ele>
        <time>2019-08-03T08:02:13Z</time>
      </trkpt>
      <trkpt lat="42.978" lon="-0.40933">
        <ele>650.47</ele>
        <time>2019-08-03T08:02:18Z</time>
      </trkpt>
      <trkpt lat="42.97804" lon="-0.40948">
        <ele>649.51</ele>
        <time>2019-08-03T08:02:19Z</time>
      </trkpt>
      <trkpt lat="42.9781" lon="-0.40964">
        <ele>649.03</ele>
        <time>2019-08-03T08:02:20Z</time>
      </trkpt>
      <trkpt lat="42.97816" lon="-0.40978">
        <ele>648.55</ele>
        <time>2019-08-03T08:02:21Z</time>
      </trkpt>
      <trkpt lat="42.97822" lon="-0.4099">
        <ele>648.07</ele>
        <time>2019-08-03T08:02:22Z</time>
      </trkpt>
      <trkpt lat="42.97828" lon="-0.41003">
        <ele>647.59</ele>
        <time>2019-08-03T08:02:23Z</time>
      </trkpt>
      <trkpt lat="42.97833" lon="-0.41019">
        <ele>647.1</ele>
        <time>2019-08-03T08:02:24Z</time>
      </trkpt>
      <trkpt lat="42.97836" lon="-0.41034">
        <ele>646.14</ele>
        <time>2019-08-03T08:02:25Z</time>
      </trkpt>
      <trkpt lat="42.97838" lon="-0.4105">
        <ele>645.66</ele>
        <time>2019-08-03T08:02:26Z</time>
      </trkpt>
      <trkpt lat="42.97837" lon="-0.41066">
        <ele>645.18</ele>
        <time>2019-08-03T08:02:27Z</time>
      </trkpt>
      <trkpt lat="42.97834" lon="-0.41082">
        <ele>644.7</ele>
        <time>2019-08-03T08:02:28Z</time>
      </trkpt>
      <trkpt lat="42.97831" lon="-0.41097">
        <ele>643.74</ele>
        <time>2019-08-03T08:02:29Z</time>
      </trkpt>
      <trkpt lat="42.97815" lon="-0.41192">
        <ele>640.38</ele>
        <time>2019-08-03T08:02:35Z</time>
      </trkpt>
      <trkpt lat="42.97811" lon="-0.41208">
        <ele>639.89</ele>
        <time>2019-08-03T08:02:36Z</time>
      </trkpt>
      <trkpt lat="42.97807" lon="-0.41223">
        <ele>639.41</ele>
        <time>2019-08-03T08:02:37Z</time>
      </trkpt>
      <trkpt lat="42.97802" lon="-0.41238">
        <ele>638.45</ele>
        <time>2019-08-03T08:02:38Z</time>
      </trkpt>
      <trkpt lat="42.97796" lon="-0.41254">
        <ele>637.49</ele>
        <time>2019-08-03T08:02:39Z</time>
      </trkpt>
      <trkpt lat="42.97786" lon="-0.41286">
        <ele>635.09</ele>
        <time>2019-08-03T08:02:41Z</time>
      </trkpt>
      <trkpt lat="42.97782" lon="-0.41303">
        <ele>634.13</ele>
        <time>2019-08-03T08:02:42Z</time>
      </trkpt>
      <trkpt lat="42.9778" lon="-0.4132">
        <ele>633.17</ele>
        <time>2019-08-03T08:02:43Z</time>
      </trkpt>
      <trkpt lat="42.97778" lon="-0.41337">
        <ele>632.68</ele>
        <time>2019-08-03T08:02:44Z</time>
      </trkpt>
      <trkpt lat="42.97777" lon="-0.41353">
        <ele>631.72</ele>
        <time>2019-08-03T08:02:45Z</time>
      </trkpt>
      <trkpt lat="42.97775" lon="-0.41371">
        <ele>630.76</ele>
        <time>2019-08-03T08:02:46Z</time>
      </trkpt>
      <trkpt lat="42.97772" lon="-0.41387">
        <ele>630.28</ele>
        <time>2019-08-03T08:02:47Z</time>
      </trkpt>
      <trkpt lat="42.97768" lon="-0.41402">
        <ele>629.32</ele>
        <time>2019-08-03T08:02:48Z</time>
      </trkpt>
      <trkpt lat="42.97744" lon="-0.4148">
        <ele>625.47</ele>
        <time>2019-08-03T08:02:53Z</time>
      </trkpt>
      <trkpt lat="42.97742" lon="-0.41497">
        <ele>624.51</ele>
        <time>2019-08-03T08:02:54Z</time>
      </trkpt>
      <trkpt lat="42.97742" lon="-0.41513">
        <ele>624.03</ele>
        <time>2019-08-03T08:02:55Z</time>
      </trkpt>
      <trkpt lat="42.97743" lon="-0.4153">
        <ele>623.07</ele>
        <time>2019-08-03T08:02:56Z</time>
      </trkpt>
      <trkpt lat="42.97744" lon="-0.41547">
        <ele>622.59</ele>
        <time>2019-08-03T08:02:57Z</time>
      </trkpt>
      <trkpt lat="42.97749" lon="-0.41633">
        <ele>618.75</ele>
        <time>2019-08-03T08:03:02Z</time>
      </trkpt>
      <trkpt lat="42.97747" lon="-0.4165">
        <ele>617.78</ele>
        <time>2019-08-03T08:03:03Z</time>
      </trkpt>
      <trkpt lat="42.97745" lon="-0.41667">
        <ele>617.3</ele>
        <time>2019-08-03T08:03:04Z</time>
      </trkpt>
      <trkpt lat="42.97741" lon="-0.41683">
        <ele>616.34</ele>
        <time>2019-08-03T08:03:05Z</time>
      </trkpt>
      <trkpt lat="42.97736" lon="-0.41699">
        <ele>615.38</ele>
        <time>2019-08-03T08:03:06Z</time>
      </trkpt>
      <trkpt lat="42.97729" lon="-0.41714">
        <ele>614.9</ele>
        <time>2019-08-03T08:03:07Z</time>
      </trkpt>
      <trkpt lat="42.97722" lon="-0.41728">
        <ele>613.94</ele>
        <time>2019-08-03T08:03:08Z</time>
      </trkpt>
      <trkpt lat="42.97714" lon="-0.41742">
        <ele>612.98</ele>
        <time>2019-08-03T08:03:09Z</time>
      </trkpt>
      <trkpt lat="42.97635" lon="-0.41901">
        <ele>607.69</ele>
        <time>2019-08-03T08:03:20Z</time>
      </trkpt>
      <trkpt lat="42.97611" lon="-0.41981">
        <ele>607.21</ele>
        <time>2019-08-03T08:03:25Z</time>
      </trkpt>
      <trkpt lat="42.97604" lon="-0.41993">
        <ele>607.21</ele>
        <time>2019-08-03T08:03:26Z</time>
      </trkpt>
      <trkpt lat="42.97596" lon="-0.42003">
        <ele>606.73</ele>
        <time>2019-08-03T08:03:27Z</time>
      </trkpt>
      <trkpt lat="42.97565" lon="-0.42044">
        <ele>604.81</ele>
        <time>2019-08-03T08:03:32Z</time>
      </trkpt>
      <trkpt lat="42.97563" lon="-0.42053">
        <ele>604.81</ele>
        <time>2019-08-03T08:03:33Z</time>
      </trkpt>
      <trkpt lat="42.97563" lon="-0.42063">
        <ele>604.33</ele>
        <time>2019-08-03T08:03:34Z</time>
      </trkpt>
      <trkpt lat="42.97566" lon="-0.42072">
        <ele>603.85</ele>
        <time>2019-08-03T08:03:35Z</time>
      </trkpt>
      <trkpt lat="42.9757" lon="-0.42079">
        <ele>603.36</ele>
        <time>2019-08-03T08:03:36Z</time>
      </trkpt>
      <trkpt lat="42.97576" lon="-0.42083">
        <ele>602.88</ele>
        <time>2019-08-03T08:03:37Z</time>
      </trkpt>
      <trkpt lat="42.97583" lon="-0.42084">
        <ele>602.88</ele>
        <time>2019-08-03T08:03:38Z</time>
      </trkpt>
      <trkpt lat="42.97591" lon="-0.42082">
        <ele>602.4</ele>
        <time>2019-08-03T08:03:39Z</time>
      </trkpt>
      <trkpt lat="42.97599" lon="-0.42076">
        <ele>602.4</ele>
        <time>2019-08-03T08:03:40Z</time>
      </trkpt>
      <trkpt lat="42.97604" lon="-0.42069">
        <ele>601.92</ele>
        <time>2019-08-03T08:03:41Z</time>
      </trkpt>
      <trkpt lat="42.97608" lon="-0.42058">
        <ele>600.96</ele>
        <time>2019-08-03T08:03:42Z</time>
      </trkpt>
      <trkpt lat="42.97613" lon="-0.42047">
        <ele>599.52</ele>
        <time>2019-08-03T08:03:43Z</time>
      </trkpt>
      <trkpt lat="42.97617" lon="-0.42035">
        <ele>598.08</ele>
        <time>2019-08-03T08:03:44Z</time>
      </trkpt>
      <trkpt lat="42.97672" lon="-0.41896">
        <ele>591.83</ele>
        <time>2019-08-03T08:03:55Z</time>
      </trkpt>
      <trkpt lat="42.97778" lon="-0.41749">
        <ele>584.14</ele>
        <time>2019-08-03T08:04:07Z</time>
      </trkpt>
      <trkpt lat="42.97796" lon="-0.41723">
        <ele>582.22</ele>
        <time>2019-08-03T08:04:09Z</time>
      </trkpt>
      <trkpt lat="42.97834" lon="-0.41658">
        <ele>577.89</ele>
        <time>2019-08-03T08:04:14Z</time>
      </trkpt>
      <trkpt lat="42.97843" lon="-0.41647">
        <ele>576.93</ele>
        <time>2019-08-03T08:04:15Z</time>
      </trkpt>
      <trkpt lat="42.97877" lon="-0.41618">
        <ele>575.01</ele>
        <time>2019-08-03T08:04:18Z</time>
      </trkpt>
      <trkpt lat="42.97889" lon="-0.41612">
        <ele>574.04</ele>
        <time>2019-08-03T08:04:19Z</time>
      </trkpt>
      <trkpt lat="42.97912" lon="-0.41597">
        <ele>572.6</ele>
        <time>2019-08-03T08:04:21Z</time>
      </trkpt>
      <trkpt lat="42.97923" lon="-0.41587">
        <ele>572.12</ele>
        <time>2019-08-03T08:04:22Z</time>
      </trkpt>
      <trkpt lat="42.97933" lon="-0.41574">
        <ele>571.16</ele>
        <time>2019-08-03T08:04:23Z</time>
      </trkpt>
      <trkpt lat="42.97941" lon="-0.41561">
        <ele>570.2</ele>
        <time>2019-08-03T08:04:24Z</time>
      </trkpt>
      <trkpt lat="42.97947" lon="-0.41546">
        <ele>568.76</ele>
        <time>2019-08-03T08:04:25Z</time>
      </trkpt>
      <trkpt lat="42.97953" lon="-0.4153">
        <ele>567.8</ele>
        <time>2019-08-03T08:04:26Z</time>
      </trkpt>
      <trkpt lat="42.97958" lon="-0.41514">
        <ele>566.83</ele>
        <time>2019-08-03T08:04:27Z</time>
      </trkpt>
      <trkpt lat="42.97962" lon="-0.41498">
        <ele>566.35</ele>
        <time>2019-08-03T08:04:28Z</time>
      </trkpt>
      <trkpt lat="42.97967" lon="-0.41483">
        <ele>565.39</ele>
        <time>2019-08-03T08:04:29Z</time>
      </trkpt>
      <trkpt lat="42.97972" lon="-0.41472">
        <ele>564.43</ele>
        <time>2019-08-03T08:04:30Z</time>
      </trkpt>
      <trkpt lat="42.97979" lon="-0.41463">
        <ele>563.47</ele>
        <time>2019-08-03T08:04:31Z</time>
      </trkpt>
      <trkpt lat="42.97985" lon="-0.41458">
        <ele>562.99</ele>
        <time>2019-08-03T08:04:32Z</time>
      </trkpt>
      <trkpt lat="42.97994" lon="-0.41457">
        <ele>562.03</ele>
        <time>2019-08-03T08:04:33Z</time>
      </trkpt>
      <trkpt lat="42.98001" lon="-0.41461">
        <ele>561.07</ele>
        <time>2019-08-03T08:04:34Z</time>
      </trkpt>
      <trkpt lat="42.98008" lon="-0.41467">
        <ele>560.11</ele>
        <time>2019-08-03T08:04:35Z</time>
      </trkpt>
      <trkpt lat="42.98012" lon="-0.41476">
        <ele>559.62</ele>
        <time>2019-08-03T08:04:36Z</time>
      </trkpt>
      <trkpt lat="42.98013" lon="-0.41488">
        <ele>559.14</ele>
        <time>2019-08-03T08:04:37Z</time>
      </trkpt>
      <trkpt lat="42.98012" lon="-0.41498">
        <ele>558.66</ele>
        <time>2019-08-03T08:04:38Z</time>
      </trkpt>
      <trkpt lat="42.98008" lon="-0.41508">
        <ele>558.18</ele>
        <time>2019-08-03T08:04:39Z</time>
      </trkpt>
      <trkpt lat="42.98003" lon="-0.41518">
        <ele>557.22</ele>
        <time>2019-08-03T08:04:40Z</time>
      </trkpt>
      <trkpt lat="42.97997" lon="-0.41527">
        <ele>556.74</ele>
        <time>2019-08-03T08:04:41Z</time>
      </trkpt>
      <trkpt lat="42.97991" lon="-0.41537">
        <ele>556.26</ele>
        <time>2019-08-03T08:04:42Z</time>
      </trkpt>
      <trkpt lat="42.97986" lon="-0.41547">
        <ele>555.3</ele>
        <time>2019-08-03T08:04:43Z</time>
      </trkpt>
      <trkpt lat="42.97981" lon="-0.41557">
        <ele>554.82</ele>
        <time>2019-08-03T08:04:44Z</time>
      </trkpt>
      <trkpt lat="42.97959" lon="-0.41601">
        <ele>552.41</ele>
        <time>2019-08-03T08:04:48Z</time>
      </trkpt>
      <trkpt lat="42.97887" lon="-0.41687">
        <ele>547.13</ele>
        <time>2019-08-03T08:04:57Z</time>
      </trkpt>
      <trkpt lat="42.97879" lon="-0.41698">
        <ele>547.13</ele>
        <time>2019-08-03T08:04:58Z</time>
      </trkpt>
      <trkpt lat="42.97873" lon="-0.41709">
        <ele>546.65</ele>
        <time>2019-08-03T08:04:59Z</time>
      </trkpt>
      <trkpt lat="42.97867" lon="-0.41722">
        <ele>546.17</ele>
        <time>2019-08-03T08:05:00Z</time>
      </trkpt>
      <trkpt lat="42.97862" lon="-0.41736">
        <ele>545.69</ele>
        <time>2019-08-03T08:05:01Z</time>
      </trkpt>
      <trkpt lat="42.97858" lon="-0.4175">
        <ele>545.2</ele>
        <time>2019-08-03T08:05:02Z</time>
      </trkpt>
      <trkpt lat="42.97854" lon="-0.41765">
        <ele>544.72</ele>
        <time>2019-08-03T08:05:03Z</time>
      </trkpt>
      <trkpt lat="42.97811" lon="-0.41874">
        <ele>540.4</ele>
        <time>2019-08-03T08:05:11Z</time>
      </trkpt>
      <trkpt lat="42.97807" lon="-0.41888">
        <ele>539.44</ele>
        <time>2019-08-03T08:05:12Z</time>
      </trkpt>
      <trkpt lat="42.97804" lon="-0.41905">
        <ele>538.96</ele>
        <time>2019-08-03T08:05:13Z</time>
      </trkpt>
      <trkpt lat="42.97796" lon="-0.4198">
        <ele>535.59</ele>
        <time>2019-08-03T08:05:19Z</time>
      </trkpt>
      <trkpt lat="42.97793" lon="-0.4199">
        <ele>535.11</ele>
        <time>2019-08-03T08:05:20Z</time>
      </trkpt>
      <trkpt lat="42.97778" lon="-0.42034">
        <ele>533.67</ele>
        <time>2019-08-03T08:05:25Z</time>
      </trkpt>
      <trkpt lat="42.97777" lon="-0.42041">
        <ele>533.19</ele>
        <time>2019-08-03T08:05:26Z</time>
      </trkpt>
      <trkpt lat="42.97777" lon="-0.42048">
        <ele>532.71</ele>
        <time>2019-08-03T08:05:27Z</time>
      </trkpt>
      <trkpt lat="42.97779" lon="-0.42055">
        <ele>532.71</ele>
        <time>2019-08-03T08:05:28Z</time>
      </trkpt>
      <trkpt lat="42.97782" lon="-0.42061">
        <ele>532.23</ele>
        <time>2019-08-03T08:05:29Z</time>
      </trkpt>
      <trkpt lat="42.97787" lon="-0.42064">
        <ele>532.23</ele>
        <time>2019-08-03T08:05:30Z</time>
      </trkpt>
      <trkpt lat="42.97791" lon="-0.42066">
        <ele>532.23</ele>
        <time>2019-08-03T08:05:31Z</time>
      </trkpt>
      <trkpt lat="42.97795" lon="-0.42066">
        <ele>531.75</ele>
        <time>2019-08-03T08:05:32Z</time>
      </trkpt>
      <trkpt lat="42.97799" lon="-0.42064">
        <ele>531.75</ele>
        <time>2019-08-03T08:05:33Z</time>
      </trkpt>
      <trkpt lat="42.97803" lon="-0.4206">
        <ele>531.75</ele>
        <time>2019-08-03T08:05:34Z</time>
      </trkpt>
      <trkpt lat="42.97806" lon="-0.42054">
        <ele>531.27</ele>
        <time>2019-08-03T08:05:35Z</time>
      </trkpt>
      <trkpt lat="42.97808" lon="-0.42044">
        <ele>530.79</ele>
        <time>2019-08-03T08:05:36Z</time>
      </trkpt>
      <trkpt lat="42.97809" lon="-0.42038">
        <ele>530.3</ele>
        <time>2019-08-03T08:05:37Z</time>
      </trkpt>
      <trkpt lat="42.97813" lon="-0.42021">
        <ele>529.34</ele>
        <time>2019-08-03T08:05:39Z</time>
      </trkpt>
      <trkpt lat="42.97815" lon="-0.42011">
        <ele>528.86</ele>
        <time>2019-08-03T08:05:40Z</time>
      </trkpt>
      <trkpt lat="42.97839" lon="-0.41893">
        <ele>525.02</ele>
        <time>2019-08-03T08:05:51Z</time>
      </trkpt>
      <trkpt lat="42.97843" lon="-0.41884">
        <ele>524.54</ele>
        <time>2019-08-03T08:05:52Z</time>
      </trkpt>
      <trkpt lat="42.97848" lon="-0.41877">
        <ele>524.06</ele>
        <time>2019-08-03T08:05:53Z</time>
      </trkpt>
      <trkpt lat="42.97857" lon="-0.41874">
        <ele>523.58</ele>
        <time>2019-08-03T08:05:54Z</time>
      </trkpt>
      <trkpt lat="42.97868" lon="-0.41875">
        <ele>522.61</ele>
        <time>2019-08-03T08:05:55Z</time>
      </trkpt>
      <trkpt lat="42.97878" lon="-0.41881">
        <ele>522.13</ele>
        <time>2019-08-03T08:05:56Z</time>
      </trkpt>
      <trkpt lat="42.97885" lon="-0.4189">
        <ele>521.65</ele>
        <time>2019-08-03T08:05:57Z</time>
      </trkpt>
      <trkpt lat="42.97891" lon="-0.41905">
        <ele>520.69</ele>
        <time>2019-08-03T08:05:58Z</time>
      </trkpt>
      <trkpt lat="42.97893" lon="-0.41917">
        <ele>519.73</ele>
        <time>2019-08-03T08:05:59Z</time>
      </trkpt>
      <trkpt lat="42.97895" lon="-0.41931">
        <ele>519.25</ele>
        <time>2019-08-03T08:06:00Z</time>
      </trkpt>
      <trkpt lat="42.97901" lon="-0.41974">
        <ele>516.85</ele>
        <time>2019-08-03T08:06:03Z</time>
      </trkpt>
      <trkpt lat="42.97919" lon="-0.42025">
        <ele>514.92</ele>
        <time>2019-08-03T08:06:07Z</time>
      </trkpt>
      <trkpt lat="42.97926" lon="-0.42037">
        <ele>514.92</ele>
        <time>2019-08-03T08:06:08Z</time>
      </trkpt>
      <trkpt lat="42.97934" lon="-0.42046">
        <ele>514.44</ele>
        <time>2019-08-03T08:06:09Z</time>
      </trkpt>
      <trkpt lat="42.97943" lon="-0.42053">
        <ele>513.96</ele>
        <time>2019-08-03T08:06:10Z</time>
      </trkpt>
      <trkpt lat="42.97952" lon="-0.42057">
        <ele>513.96</ele>
        <time>2019-08-03T08:06:11Z</time>
      </trkpt>
      <trkpt lat="42.97961" lon="-0.42059">
        <ele>513.48</ele>
        <time>2019-08-03T08:06:12Z</time>
      </trkpt>
      <trkpt lat="42.9797" lon="-0.42061">
        <ele>513</ele>
        <time>2019-08-03T08:06:13Z</time>
      </trkpt>
      <trkpt lat="42.98085" lon="-0.42077">
        <ele>509.16</ele>
        <time>2019-08-03T08:06:26Z</time>
      </trkpt>
      <trkpt lat="42.9811" lon="-0.42083">
        <ele>508.67</ele>
        <time>2019-08-03T08:06:29Z</time>
      </trkpt>
      <trkpt lat="42.98119" lon="-0.42088">
        <ele>508.67</ele>
        <time>2019-08-03T08:06:30Z</time>
      </trkpt>
      <trkpt lat="42.98125" lon="-0.42095">
        <ele>508.19</ele>
        <time>2019-08-03T08:06:31Z</time>
      </trkpt>
      <trkpt lat="42.98131" lon="-0.42102">
        <ele>508.67</ele>
        <time>2019-08-03T08:06:32Z</time>
      </trkpt>
      <trkpt lat="42.98135" lon="-0.42111">
        <ele>508.67</ele>
        <time>2019-08-03T08:06:33Z</time>
      </trkpt>
      <trkpt lat="42.98139" lon="-0.42121">
        <ele>508.67</ele>
        <time>2019-08-03T08:06:34Z</time>
      </trkpt>
      <trkpt lat="42.98141" lon="-0.42131">
        <ele>508.67</ele>
        <time>2019-08-03T08:06:35Z</time>
      </trkpt>
      <trkpt lat="42.98144" lon="-0.42141">
        <ele>508.67</ele>
        <time>2019-08-03T08:06:36Z</time>
      </trkpt>
      <trkpt lat="42.98182" lon="-0.42316">
        <ele>510.6</ele>
        <time>2019-08-03T08:06:55Z</time>
      </trkpt>
      <trkpt lat="42.98194" lon="-0.42425">
        <ele>511.08</ele>
        <time>2019-08-03T08:07:10Z</time>
      </trkpt>
      <trkpt lat="42.98213" lon="-0.42551">
        <ele>515.4</ele>
        <time>2019-08-03T08:07:30Z</time>
      </trkpt>
      <trkpt lat="42.98222" lon="-0.42582">
        <ele>516.37</ele>
        <time>2019-08-03T08:07:35Z</time>
      </trkpt>
      <trkpt lat="42.98267" lon="-0.42684">
        <ele>518.29</ele>
        <time>2019-08-03T08:07:53Z</time>
      </trkpt>
      <trkpt lat="42.98312" lon="-0.42742">
        <ele>519.73</ele>
        <time>2019-08-03T08:08:08Z</time>
      </trkpt>
      <trkpt lat="42.98356" lon="-0.4279">
        <ele>522.61</ele>
        <time>2019-08-03T08:08:23Z</time>
      </trkpt>
      <trkpt lat="42.9836" lon="-0.42791">
        <ele>522.61</ele>
        <time>2019-08-03T08:08:24Z</time>
      </trkpt>
      <trkpt lat="42.98364" lon="-0.42792">
        <ele>522.61</ele>
        <time>2019-08-03T08:08:25Z</time>
      </trkpt>
      <trkpt lat="42.98368" lon="-0.42793">
        <ele>523.09</ele>
        <time>2019-08-03T08:08:26Z</time>
      </trkpt>
      <trkpt lat="42.98371" lon="-0.42793">
        <ele>523.09</ele>
        <time>2019-08-03T08:08:27Z</time>
      </trkpt>
      <trkpt lat="42.98375" lon="-0.42793">
        <ele>523.09</ele>
        <time>2019-08-03T08:08:28Z</time>
      </trkpt>
      <trkpt lat="42.98428" lon="-0.42776">
        <ele>524.06</ele>
        <time>2019-08-03T08:08:42Z</time>
      </trkpt>
      <trkpt lat="42.98476" lon="-0.42753">
        <ele>524.54</ele>
        <time>2019-08-03T08:08:56Z</time>
      </trkpt>
      <trkpt lat="42.98476" lon="-0.42746">
        <ele>524.06</ele>
        <time>2019-08-03T08:08:57Z</time>
      </trkpt>
      <trkpt lat="42.98475" lon="-0.42742">
        <ele>524.06</ele>
        <time>2019-08-03T08:08:58Z</time>
      </trkpt>
      <trkpt lat="42.98473" lon="-0.42738">
        <ele>523.58</ele>
        <time>2019-08-03T08:08:59Z</time>
      </trkpt>
      <trkpt lat="42.98469" lon="-0.42732">
        <ele>523.09</ele>
        <time>2019-08-03T08:09:00Z</time>
      </trkpt>
      <trkpt lat="42.98464" lon="-0.42726">
        <ele>523.09</ele>
        <time>2019-08-03T08:09:01Z</time>
      </trkpt>
      <trkpt lat="42.9846" lon="-0.42719">
        <ele>522.13</ele>
        <time>2019-08-03T08:09:02Z</time>
      </trkpt>
      <trkpt lat="42.98457" lon="-0.42711">
        <ele>521.65</ele>
        <time>2019-08-03T08:09:03Z</time>
      </trkpt>
      <trkpt lat="42.98453" lon="-0.42702">
        <ele>520.69</ele>
        <time>2019-08-03T08:09:04Z</time>
      </trkpt>
      <trkpt lat="42.98425" lon="-0.42612">
        <ele>515.4</ele>
        <time>2019-08-03T08:09:14Z</time>
      </trkpt>
      <trkpt lat="42.9842" lon="-0.42596">
        <ele>514.92</ele>
        <time>2019-08-03T08:09:17Z</time>
      </trkpt>
      <trkpt lat="42.98418" lon="-0.4259">
        <ele>514.44</ele>
        <time>2019-08-03T08:09:18Z</time>
      </trkpt>
      <trkpt lat="42.98414" lon="-0.42578">
        <ele>514.44</ele>
        <time>2019-08-03T08:09:20Z</time>
      </trkpt>
      <trkpt lat="42.98412" lon="-0.42572">
        <ele>514.92</ele>
        <time>2019-08-03T08:09:21Z</time>
      </trkpt>
      <trkpt lat="42.98391" lon="-0.42477">
        <ele>515.4</ele>
        <time>2019-08-03T08:09:34Z</time>
      </trkpt>
      <trkpt lat="42.98383" lon="-0.42343">
        <ele>512.04</ele>
        <time>2019-08-03T08:09:49Z</time>
      </trkpt>
      <trkpt lat="42.98378" lon="-0.42263">
        <ele>509.16</ele>
        <time>2019-08-03T08:10:01Z</time>
      </trkpt>
      <trkpt lat="42.98372" lon="-0.4217">
        <ele>505.31</ele>
        <time>2019-08-03T08:10:13Z</time>
      </trkpt>
      <trkpt lat="42.98369" lon="-0.42105">
        <ele>503.39</ele>
        <time>2019-08-03T08:10:24Z</time>
      </trkpt>
      <trkpt lat="42.98363" lon="-0.42016">
        <ele>502.43</ele>
        <time>2019-08-03T08:10:38Z</time>
      </trkpt>
      <trkpt lat="42.98363" lon="-0.42004">
        <ele>502.91</ele>
        <time>2019-08-03T08:10:43Z</time>
      </trkpt>
      <trkpt lat="42.98364" lon="-0.42002">
        <ele>502.91</ele>
        <time>2019-08-03T08:10:44Z</time>
      </trkpt>
      <trkpt lat="42.98366" lon="-0.42001">
        <ele>502.91</ele>
        <time>2019-08-03T08:10:45Z</time>
      </trkpt>
      <trkpt lat="42.98367" lon="-0.42">
        <ele>502.91</ele>
        <time>2019-08-03T08:10:46Z</time>
      </trkpt>
      <trkpt lat="42.9837" lon="-0.41999">
        <ele>502.91</ele>
        <time>2019-08-03T08:10:47Z</time>
      </trkpt>
      <trkpt lat="42.98372" lon="-0.41999">
        <ele>502.91</ele>
        <time>2019-08-03T08:10:48Z</time>
      </trkpt>
      <trkpt lat="42.98374" lon="-0.41999">
        <ele>503.39</ele>
        <time>2019-08-03T08:10:49Z</time>
      </trkpt>
      <trkpt lat="42.98377" lon="-0.42">
        <ele>503.39</ele>
        <time>2019-08-03T08:10:50Z</time>
      </trkpt>
      <trkpt lat="42.9838" lon="-0.42001">
        <ele>503.39</ele>
        <time>2019-08-03T08:10:51Z</time>
      </trkpt>
      <trkpt lat="42.98382" lon="-0.42003">
        <ele>503.39</ele>
        <time>2019-08-03T08:10:52Z</time>
      </trkpt>
      <trkpt lat="42.98385" lon="-0.42005">
        <ele>503.87</ele>
        <time>2019-08-03T08:10:53Z</time>
      </trkpt>
      <trkpt lat="42.98388" lon="-0.42007">
        <ele>503.87</ele>
        <time>2019-08-03T08:10:54Z</time>
      </trkpt>
      <trkpt lat="42.98447" lon="-0.42045">
        <ele>505.31</ele>
        <time>2019-08-03T08:11:10Z</time>
      </trkpt>
      <trkpt lat="42.98451" lon="-0.42049">
        <ele>505.31</ele>
        <time>2019-08-03T08:11:11Z</time>
      </trkpt>
      <trkpt lat="42.98455" lon="-0.42053">
        <ele>505.31</ele>
        <time>2019-08-03T08:11:12Z</time>
      </trkpt>
      <trkpt lat="42.98516" lon="-0.42123">
        <ele>505.79</ele>
        <time>2019-08-03T08:11:28Z</time>
      </trkpt>
      <trkpt lat="42.98531" lon="-0.42136">
        <ele>506.27</ele>
        <time>2019-08-03T08:11:32Z</time>
      </trkpt>
      <trkpt lat="42.98584" lon="-0.42161">
        <ele>506.75</ele>
        <time>2019-08-03T08:11:45Z</time>
      </trkpt>
      <trkpt lat="42.98618" lon="-0.42162">
        <ele>505.79</ele>
        <time>2019-08-03T08:11:52Z</time>
      </trkpt>
      <trkpt lat="42.98623" lon="-0.4216">
        <ele>505.79</ele>
        <time>2019-08-03T08:11:53Z</time>
      </trkpt>
      <trkpt lat="42.98629" lon="-0.42158">
        <ele>506.27</ele>
        <time>2019-08-03T08:11:54Z</time>
      </trkpt>
      <trkpt lat="42.98634" lon="-0.42157">
        <ele>506.27</ele>
        <time>2019-08-03T08:11:55Z</time>
      </trkpt>
      <trkpt lat="42.9864" lon="-0.42158">
        <ele>506.27</ele>
        <time>2019-08-03T08:11:56Z</time>
      </trkpt>
      <trkpt lat="42.98645" lon="-0.42159">
        <ele>506.27</ele>
        <time>2019-08-03T08:11:57Z</time>
      </trkpt>
      <trkpt lat="42.98651" lon="-0.4216">
        <ele>506.27</ele>
        <time>2019-08-03T08:11:58Z</time>
      </trkpt>
      <trkpt lat="42.98672" lon="-0.42165">
        <ele>506.27</ele>
        <time>2019-08-03T08:12:02Z</time>
      </trkpt>
      <trkpt lat="42.98764" lon="-0.42189">
        <ele>508.19</ele>
        <time>2019-08-03T08:12:20Z</time>
      </trkpt>
      <trkpt lat="42.98794" lon="-0.42197">
        <ele>507.23</ele>
        <time>2019-08-03T08:12:27Z</time>
      </trkpt>
      <trkpt lat="42.98798" lon="-0.42198">
        <ele>507.23</ele>
        <time>2019-08-03T08:12:28Z</time>
      </trkpt>
      <trkpt lat="42.98838" lon="-0.42215">
        <ele>507.23</ele>
        <time>2019-08-03T08:12:40Z</time>
      </trkpt>
      <trkpt lat="42.98838" lon="-0.42215">
        <ele>507.71</ele>
        <time>2019-08-03T08:12:41Z</time>
      </trkpt>
    </trkseg>
  </trk>
</gpx>